Time,TemperatureF,DewpointF,PressureIn,WindDirection,WindDirectionDegrees,WindSpeedMPH,WindSpeedGustMPH,Humidity,HourlyPrecipIn,Conditions,Clouds,dailyrainin,SoftwareType,DateUTC
2013-12-15 00:01:00,12.4,8.7,30.10,NNW,345,1.0,2.3,85,0.00,CLR,OVC,0.00,WeatherDisplay:10.37,2013-12-15 05:01:00,
2013-12-15 00:02:00,12.4,8.7,30.10,NNW,345,1.9,3.0,85,0.00,CLR,OVC,0.00,WeatherDisplay:10.37,2013-12-15 05:02:00,
2013-12-15 00:06:00,12.4,8.7,30.10,NNW,345,0.5,2.3,85,0.00,CLR,OVC,0.00,WeatherDisplay:10.37,2013-12-15 05:06:00,
2013-12-15 00:07:00,12.4,8.7,30.09,NNW,345,0.5,1.2,85,0.00,CLR,OVC,0.00,WeatherDisplay:10.37,2013-12-15 05:07:00,
2013-12-15 00:11:00,12.5,8.8,30.09,NNW,345,0.1,1.2,85,0.00,CLR,OVC,0.00,WeatherDisplay:10.37,2013-12-15 05:11:00,
2013-12-15 00:12:00,12.5,8.8,30.08,NNW,345,1.4,3.5,85,0.00,CLR,OVC,0.00,WeatherDisplay:10.37,2013-12-15 05:12:00,
2013-12-15 00:16:00,12.6,8.9,30.08,NNW,345,3.6,4.6,85,0.00,CLR,OVC,0.00,WeatherDisplay:10.37,2013-12-15 05:16:00,
2013-12-15 00:19:00,12.7,9.0,30.08,SE,134,0.9,2.3,85,0.00,CLR,OVC,0.00,WeatherDisplay:10.37,2013-12-15 05:19:00,
2013-12-15 00:21:00,12.7,9.0,30.07,SE,131,2.6,3.5,85,0.00,CLR,OVC,0.00,WeatherDisplay:10.37,2013-12-15 05:21:00,
2013-12-15 00:24:00,12.8,9.1,30.07,SE,131,1.9,3.5,85,0.00,CLR,OVC,0.00,WeatherDisplay:10.37,2013-12-15 05:24:00,
2013-12-15 00:26:00,12.8,9.1,30.07,SE,131,2.0,3.0,85,0.00,CLR,OVC,0.00,WeatherDisplay:10.37,2013-12-15 05:26:00,
2013-12-15 00:27:00,12.8,9.1,30.07,SE,131,2.3,3.5,85,0.00,CLR,OVC,0.00,WeatherDisplay:10.37,2013-12-15 05:27:00,
2013-12-15 00:29:00,12.8,9.1,30.07,SE,131,1.0,2.3,85,0.00,CLR,OVC,0.00,WeatherDisplay:10.37,2013-12-15 05:29:00,
2013-12-15 00:31:00,12.8,9.1,30.07,SE,131,1.1,2.3,85,0.00,CLR,OVC,0.00,WeatherDisplay:10.37,2013-12-15 05:31:00,
2013-12-15 00:32:00,12.8,9.1,30.07,SE,131,1.0,2.3,85,0.00,CLR,OVC,0.00,WeatherDisplay:10.37,2013-12-15 05:32:00,
2013-12-15 00:36:00,13.1,9.7,30.06,SE,135,0.3,1.2,86,0.00,CLR,OVC,0.00,WeatherDisplay:10.37,2013-12-15 05:36:00,
2013-12-15 00:37:00,13.1,9.7,30.05,SE,135,0.7,1.2,86,0.00,CLR,OVC,0.00,WeatherDisplay:10.37,2013-12-15 05:37:00,
2013-12-15 00:38:00,13.2,9.8,30.05,SSE,166,4.1,5.0,86,0.00,CLR,OVC,0.00,WeatherDisplay:10.37,2013-12-15 05:38:00,
2013-12-15 00:41:00,13.7,10.5,30.05,SW,215,7.1,11.5,87,0.00,CLR,OVC,0.00,WeatherDisplay:10.37,2013-12-15 05:41:00,
2013-12-15 00:42:00,13.8,10.6,30.05,SW,230,7.5,11.5,87,0.00,CLR,OVC,0.00,WeatherDisplay:10.37,2013-12-15 05:42:00,
2013-12-15 00:43:00,14.1,10.9,30.05,SW,216,6.8,11.5,87,0.00,CLR,OVC,0.00,WeatherDisplay:10.37,2013-12-15 05:43:00,
2013-12-15 00:47:00,14.6,11.4,30.04,South,185,6.2,7.0,87,0.00,CLR,OVC,0.00,WeatherDisplay:10.37,2013-12-15 05:47:00,
2013-12-15 00:48:00,14.8,11.6,30.04,SSW,202,9.5,13.8,87,0.00,CLR,OVC,0.00,WeatherDisplay:10.37,2013-12-15 05:48:00,
2013-12-15 00:52:00,15.0,11.8,30.04,SSW,206,5.2,9.2,87,0.00,CLR,OVC,0.00,WeatherDisplay:10.37,2013-12-15 05:52:00,
2013-12-15 00:53:00,15.1,11.9,30.04,South,184,5.6,8.0,87,0.00,CLR,OVC,0.00,WeatherDisplay:10.37,2013-12-15 05:53:00,
2013-12-15 00:54:00,15.0,11.8,30.04,South,179,4.0,10.4,87,0.00,CLR,OVC,0.00,WeatherDisplay:10.37,2013-12-15 05:54:00,
2013-12-15 00:57:00,15.0,11.8,30.04,South,184,7.6,11.5,87,0.00,CLR,OVC,0.00,WeatherDisplay:10.37,2013-12-15 05:57:00,
2013-12-15 00:58:00,15.0,11.8,30.04,SW,214,5.8,11.5,87,0.00,CLR,OVC,0.00,WeatherDisplay:10.37,2013-12-15 05:58:00,
2013-12-15 00:59:00,15.1,11.9,30.04,SSW,202,7.9,9.2,87,0.00,CLR,OVC,0.00,WeatherDisplay:10.37,2013-12-15 05:59:00,
2013-12-15 01:02:00,15.0,11.8,30.03,South,175,8.5,11.5,87,0.00,CLR,OVC,0.00,WeatherDisplay:10.37,2013-12-15 06:02:00,
2013-12-15 01:03:00,15.0,11.8,30.03,South,188,8.9,11.5,87,0.00,CLR,OVC,0.00,WeatherDisplay:10.37,2013-12-15 06:03:00,
2013-12-15 01:04:00,15.0,11.8,30.02,South,186,4.0,13.8,87,0.00,CLR,OVC,0.00,WeatherDisplay:10.37,2013-12-15 06:04:00,
2013-12-15 01:07:00,15.0,11.8,30.02,South,173,5.7,8.1,87,0.00,CLR,OVC,0.00,WeatherDisplay:10.37,2013-12-15 06:07:00,
2013-12-15 01:08:00,15.0,11.8,30.03,South,181,7.0,9.2,87,0.00,CLR,OVC,0.00,WeatherDisplay:10.37,2013-12-15 06:08:00,
2013-12-15 01:09:00,15.0,12.1,30.02,SSW,197,6.7,9.2,88,0.00,CLR,OVC,0.00,WeatherDisplay:10.37,2013-12-15 06:09:00,
2013-12-15 01:13:00,15.1,11.9,30.01,South,179,8.0,10.4,87,0.00,CLR,OVC,0.00,WeatherDisplay:10.37,2013-12-15 06:13:00,
2013-12-15 01:14:00,15.1,11.9,30.01,South,175,6.5,10.4,87,0.00,CLR,OVC,0.00,WeatherDisplay:10.37,2013-12-15 06:14:00,
2013-12-15 01:15:00,15.1,11.9,30.01,SSW,209,9.0,10.4,87,0.00,CLR,OVC,0.00,WeatherDisplay:10.37,2013-12-15 06:15:00,
2013-12-15 01:18:00,15.1,11.9,30.01,South,181,4.2,10.0,87,0.00,CLR,OVC,0.00,WeatherDisplay:10.37,2013-12-15 06:18:00,
2013-12-15 01:19:00,15.1,12.2,30.01,SSW,201,8.0,10.4,88,0.00,CLR,OVC,0.00,WeatherDisplay:10.37,2013-12-15 06:19:00,
2013-12-15 01:20:00,15.1,12.2,30.00,SSW,211,7.0,9.2,88,0.00,CLR,OVC,0.00,WeatherDisplay:10.37,2013-12-15 06:20:00,
2013-12-15 01:23:00,15.1,12.2,30.00,SW,217,7.8,10.4,88,0.00,CLR,OVC,0.00,WeatherDisplay:10.37,2013-12-15 06:23:00,
2013-12-15 01:24:00,15.1,12.2,30.00,SSW,213,7.1,9.2,88,0.00,CLR,OVC,0.00,WeatherDisplay:10.37,2013-12-15 06:24:00,
2013-12-15 01:25:00,15.2,12.3,30.00,SSW,199,8.4,11.5,88,0.00,CLR,OVC,0.00,WeatherDisplay:10.37,2013-12-15 06:25:00,
2013-12-15 01:28:00,15.2,12.3,30.00,South,179,8.6,10.4,88,0.00,CLR,OVC,0.00,WeatherDisplay:10.37,2013-12-15 06:28:00,
2013-12-15 01:29:00,15.2,12.3,30.00,SSE,147,6.6,11.5,88,0.00,CLR,OVC,0.00,WeatherDisplay:10.37,2013-12-15 06:29:00,
2013-12-15 01:30:00,15.2,12.3,30.00,South,184,7.0,11.5,88,0.00,CLR,OVC,0.00,WeatherDisplay:10.37,2013-12-15 06:30:00,
2013-12-15 01:31:00,15.2,12.3,30.00,South,178,7.8,11.5,88,0.00,CLR,OVC,0.00,WeatherDisplay:10.37,2013-12-15 06:31:00,
2013-12-15 01:33:00,15.2,12.3,30.00,SSE,154,8.8,11.5,88,0.00,CLR,OVC,0.00,WeatherDisplay:10.37,2013-12-15 06:33:00,
2013-12-15 01:34:00,15.2,12.3,29.99,SSE,151,4.6,11.5,88,0.00,CLR,OVC,0.00,WeatherDisplay:10.37,2013-12-15 06:34:00,
2013-12-15 01:35:00,15.2,12.3,29.99,South,169,3.4,8.0,88,0.00,CLR,OVC,0.00,WeatherDisplay:10.37,2013-12-15 06:35:00,
2013-12-15 01:36:00,15.2,12.3,29.99,South,187,7.7,13.0,88,0.00,CLR,OVC,0.00,WeatherDisplay:10.37,2013-12-15 06:36:00,
2013-12-15 01:38:00,15.3,12.4,29.99,SSW,210,6.0,8.1,88,0.00,CLR,OVC,0.00,WeatherDisplay:10.37,2013-12-15 06:38:00,
2013-12-15 01:39:00,15.3,12.4,29.99,South,189,5.5,8.1,88,0.00,CLR,OVC,0.00,WeatherDisplay:10.37,2013-12-15 06:39:00,
2013-12-15 01:40:00,15.3,12.4,29.99,SSW,198,5.5,8.1,88,0.00,CLR,OVC,0.00,WeatherDisplay:10.37,2013-12-15 06:40:00,
2013-12-15 01:41:00,15.3,12.4,29.98,SE,132,4.9,9.2,88,0.00,CLR,OVC,0.00,WeatherDisplay:10.37,2013-12-15 06:41:00,
2013-12-15 01:42:00,15.3,12.4,29.98,SE,131,4.1,9.2,88,0.00,CLR,OVC,0.00,WeatherDisplay:10.37,2013-12-15 06:42:00,
2013-12-15 01:44:00,15.3,12.6,29.98,SSW,192,5.4,8.1,89,0.00,CLR,OVC,0.00,WeatherDisplay:10.37,2013-12-15 06:44:00,
2013-12-15 01:45:00,15.3,12.4,29.98,SSW,201,7.1,10.0,88,0.00,CLR,OVC,0.00,WeatherDisplay:10.37,2013-12-15 06:45:00,
2013-12-15 01:47:00,15.4,12.5,29.97,SSE,162,5.4,9.2,88,0.00,CLR,OVC,0.00,WeatherDisplay:10.37,2013-12-15 06:47:00,
2013-12-15 01:49:00,15.4,12.7,29.97,SSW,193,7.8,9.2,89,0.00,CLR,OVC,0.00,WeatherDisplay:10.37,2013-12-15 06:49:00,
2013-12-15 01:50:00,15.5,12.8,29.97,SSW,203,6.9,10.0,89,0.00,CLR,OVC,0.00,WeatherDisplay:10.37,2013-12-15 06:50:00,
2013-12-15 01:51:00,15.5,12.6,29.97,SSW,198,8.0,11.0,88,0.00,CLR,OVC,0.00,WeatherDisplay:10.37,2013-12-15 06:51:00,
2013-12-15 01:53:00,15.6,12.9,29.97,SW,223,8.7,12.0,89,0.00,CLR,OVC,0.00,WeatherDisplay:10.37,2013-12-15 06:53:00,
2013-12-15 01:54:00,15.6,12.7,29.97,SSW,198,8.7,11.5,88,0.00,CLR,OVC,0.00,WeatherDisplay:10.37,2013-12-15 06:54:00,
2013-12-15 01:55:00,15.6,12.9,29.97,South,177,6.5,11.5,89,0.00,CLR,OVC,0.00,WeatherDisplay:10.37,2013-12-15 06:55:00,
2013-12-15 01:57:00,15.6,12.7,29.96,South,172,2.7,8.1,88,0.00,CLR,OVC,0.00,WeatherDisplay:10.37,2013-12-15 06:57:00,
2013-12-15 01:58:00,15.6,12.7,29.96,SSE,168,4.7,8.0,88,0.00,CLR,OVC,0.00,WeatherDisplay:10.37,2013-12-15 06:58:00,
2013-12-15 01:59:00,15.6,12.7,29.96,South,171,4.8,9.2,88,0.00,CLR,OVC,0.00,WeatherDisplay:10.37,2013-12-15 06:59:00,
2013-12-15 02:00:00,15.6,12.9,29.96,South,187,3.3,9.2,89,0.00,CLR,OVC,0.00,WeatherDisplay:10.37,2013-12-15 07:00:00,
2013-12-15 02:01:00,15.6,12.7,29.96,SSW,193,4.5,5.8,88,0.00,CLR,OVC,0.00,WeatherDisplay:10.37,2013-12-15 07:01:00,
2013-12-15 02:02:00,15.7,13.0,29.95,SSE,157,3.8,6.9,89,0.00,CLR,OVC,0.00,WeatherDisplay:10.37,2013-12-15 07:02:00,
2013-12-15 02:03:00,15.7,13.0,29.96,SSW,205,4.8,7.0,89,0.00,CLR,OVC,0.00,WeatherDisplay:10.37,2013-12-15 07:03:00,
2013-12-15 02:04:00,15.7,12.8,29.95,SW,232,10.1,15.0,88,0.00,CLR,OVC,0.00,WeatherDisplay:10.37,2013-12-15 07:04:00,
2013-12-15 02:05:00,15.7,12.8,29.95,SW,217,5.0,12.7,88,0.00,CLR,OVC,0.00,WeatherDisplay:10.37,2013-12-15 07:05:00,
2013-12-15 02:06:00,15.6,12.7,29.94,SW,217,3.4,12.7,88,0.00,CLR,OVC,0.00,WeatherDisplay:10.37,2013-12-15 07:06:00,
2013-12-15 02:07:00,15.6,12.7,29.95,SW,216,2.8,4.6,88,0.00,CLR,OVC,0.00,WeatherDisplay:10.37,2013-12-15 07:07:00,
2013-12-15 02:08:00,15.6,12.7,29.94,SW,216,2.5,4.6,88,0.00,CLR,OVC,0.00,WeatherDisplay:10.37,2013-12-15 07:08:00,
2013-12-15 02:09:00,15.6,12.9,29.95,SSW,197,4.3,6.9,89,0.00,CLR,OVC,0.00,WeatherDisplay:10.37,2013-12-15 07:09:00,
2013-12-15 02:11:00,15.7,13.0,29.95,SSE,168,6.0,8.1,89,0.00,CLR,OVC,0.00,WeatherDisplay:10.37,2013-12-15 07:11:00,
2013-12-15 02:12:00,15.7,13.0,29.94,SSW,205,5.6,9.0,89,0.00,CLR,OVC,0.00,WeatherDisplay:10.37,2013-12-15 07:12:00,
2013-12-15 02:13:00,15.8,13.1,29.95,South,170,7.6,10.4,89,0.00,CLR,OVC,0.00,WeatherDisplay:10.37,2013-12-15 07:13:00,
2013-12-15 02:14:00,15.8,13.1,29.94,SSE,151,5.2,8.1,89,0.00,CLR,OVC,0.00,WeatherDisplay:10.37,2013-12-15 07:14:00,
2013-12-15 02:16:00,15.9,13.2,29.95,SSW,200,5.5,6.9,89,0.00,CLR,OVC,0.00,WeatherDisplay:10.37,2013-12-15 07:16:00,
2013-12-15 02:17:00,15.9,13.2,29.94,SSW,200,4.9,7.0,89,0.00,CLR,OVC,0.00,WeatherDisplay:10.37,2013-12-15 07:17:00,
2013-12-15 02:18:00,15.9,13.2,29.94,SE,125,6.3,10.0,89,0.00,CLR,OVC,0.00,WeatherDisplay:10.37,2013-12-15 07:18:00,
2013-12-15 02:19:00,16.0,13.3,29.94,SE,142,7.3,11.5,89,0.00,CLR,OVC,0.00,WeatherDisplay:10.37,2013-12-15 07:19:00,
2013-12-15 02:22:00,16.1,13.4,29.94,SSW,213,6.8,10.4,89,0.00,CLR,OVC,0.00,WeatherDisplay:10.37,2013-12-15 07:22:00,
2013-12-15 02:23:00,16.1,13.4,29.94,SW,230,7.9,11.5,89,0.00,CLR,OVC,0.00,WeatherDisplay:10.37,2013-12-15 07:23:00,
2013-12-15 02:24:00,16.1,13.4,29.94,SSW,195,7.1,11.5,89,0.00,CLR,OVC,0.00,WeatherDisplay:10.37,2013-12-15 07:24:00,
2013-12-15 02:25:00,16.1,13.4,29.94,SSW,195,8.4,11.5,89,0.00,CLR,OVC,0.00,WeatherDisplay:10.37,2013-12-15 07:25:00,
2013-12-15 02:27:00,16.0,13.1,29.93,SW,215,5.7,10.4,88,0.00,CLR,OVC,0.00,WeatherDisplay:10.37,2013-12-15 07:27:00,
2013-12-15 02:29:00,16.0,13.3,29.93,ESE,123,3.1,6.9,89,0.00,CLR,OVC,0.00,WeatherDisplay:10.37,2013-12-15 07:29:00,
2013-12-15 02:30:00,16.0,13.3,29.92,SSE,155,4.3,8.0,89,0.00,CLR,OVC,0.00,WeatherDisplay:10.37,2013-12-15 07:30:00,
2013-12-15 02:32:00,16.0,13.3,29.92,South,178,5.9,11.5,89,0.00,CLR,OVC,0.00,WeatherDisplay:10.37,2013-12-15 07:32:00,
2013-12-15 02:33:00,16.0,13.3,29.92,SSW,198,6.1,9.2,89,0.00,CLR,OVC,0.00,WeatherDisplay:10.37,2013-12-15 07:33:00,
2013-12-15 02:34:00,16.0,13.3,29.92,SSW,195,5.0,7.0,89,0.00,CLR,OVC,0.00,WeatherDisplay:10.37,2013-12-15 07:34:00,
2013-12-15 02:35:00,16.0,13.3,29.91,South,174,6.7,9.0,89,0.00,CLR,OVC,0.00,WeatherDisplay:10.37,2013-12-15 07:35:00,
2013-12-15 02:38:00,16.2,13.5,29.91,SSW,211,6.9,9.2,89,0.00,CLR,OVC,0.00,WeatherDisplay:10.37,2013-12-15 07:38:00,
2013-12-15 02:40:00,16.2,13.5,29.91,SSE,167,8.3,11.5,89,0.00,CLR,OVC,0.00,WeatherDisplay:10.37,2013-12-15 07:40:00,
2013-12-15 02:43:00,16.2,13.5,29.89,South,188,7.3,11.5,89,0.00,CLR,OVC,0.00,WeatherDisplay:10.37,2013-12-15 07:43:00,
2013-12-15 02:45:00,16.3,13.6,29.89,SSE,161,7.6,11.5,89,0.00,CLR,OVC,0.00,WeatherDisplay:10.37,2013-12-15 07:45:00,
2013-12-15 02:46:00,16.4,13.7,29.90,SSE,162,2.9,11.5,89,0.00,CLR,OVC,0.00,WeatherDisplay:10.37,2013-12-15 07:46:00,
2013-12-15 02:48:00,16.4,14.0,29.90,South,171,6.1,8.1,90,0.00,CLR,OVC,0.00,WeatherDisplay:10.37,2013-12-15 07:48:00,
2013-12-15 02:50:00,16.5,13.8,29.89,South,173,5.6,6.9,89,0.00,CLR,OVC,0.00,WeatherDisplay:10.37,2013-12-15 07:50:00,
2013-12-15 02:51:00,16.5,14.1,29.89,South,174,5.6,8.0,90,0.00,CLR,OVC,0.00,WeatherDisplay:10.37,2013-12-15 07:51:00,
2013-12-15 02:53:00,16.6,14.2,29.89,SSW,203,8.1,11.5,90,0.00,CLR,OVC,0.00,WeatherDisplay:10.37,2013-12-15 07:53:00,
2013-12-15 02:55:00,16.7,14.3,29.89,SSW,202,9.3,12.7,90,0.00,CLR,OVC,0.00,WeatherDisplay:10.37,2013-12-15 07:55:00,
2013-12-15 02:56:00,16.8,14.4,29.88,SSW,211,8.8,12.7,90,0.00,CLR,OVC,0.00,WeatherDisplay:10.37,2013-12-15 07:56:00,
2013-12-15 02:57:00,16.9,14.5,29.88,SSW,199,6.9,10.4,90,0.00,CLR,OVC,0.00,WeatherDisplay:10.37,2013-12-15 07:57:00,
2013-12-15 02:58:00,16.9,14.5,29.88,SSW,209,6.2,10.4,90,0.00,CLR,OVC,0.00,WeatherDisplay:10.37,2013-12-15 07:58:00,
2013-12-15 03:00:00,17.0,14.6,29.88,SW,223,6.1,10.4,90,0.00,CLR,OVC,0.00,WeatherDisplay:10.37,2013-12-15 08:00:00,
2013-12-15 03:01:00,17.0,14.6,29.88,SW,214,8.3,11.0,90,0.00,CLR,OVC,0.00,WeatherDisplay:10.37,2013-12-15 08:01:00,
2013-12-15 03:03:00,17.1,14.7,29.88,SSW,204,8.7,11.5,90,0.00,CLR,OVC,0.00,WeatherDisplay:10.37,2013-12-15 08:03:00,
2013-12-15 03:04:00,17.0,14.6,29.88,SSW,198,7.5,11.5,90,0.00,CLR,OVC,0.00,WeatherDisplay:10.37,2013-12-15 08:04:00,
2013-12-15 03:06:00,17.1,14.7,29.88,South,186,5.3,9.0,90,0.00,CLR,OVC,0.00,WeatherDisplay:10.37,2013-12-15 08:06:00,
2013-12-15 03:08:00,17.1,14.4,29.86,SW,214,5.6,13.8,89,0.00,CLR,OVC,0.00,WeatherDisplay:10.37,2013-12-15 08:08:00,
2013-12-15 03:10:00,17.1,14.4,29.86,SSW,200,6.4,9.2,89,0.00,CLR,OVC,0.00,WeatherDisplay:10.37,2013-12-15 08:10:00,
2013-12-15 03:11:00,17.1,14.7,29.86,SSE,159,4.3,9.2,90,0.00,CLR,OVC,0.00,WeatherDisplay:10.37,2013-12-15 08:11:00,
2013-12-15 03:12:00,17.1,14.7,29.86,SSE,167,6.6,9.2,90,0.00,CLR,OVC,0.00,WeatherDisplay:10.37,2013-12-15 08:12:00,
2013-12-15 03:13:00,17.2,14.8,29.86,SSW,193,5.9,9.2,90,0.00,CLR,OVC,0.00,WeatherDisplay:10.37,2013-12-15 08:13:00,
2013-12-15 03:14:00,17.2,14.8,29.85,SSW,202,5.7,9.2,90,0.00,CLR,OVC,0.00,WeatherDisplay:10.37,2013-12-15 08:14:00,
2013-12-15 03:15:00,17.2,14.8,29.85,SSW,202,4.1,8.1,90,0.00,CLR,OVC,0.00,WeatherDisplay:10.37,2013-12-15 08:15:00,
2013-12-15 03:16:00,17.3,14.9,29.84,SSW,202,0.7,2.3,90,0.00,CLR,OVC,0.00,WeatherDisplay:10.37,2013-12-15 08:16:00,
2013-12-15 03:17:00,17.3,14.9,29.84,SSW,202,1.4,2.3,90,0.00,CLR,OVC,0.00,WeatherDisplay:10.37,2013-12-15 08:17:00,
2013-12-15 03:18:00,17.3,14.9,29.84,South,175,3.6,6.9,90,0.00,CLR,OVC,0.00,WeatherDisplay:10.37,2013-12-15 08:18:00,
2013-12-15 03:19:00,17.3,14.9,29.84,South,176,2.9,5.0,90,0.00,CLR,OVC,0.00,WeatherDisplay:10.37,2013-12-15 08:19:00,
2013-12-15 03:20:00,17.3,14.9,29.84,South,177,2.0,4.6,90,0.00,CLR,OVC,0.00,WeatherDisplay:10.37,2013-12-15 08:20:00,
2013-12-15 03:21:00,17.4,15.0,29.83,SW,219,3.0,4.6,90,0.00,CLR,OVC,0.00,WeatherDisplay:10.37,2013-12-15 08:21:00,
2013-12-15 03:22:00,17.4,15.0,29.83,SW,217,3.0,4.6,90,0.00,CLR,OVC,0.00,WeatherDisplay:10.37,2013-12-15 08:22:00,
2013-12-15 03:24:00,17.4,15.0,29.83,SSW,212,1.5,3.5,90,0.00,CLR,OVC,0.00,WeatherDisplay:10.37,2013-12-15 08:24:00,
2013-12-15 03:25:00,17.5,15.1,29.83,SSW,212,0.8,3.5,90,0.00,CLR,OVC,0.00,WeatherDisplay:10.37,2013-12-15 08:25:00,
2013-12-15 03:26:00,17.5,15.1,29.84,SW,218,6.9,10.4,90,0.00,CLR,OVC,0.00,WeatherDisplay:10.37,2013-12-15 08:26:00,
2013-12-15 03:27:00,17.6,15.2,29.84,SSW,213,8.6,11.5,90,0.00,CLR,OVC,0.00,WeatherDisplay:10.37,2013-12-15 08:27:00,
2013-12-15 03:29:00,17.7,15.3,29.84,South,179,4.9,10.4,90,0.00,CLR,OVC,0.00,WeatherDisplay:10.37,2013-12-15 08:29:00,
2013-12-15 03:30:00,17.7,15.3,29.84,SSW,206,4.4,10.4,90,0.00,CLR,OVC,0.00,WeatherDisplay:10.37,2013-12-15 08:30:00,
2013-12-15 03:31:00,17.8,15.6,29.84,SW,236,7.2,10.4,91,0.00,CLR,OVC,0.00,WeatherDisplay:10.37,2013-12-15 08:31:00,
2013-12-15 03:32:00,17.8,15.4,29.84,SW,230,5.2,6.9,90,0.00,CLR,OVC,0.00,WeatherDisplay:10.37,2013-12-15 08:32:00,
2013-12-15 03:35:00,17.8,15.6,29.83,South,188,2.2,9.0,91,0.00,CLR,OVC,0.00,WeatherDisplay:10.37,2013-12-15 08:35:00,
2013-12-15 03:36:00,18.0,15.8,29.83,South,179,6.5,11.5,91,0.00,CLR,OVC,0.00,WeatherDisplay:10.37,2013-12-15 08:36:00,
2013-12-15 03:38:00,18.2,16.0,29.83,SSW,210,4.1,6.9,91,0.00,CLR,OVC,0.00,WeatherDisplay:10.37,2013-12-15 08:38:00,
2013-12-15 03:40:00,18.4,16.2,29.83,SW,229,2.2,6.9,91,0.00,CLR,OVC,0.00,WeatherDisplay:10.37,2013-12-15 08:40:00,
2013-12-15 03:41:00,18.5,16.3,29.83,SW,229,1.0,3.5,91,0.00,CLR,OVC,0.00,WeatherDisplay:10.37,2013-12-15 08:41:00,
2013-12-15 03:42:00,18.6,16.4,29.82,SW,229,3.6,4.6,91,0.00,CLR,OVC,0.00,WeatherDisplay:10.37,2013-12-15 08:42:00,
2013-12-15 03:43:00,18.7,16.5,29.82,SW,229,0.9,4.6,91,0.00,CLR,OVC,0.00,WeatherDisplay:10.37,2013-12-15 08:43:00,
2013-12-15 03:45:00,18.8,16.6,29.81,SE,131,3.6,5.8,91,0.00,CLR,OVC,0.00,WeatherDisplay:10.37,2013-12-15 08:45:00,
2013-12-15 03:47:00,18.9,16.7,29.80,SW,221,4.6,4.6,91,0.00,CLR,OVC,0.00,WeatherDisplay:10.37,2013-12-15 08:47:00,
2013-12-15 03:48:00,19.0,16.8,29.80,SW,221,0.2,11.5,91,0.00,CLR,OVC,0.00,WeatherDisplay:10.37,2013-12-15 08:48:00,
2013-12-15 03:50:00,19.2,17.0,29.80,SSE,160,3.1,5.0,91,0.00,CLR,OVC,0.00,WeatherDisplay:10.37,2013-12-15 08:50:00,
2013-12-15 03:52:00,19.3,17.1,29.80,SSE,159,0.2,4.6,91,0.00,CLR,OVC,0.00,WeatherDisplay:10.37,2013-12-15 08:52:00,
2013-12-15 03:53:00,19.3,17.1,29.80,SSE,159,0.0,1.2,91,0.00,CLR,OVC,0.00,WeatherDisplay:10.37,2013-12-15 08:53:00,
2013-12-15 03:54:00,19.3,17.1,29.80,SSW,196,1.1,5.0,91,0.00,CLR,OVC,0.00,WeatherDisplay:10.37,2013-12-15 08:54:00,
2013-12-15 03:55:00,19.3,17.1,29.79,SW,215,2.1,4.6,91,0.00,CLR,OVC,0.00,WeatherDisplay:10.37,2013-12-15 08:55:00,
2013-12-15 03:56:00,19.4,17.2,29.79,SW,214,1.1,4.6,91,0.00,CLR,OVC,0.00,WeatherDisplay:10.37,2013-12-15 08:56:00,
2013-12-15 03:57:00,19.4,17.2,29.79,SSW,213,4.9,5.8,91,0.00,CLR,OVC,0.00,WeatherDisplay:10.37,2013-12-15 08:57:00,
2013-12-15 03:59:00,19.5,17.3,29.78,SSW,213,3.5,5.8,91,0.00,CLR,OVC,0.00,WeatherDisplay:10.37,2013-12-15 08:59:00,
2013-12-15 04:00:00,19.5,17.3,29.79,SSW,213,1.5,3.5,91,0.00,CLR,OVC,0.00,WeatherDisplay:10.37,2013-12-15 09:00:00,
2013-12-15 04:01:00,19.5,17.3,29.78,SSW,213,0.2,3.5,91,0.00,CLR,OVC,0.00,WeatherDisplay:10.37,2013-12-15 09:01:00,
2013-12-15 04:02:00,19.5,17.3,29.78,SSW,213,0.8,2.3,91,0.00,CLR,OVC,0.00,WeatherDisplay:10.37,2013-12-15 09:02:00,
2013-12-15 04:03:00,19.5,17.0,29.77,SSW,213,0.0,2.3,90,0.00,CLR,OVC,0.00,WeatherDisplay:10.37,2013-12-15 09:03:00,
2013-12-15 04:04:00,19.5,17.0,29.77,SSW,201,0.9,2.0,90,0.00,CLR,OVC,0.00,WeatherDisplay:10.37,2013-12-15 09:04:00,
2013-12-15 04:06:00,19.5,17.3,29.77,SSW,199,0.5,3.5,91,0.00,CLR,OVC,0.00,WeatherDisplay:10.37,2013-12-15 09:06:00,
2013-12-15 04:07:00,19.6,17.4,29.77,SSW,199,0.0,0.0,91,0.00,CLR,OVC,0.00,WeatherDisplay:10.37,2013-12-15 09:07:00,
2013-12-15 04:08:00,19.6,17.4,29.77,SSW,199,0.0,0.0,91,0.00,CLR,OVC,0.00,WeatherDisplay:10.37,2013-12-15 09:08:00,
2013-12-15 04:09:00,19.6,17.4,29.77,SSW,199,0.0,0.0,91,0.00,CLR,OVC,0.00,WeatherDisplay:10.37,2013-12-15 09:09:00,
2013-12-15 04:11:00,19.6,17.4,29.77,SSW,199,2.2,3.0,91,0.00,CLR,OVC,0.00,WeatherDisplay:10.37,2013-12-15 09:11:00,
2013-12-15 04:13:00,19.7,17.5,29.76,South,191,0.8,6.0,91,0.00,CLR,OVC,0.00,WeatherDisplay:10.37,2013-12-15 09:13:00,
2013-12-15 04:14:00,19.7,17.5,29.76,South,176,5.7,6.9,91,0.00,CLR,OVC,0.00,WeatherDisplay:10.37,2013-12-15 09:14:00,
2013-12-15 04:16:00,19.9,17.7,29.76,South,179,5.6,10.4,91,0.00,CLR,OVC,0.00,WeatherDisplay:10.37,2013-12-15 09:16:00,
2013-12-15 04:18:00,20.1,17.9,29.76,SSE,155,2.5,5.8,91,0.00,CLR,OVC,0.00,WeatherDisplay:10.37,2013-12-15 09:18:00,
2013-12-15 04:19:00,20.4,18.2,29.76,SSE,163,3.6,5.8,91,0.00,CLR,OVC,0.00,WeatherDisplay:10.37,2013-12-15 09:19:00,
2013-12-15 04:20:00,20.4,18.4,29.76,SSE,163,3.2,5.8,92,0.00,CLR,OVC,0.00,WeatherDisplay:10.37,2013-12-15 09:20:00,
2013-12-15 04:21:00,20.5,18.3,29.76,SSE,147,1.6,5.0,91,0.00,CLR,OVC,0.00,WeatherDisplay:10.37,2013-12-15 09:21:00,
2013-12-15 04:23:00,20.6,18.4,29.75,SE,138,4.0,10.4,91,0.00,CLR,OVC,0.00,WeatherDisplay:10.37,2013-12-15 09:23:00,
2013-12-15 04:25:00,20.7,18.5,29.75,SSE,166,5.6,8.1,91,0.00,CLR,OVC,0.00,WeatherDisplay:10.37,2013-12-15 09:25:00,
2013-12-15 04:26:00,20.7,18.5,29.75,SSE,168,4.5,8.1,91,0.00,CLR,OVC,0.00,WeatherDisplay:10.37,2013-12-15 09:26:00,
2013-12-15 04:28:00,20.7,18.5,29.75,SSW,198,3.7,8.1,91,0.00,CLR,OVC,0.00,WeatherDisplay:10.37,2013-12-15 09:28:00,
2013-12-15 04:31:00,20.6,18.1,29.75,South,176,4.3,6.9,90,0.00,CLR,OVC,0.00,WeatherDisplay:10.37,2013-12-15 09:31:00,
2013-12-15 04:32:00,20.6,18.4,29.75,South,176,3.0,6.9,91,0.00,CLR,OVC,0.00,WeatherDisplay:10.37,2013-12-15 09:32:00,
2013-12-15 04:33:00,20.6,18.4,29.74,South,185,2.5,5.0,91,0.00,CLR,OVC,0.00,WeatherDisplay:10.37,2013-12-15 09:33:00,
2013-12-15 04:36:00,20.6,18.4,29.74,South,189,2.1,4.6,91,0.00,CLR,OVC,0.00,WeatherDisplay:10.37,2013-12-15 09:36:00,
2013-12-15 04:37:00,20.6,18.4,29.73,South,189,2.5,4.6,91,0.00,CLR,OVC,0.00,WeatherDisplay:10.37,2013-12-15 09:37:00,
2013-12-15 04:38:00,20.6,18.1,29.73,South,189,0.1,1.2,90,0.00,CLR,OVC,0.00,WeatherDisplay:10.37,2013-12-15 09:38:00,
2013-12-15 04:41:00,20.7,18.5,29.73,South,189,0.7,3.5,91,0.00,CLR,OVC,0.00,WeatherDisplay:10.37,2013-12-15 09:41:00,
2013-12-15 04:42:00,20.7,18.2,29.73,South,189,3.4,4.0,90,0.00,CLR,OVC,0.00,WeatherDisplay:10.37,2013-12-15 09:42:00,
2013-12-15 04:43:00,20.7,18.2,29.73,South,189,3.2,4.6,90,0.00,CLR,OVC,0.00,WeatherDisplay:10.37,2013-12-15 09:43:00,
2013-12-15 04:46:00,20.8,18.6,29.73,South,189,1.1,3.5,91,0.00,CLR,OVC,0.00,WeatherDisplay:10.37,2013-12-15 09:46:00,
2013-12-15 04:47:00,20.8,18.6,29.73,South,189,1.9,3.5,91,0.00,CLR,OVC,0.00,WeatherDisplay:10.37,2013-12-15 09:47:00,
2013-12-15 04:48:00,20.8,18.6,29.73,South,188,1.8,3.5,91,0.00,CLR,OVC,0.00,WeatherDisplay:10.37,2013-12-15 09:48:00,
2013-12-15 04:49:00,20.8,18.6,29.73,South,189,0.6,3.5,91,0.00,CLR,OVC,0.00,WeatherDisplay:10.37,2013-12-15 09:49:00,
2013-12-15 04:52:00,21.0,19.0,29.73,SSW,197,6.3,11.5,92,0.00,CLR,OVC,0.00,WeatherDisplay:10.37,2013-12-15 09:52:00,
2013-12-15 04:53:00,21.1,19.1,29.73,SSW,198,7.2,9.2,92,0.00,CLR,OVC,0.00,WeatherDisplay:10.37,2013-12-15 09:53:00,
2013-12-15 04:54:00,21.3,19.3,29.73,SSW,213,6.7,9.2,92,0.00,CLR,OVC,0.00,WeatherDisplay:10.37,2013-12-15 09:54:00,
2013-12-15 04:55:00,21.4,19.4,29.72,South,187,6.9,9.2,92,0.00,CLR,OVC,0.00,WeatherDisplay:10.37,2013-12-15 09:55:00,
2013-12-15 04:57:00,21.5,19.5,29.72,SSW,194,4.8,6.9,92,0.00,CLR,OVC,0.00,WeatherDisplay:10.37,2013-12-15 09:57:00,
2013-12-15 04:58:00,21.6,19.6,29.72,South,184,3.2,5.8,92,0.00,CLR,OVC,0.00,WeatherDisplay:10.37,2013-12-15 09:58:00,
2013-12-15 05:00:00,21.7,19.7,29.72,South,181,2.9,4.6,92,0.00,CLR,OVC,0.00,WeatherDisplay:10.37,2013-12-15 10:00:00,
2013-12-15 05:02:00,21.8,19.6,29.72,South,181,2.3,3.5,91,0.00,CLR,OVC,0.00,WeatherDisplay:10.37,2013-12-15 10:02:00,
2013-12-15 05:03:00,21.9,19.9,29.72,South,181,2.2,3.5,92,0.00,CLR,OVC,0.00,WeatherDisplay:10.37,2013-12-15 10:03:00,
2013-12-15 05:05:00,21.9,19.9,29.72,South,170,4.0,6.0,92,0.00,CLR,OVC,0.00,WeatherDisplay:10.37,2013-12-15 10:05:00,
2013-12-15 05:07:00,21.9,19.7,29.72,SSE,168,1.3,4.6,91,0.00,CLR,OVC,0.00,WeatherDisplay:10.37,2013-12-15 10:07:00,
2013-12-15 05:08:00,21.9,19.9,29.72,South,169,1.8,4.6,92,0.00,CLR,OVC,0.00,WeatherDisplay:10.37,2013-12-15 10:08:00,
2013-12-15 05:09:00,21.9,19.7,29.72,South,169,4.4,4.6,91,0.00,CLR,OVC,0.00,WeatherDisplay:10.37,2013-12-15 10:09:00,
2013-12-15 05:10:00,21.9,19.9,29.71,SSE,163,5.6,7.0,92,0.00,CLR,OVC,0.00,WeatherDisplay:10.37,2013-12-15 10:10:00,
2013-12-15 05:11:00,21.9,19.7,29.71,SSE,162,3.2,8.1,91,0.00,CLR,OVC,0.00,WeatherDisplay:10.37,2013-12-15 10:11:00,
2013-12-15 05:12:00,21.9,19.7,29.71,South,172,3.4,6.0,91,0.00,CLR,OVC,0.00,WeatherDisplay:10.37,2013-12-15 10:12:00,
2013-12-15 05:14:00,21.9,19.7,29.71,South,191,2.7,5.8,91,0.00,CLR,OVC,0.00,WeatherDisplay:10.37,2013-12-15 10:14:00,
2013-12-15 05:15:00,21.8,19.8,29.71,SSE,147,4.1,4.6,92,0.00,CLR,OVC,0.00,WeatherDisplay:10.37,2013-12-15 10:15:00,
2013-12-15 05:16:00,21.8,19.8,29.70,SSE,147,2.5,5.8,92,0.00,CLR,OVC,0.00,WeatherDisplay:10.37,2013-12-15 10:16:00,
2013-12-15 05:18:00,21.9,19.9,29.70,South,186,6.0,6.9,92,0.00,CLR,OVC,0.00,WeatherDisplay:10.37,2013-12-15 10:18:00,
2013-12-15 05:19:00,21.9,19.9,29.70,South,175,5.0,9.0,92,0.00,CLR,OVC,0.00,WeatherDisplay:10.37,2013-12-15 10:19:00,
2013-12-15 05:20:00,22.0,20.0,29.70,SSW,193,4.5,8.1,92,0.00,CLR,OVC,0.00,WeatherDisplay:10.37,2013-12-15 10:20:00,
2013-12-15 05:21:00,22.0,20.0,29.70,SSW,195,4.5,8.1,92,0.00,CLR,OVC,0.00,WeatherDisplay:10.37,2013-12-15 10:21:00,
2013-12-15 05:23:00,22.1,20.1,29.70,SE,143,5.3,8.1,92,0.00,CLR,OVC,0.00,WeatherDisplay:10.37,2013-12-15 10:23:00,
2013-12-15 05:24:00,22.1,20.1,29.70,SE,138,4.0,5.8,92,0.00,CLR,OVC,0.00,WeatherDisplay:10.37,2013-12-15 10:24:00,
2013-12-15 05:25:00,22.1,20.1,29.70,SSE,149,3.7,5.8,92,0.00,CLR,OVC,0.00,WeatherDisplay:10.37,2013-12-15 10:25:00,
2013-12-15 05:26:00,22.2,20.2,29.69,SW,221,4.4,8.1,92,0.00,CLR,OVC,0.00,WeatherDisplay:10.37,2013-12-15 10:26:00,
2013-12-15 05:28:00,22.4,20.7,29.68,SSW,209,6.5,10.0,93,0.00,CLR,OVC,0.00,WeatherDisplay:10.37,2013-12-15 10:28:00,
2013-12-15 05:29:00,22.5,20.8,29.69,SW,227,8.6,11.5,93,0.00,CLR,OVC,0.00,WeatherDisplay:10.37,2013-12-15 10:29:00,
2013-12-15 05:30:00,22.5,20.8,29.69,SW,230,9.0,11.5,93,0.00,CLR,OVC,0.00,WeatherDisplay:10.37,2013-12-15 10:30:00,
2013-12-15 05:32:00,22.7,21.0,29.69,SW,235,4.9,6.9,93,0.00,CLR,OVC,0.00,WeatherDisplay:10.37,2013-12-15 10:32:00,
2013-12-15 05:34:00,22.8,21.1,29.68,South,177,9.0,12.7,93,0.00,CLR,OVC,0.00,WeatherDisplay:10.37,2013-12-15 10:34:00,
2013-12-15 05:35:00,22.9,21.2,29.69,SSW,202,7.9,11.5,93,0.00,CLR,OVC,0.00,WeatherDisplay:10.37,2013-12-15 10:35:00,
2013-12-15 05:36:00,22.9,21.2,29.68,SW,220,8.1,11.5,93,0.00,CLR,OVC,0.00,WeatherDisplay:10.37,2013-12-15 10:36:00,
2013-12-15 05:38:00,23.0,21.0,29.68,WSW,237,6.0,9.2,92,0.00,CLR,OVC,0.00,WeatherDisplay:10.37,2013-12-15 10:38:00,
2013-12-15 05:39:00,23.0,21.3,29.68,WSW,237,4.6,9.2,93,0.00,CLR,OVC,0.00,WeatherDisplay:10.37,2013-12-15 10:39:00,
2013-12-15 05:40:00,23.0,21.3,29.68,WSW,244,4.4,6.0,93,0.00,CLR,OVC,0.00,WeatherDisplay:10.37,2013-12-15 10:40:00,
2013-12-15 05:41:00,23.1,21.4,29.69,WSW,244,4.6,5.8,93,0.00,CLR,OVC,0.00,WeatherDisplay:10.37,2013-12-15 10:41:00,
2013-12-15 05:43:00,23.1,21.4,29.67,WSW,244,0.6,3.5,93,0.00,CLR,OVC,0.00,WeatherDisplay:10.37,2013-12-15 10:43:00,
2013-12-15 05:44:00,23.1,21.4,29.67,SW,232,1.0,6.0,93,0.00,CLR,OVC,0.00,WeatherDisplay:10.37,2013-12-15 10:44:00,
2013-12-15 05:45:00,23.1,21.4,29.67,WSW,244,0.9,3.5,93,0.00,CLR,OVC,0.00,WeatherDisplay:10.37,2013-12-15 10:45:00,
2013-12-15 05:46:00,23.1,21.4,29.67,WSW,244,0.4,3.5,93,0.00,CLR,OVC,0.00,WeatherDisplay:10.37,2013-12-15 10:46:00,
2013-12-15 05:47:00,23.1,21.1,29.67,WSW,243,0.3,2.3,92,0.00,CLR,OVC,0.00,WeatherDisplay:10.37,2013-12-15 10:47:00,
2013-12-15 05:49:00,23.1,21.1,29.68,WSW,244,1.2,2.3,92,0.00,CLR,OVC,0.00,WeatherDisplay:10.37,2013-12-15 10:49:00,
2013-12-15 05:50:00,23.1,21.1,29.69,WSW,243,1.4,2.3,92,0.00,CLR,OVC,0.00,WeatherDisplay:10.37,2013-12-15 10:50:00,
2013-12-15 05:51:00,23.1,21.4,29.68,WSW,244,0.4,3.5,93,0.00,CLR,OVC,0.00,WeatherDisplay:10.37,2013-12-15 10:51:00,
2013-12-15 05:52:00,23.0,21.0,29.68,SW,219,1.3,4.0,92,0.00,CLR,OVC,0.00,WeatherDisplay:10.37,2013-12-15 10:52:00,
2013-12-15 05:54:00,23.0,21.0,29.68,SSW,208,0.7,3.5,92,0.00,CLR,OVC,0.00,WeatherDisplay:10.37,2013-12-15 10:54:00,
2013-12-15 05:55:00,23.0,21.0,29.68,SSW,208,1.1,4.0,92,0.00,CLR,OVC,0.00,WeatherDisplay:10.37,2013-12-15 10:55:00,
2013-12-15 05:56:00,22.9,21.2,29.68,South,181,3.8,6.0,93,0.00,CLR,OVC,0.00,WeatherDisplay:10.37,2013-12-15 10:56:00,
2013-12-15 05:57:00,22.9,20.9,29.68,South,173,4.6,5.8,92,0.00,CLR,OVC,0.00,WeatherDisplay:10.37,2013-12-15 10:57:00,
2013-12-15 05:59:00,22.8,20.8,29.68,South,181,4.7,6.9,92,0.00,CLR,OVC,0.00,WeatherDisplay:10.37,2013-12-15 10:59:00,
2013-12-15 06:00:00,22.8,20.8,29.68,South,191,4.7,6.9,92,0.00,CLR,OVC,0.00,WeatherDisplay:10.37,2013-12-15 11:00:00,
2013-12-15 06:01:00,22.8,20.8,29.68,SSW,195,4.0,5.8,92,0.00,CLR,OVC,0.00,WeatherDisplay:10.37,2013-12-15 11:01:00,
2013-12-15 06:02:00,22.8,20.8,29.67,SSW,195,2.5,3.5,92,0.00,CLR,OVC,0.00,WeatherDisplay:10.37,2013-12-15 11:02:00,
2013-12-15 06:04:00,22.7,20.7,29.67,SSW,195,0.1,3.5,92,0.00,CLR,OVC,0.00,WeatherDisplay:10.37,2013-12-15 11:04:00,
2013-12-15 06:05:00,22.7,20.7,29.67,SSW,195,0.4,3.5,92,0.00,CLR,OVC,0.00,WeatherDisplay:10.37,2013-12-15 11:05:00,
2013-12-15 06:06:00,22.7,20.7,29.67,South,187,3.4,4.0,92,0.00,CLR,OVC,0.00,WeatherDisplay:10.37,2013-12-15 11:06:00,
2013-12-15 06:08:00,22.6,20.6,29.67,South,186,1.7,3.5,92,0.00,CLR,OVC,0.00,WeatherDisplay:10.37,2013-12-15 11:08:00,
2013-12-15 06:09:00,22.6,20.6,29.67,South,188,1.9,3.0,92,0.00,CLR,OVC,0.00,WeatherDisplay:10.37,2013-12-15 11:09:00,
2013-12-15 06:10:00,22.6,20.6,29.67,South,188,1.1,3.5,92,0.00,CLR,OVC,0.00,WeatherDisplay:10.37,2013-12-15 11:10:00,
2013-12-15 06:11:00,22.6,20.6,29.67,South,188,0.8,3.5,92,0.00,CLR,OVC,0.00,WeatherDisplay:10.37,2013-12-15 11:11:00,
2013-12-15 06:12:00,22.6,20.6,29.67,South,188,0.1,2.3,92,0.00,CLR,OVC,0.00,WeatherDisplay:10.37,2013-12-15 11:12:00,
2013-12-15 06:13:00,22.6,20.6,29.67,South,188,0.4,2.0,92,0.00,CLR,OVC,0.00,WeatherDisplay:10.37,2013-12-15 11:13:00,
2013-12-15 06:14:00,22.6,20.6,29.67,South,188,1.7,2.3,92,0.00,CLR,OVC,0.00,WeatherDisplay:10.37,2013-12-15 11:14:00,
2013-12-15 06:15:00,22.6,20.6,29.67,South,188,1.8,2.3,92,0.00,CLR,OVC,0.00,WeatherDisplay:10.37,2013-12-15 11:15:00,
2013-12-15 06:16:00,22.6,20.9,29.67,South,188,1.7,3.5,93,0.00,CLR,OVC,0.00,WeatherDisplay:10.37,2013-12-15 11:16:00,
2013-12-15 06:17:00,22.6,20.9,29.67,South,188,0.9,3.5,93,0.00,CLR,OVC,0.00,WeatherDisplay:10.37,2013-12-15 11:17:00,
2013-12-15 06:18:00,22.7,21.0,29.67,South,188,0.0,2.3,93,0.00,CLR,OVC,0.00,WeatherDisplay:10.37,2013-12-15 11:18:00,
2013-12-15 06:19:00,22.6,20.6,29.67,South,188,1.0,1.0,92,0.00,CLR,OVC,0.00,WeatherDisplay:10.37,2013-12-15 11:19:00,
2013-12-15 06:20:00,22.6,20.6,29.67,South,188,1.8,3.5,92,0.00,CLR,OVC,0.00,WeatherDisplay:10.37,2013-12-15 11:20:00,
2013-12-15 06:21:00,22.6,20.9,29.66,South,188,2.1,3.5,93,0.00,CLR,OVC,0.00,WeatherDisplay:10.37,2013-12-15 11:21:00,
2013-12-15 06:22:00,22.7,20.7,29.66,South,188,1.7,3.5,92,0.00,CLR,OVC,0.00,WeatherDisplay:10.37,2013-12-15 11:22:00,
2013-12-15 06:23:00,22.7,21.0,29.66,South,188,0.0,3.5,93,0.00,CLR,OVC,0.00,WeatherDisplay:10.37,2013-12-15 11:23:00,
2013-12-15 06:24:00,22.7,21.0,29.66,South,188,0.0,0.0,93,0.00,CLR,OVC,0.00,WeatherDisplay:10.37,2013-12-15 11:24:00,
2013-12-15 06:25:00,22.7,20.7,29.66,South,188,0.4,1.2,92,0.00,CLR,OVC,0.00,WeatherDisplay:10.37,2013-12-15 11:25:00,
2013-12-15 06:26:00,22.7,21.0,29.66,South,188,0.4,1.2,93,0.00,CLR,OVC,0.00,WeatherDisplay:10.37,2013-12-15 11:26:00,
2013-12-15 06:27:00,22.7,20.7,29.66,South,188,0.0,0.0,92,0.00,CLR,OVC,0.00,WeatherDisplay:10.37,2013-12-15 11:27:00,
2013-12-15 06:28:00,22.7,20.7,29.66,South,188,0.0,0.0,92,0.00,CLR,OVC,0.00,WeatherDisplay:10.37,2013-12-15 11:28:00,
2013-12-15 06:29:00,22.7,21.0,29.66,South,188,0.0,0.0,93,0.00,CLR,OVC,0.00,WeatherDisplay:10.37,2013-12-15 11:29:00,
2013-12-15 06:31:00,22.7,21.0,29.66,South,188,0.0,0.0,93,0.00,CLR,OVC,0.00,WeatherDisplay:10.37,2013-12-15 11:31:00,
2013-12-15 06:32:00,22.6,20.9,29.66,South,188,0.0,0.0,93,0.00,CLR,OVC,0.00,WeatherDisplay:10.37,2013-12-15 11:32:00,
2013-12-15 06:33:00,22.7,21.0,29.66,South,188,0.0,0.0,93,0.00,CLR,OVC,0.00,WeatherDisplay:10.37,2013-12-15 11:33:00,
2013-12-15 06:34:00,22.7,21.0,29.66,South,188,0.0,0.0,93,0.00,CLR,OVC,0.00,WeatherDisplay:10.37,2013-12-15 11:34:00,
2013-12-15 06:36:00,22.7,21.0,29.66,South,188,0.0,0.0,93,0.00,CLR,OVC,0.00,WeatherDisplay:10.37,2013-12-15 11:36:00,
2013-12-15 06:37:00,22.7,21.0,29.65,South,188,0.0,0.0,93,0.00,CLR,OVC,0.00,WeatherDisplay:10.37,2013-12-15 11:37:00,
2013-12-15 06:39:00,22.7,21.0,29.66,South,188,0.4,1.0,93,0.00,CLR,OVC,0.00,WeatherDisplay:10.37,2013-12-15 11:39:00,
2013-12-15 06:41:00,22.7,21.0,29.65,South,188,2.0,2.3,93,0.00,CLR,OVC,0.00,WeatherDisplay:10.37,2013-12-15 11:41:00,
2013-12-15 06:42:00,22.6,20.9,29.65,South,188,0.1,1.2,93,0.00,CLR,OVC,0.00,WeatherDisplay:10.37,2013-12-15 11:42:00,
2013-12-15 06:44:00,22.6,20.6,29.65,South,188,0.0,1.2,92,0.00,CLR,OVC,0.00,WeatherDisplay:10.37,2013-12-15 11:44:00,
2013-12-15 06:45:00,22.6,20.9,29.65,South,188,0.0,0.0,93,0.00,CLR,OVC,0.00,WeatherDisplay:10.37,2013-12-15 11:45:00,
2013-12-15 06:46:00,22.6,20.6,29.65,South,188,0.0,0.0,92,0.00,CLR,OVC,0.00,WeatherDisplay:10.37,2013-12-15 11:46:00,
2013-12-15 06:47:00,22.6,20.9,29.64,South,188,0.0,0.0,93,0.00,CLR,OVC,0.00,WeatherDisplay:10.37,2013-12-15 11:47:00,
2013-12-15 06:48:00,22.6,20.9,29.64,South,188,0.0,0.0,93,0.00,CLR,OVC,0.00,WeatherDisplay:10.37,2013-12-15 11:48:00,
2013-12-15 06:49:00,22.6,20.9,29.64,South,188,0.0,0.0,93,0.00,CLR,OVC,0.00,WeatherDisplay:10.37,2013-12-15 11:49:00,
2013-12-15 06:50:00,22.6,20.9,29.65,South,188,0.0,0.0,93,0.00,CLR,OVC,0.00,WeatherDisplay:10.37,2013-12-15 11:50:00,
2013-12-15 06:51:00,22.6,20.9,29.64,South,188,0.0,0.0,93,0.00,CLR,OVC,0.00,WeatherDisplay:10.37,2013-12-15 11:51:00,
2013-12-15 06:52:00,22.6,20.9,29.64,South,188,0.0,0.0,93,0.00,CLR,OVC,0.00,WeatherDisplay:10.37,2013-12-15 11:52:00,
2013-12-15 06:53:00,22.6,20.9,29.64,South,188,0.0,0.0,93,0.00,CLR,OVC,0.00,WeatherDisplay:10.37,2013-12-15 11:53:00,
2013-12-15 06:54:00,22.6,20.9,29.64,South,188,0.0,0.0,93,0.00,CLR,OVC,0.00,WeatherDisplay:10.37,2013-12-15 11:54:00,
2013-12-15 06:55:00,22.6,20.9,29.65,South,188,0.0,0.0,93,0.00,CLR,OVC,0.00,WeatherDisplay:10.37,2013-12-15 11:55:00,
2013-12-15 06:56:00,22.6,20.9,29.65,South,188,0.0,0.0,93,0.00,CLR,OVC,0.00,WeatherDisplay:10.37,2013-12-15 11:56:00,
2013-12-15 06:57:00,22.6,20.9,29.66,South,188,0.0,0.0,93,0.00,CLR,OVC,0.00,WeatherDisplay:10.37,2013-12-15 11:57:00,
2013-12-15 06:58:00,22.6,20.9,29.66,South,188,0.0,0.0,93,0.00,CLR,OVC,0.00,WeatherDisplay:10.37,2013-12-15 11:58:00,
2013-12-15 06:59:00,22.6,20.9,29.66,South,188,0.0,0.0,93,0.00,CLR,OVC,0.00,WeatherDisplay:10.37,2013-12-15 11:59:00,
2013-12-15 07:01:00,22.6,20.9,29.66,South,188,1.2,2.3,93,0.00,CLR,OVC,0.00,WeatherDisplay:10.37,2013-12-15 12:01:00,
2013-12-15 07:03:00,22.6,20.9,29.65,South,188,0.0,1.2,93,0.00,CLR,OVC,0.00,WeatherDisplay:10.37,2013-12-15 12:03:00,
2013-12-15 07:05:00,22.6,20.9,29.65,South,188,0.0,0.0,93,0.00,CLR,OVC,0.00,WeatherDisplay:10.37,2013-12-15 12:05:00,
2013-12-15 07:06:00,22.6,20.9,29.65,South,188,0.0,0.0,93,0.00,CLR,OVC,0.00,WeatherDisplay:10.37,2013-12-15 12:06:00,
2013-12-15 07:07:00,22.6,20.9,29.65,South,188,0.0,0.0,93,0.00,CLR,OVC,0.00,WeatherDisplay:10.37,2013-12-15 12:07:00,
2013-12-15 07:08:00,22.6,20.9,29.65,South,188,0.0,0.0,93,0.00,CLR,OVC,0.00,WeatherDisplay:10.37,2013-12-15 12:08:00,
2013-12-15 07:11:00,22.6,20.9,29.64,South,188,1.9,3.5,93,0.00,CLR,OVC,0.00,WeatherDisplay:10.37,2013-12-15 12:11:00,
2013-12-15 07:12:00,22.5,20.8,29.64,South,188,0.6,2.3,93,0.00,CLR,OVC,0.00,WeatherDisplay:10.37,2013-12-15 12:12:00,
2013-12-15 07:13:00,22.6,20.9,29.64,South,188,1.2,2.3,93,0.00,CLR,OVC,0.00,WeatherDisplay:10.37,2013-12-15 12:13:00,
2013-12-15 07:14:00,22.6,20.9,29.64,South,188,0.5,2.3,93,0.00,CLR,OVC,0.00,WeatherDisplay:10.37,2013-12-15 12:14:00,
2013-12-15 07:16:00,22.6,20.9,29.64,South,188,0.0,0.0,93,0.00,CLR,OVC,0.00,WeatherDisplay:10.37,2013-12-15 12:16:00,
2013-12-15 07:17:00,22.6,20.9,29.64,SE,130,2.2,4.0,93,0.00,CLR,OVC,0.00,WeatherDisplay:10.37,2013-12-15 12:17:00,
2013-12-15 07:18:00,22.6,20.9,29.64,SE,125,3.3,3.5,93,0.00,CLR,OVC,0.00,WeatherDisplay:10.37,2013-12-15 12:18:00,
2013-12-15 07:19:00,22.6,20.9,29.64,SE,125,2.2,3.5,93,0.00,CLR,OVC,0.00,WeatherDisplay:10.37,2013-12-15 12:19:00,
2013-12-15 07:21:00,22.6,20.9,29.64,ESE,121,3.0,4.0,93,0.00,CLR,OVC,0.00,WeatherDisplay:10.37,2013-12-15 12:21:00,
2013-12-15 07:22:00,22.6,20.9,29.64,ESE,116,3.8,4.0,93,0.00,CLR,OVC,0.00,WeatherDisplay:10.37,2013-12-15 12:22:00,
2013-12-15 07:24:00,22.6,20.9,29.64,ESE,114,3.5,4.0,93,0.00,CLR,OVC,0.00,WeatherDisplay:10.37,2013-12-15 12:24:00,
2013-12-15 07:25:00,22.6,20.9,29.64,ESE,112,3.3,4.6,93,0.00,CLR,OVC,0.00,WeatherDisplay:10.37,2013-12-15 12:25:00,
2013-12-15 07:26:00,22.6,20.9,29.64,East,101,4.3,4.6,93,0.00,CLR,OVC,0.00,WeatherDisplay:10.37,2013-12-15 12:26:00,
2013-12-15 07:27:00,22.6,20.9,29.64,East,96,4.5,6.0,93,0.00,CLR,OVC,0.00,WeatherDisplay:10.37,2013-12-15 12:27:00,
2013-12-15 07:28:00,22.5,20.8,29.64,East,84,5.0,5.0,93,0.00,CLR,OVC,0.00,WeatherDisplay:10.37,2013-12-15 12:28:00,
2013-12-15 07:29:00,22.5,20.8,29.63,ENE,72,4.8,5.8,93,0.00,CLR,OVC,0.00,WeatherDisplay:10.37,2013-12-15 12:29:00,
2013-12-15 07:30:00,22.5,20.8,29.64,ENE,72,4.2,5.8,93,0.00,CLR,OVC,0.00,WeatherDisplay:10.37,2013-12-15 12:30:00,
2013-12-15 07:31:00,22.5,20.8,29.64,ENE,72,2.9,4.6,93,0.00,CLR,OVC,0.00,WeatherDisplay:10.37,2013-12-15 12:31:00,
2013-12-15 07:32:00,22.5,20.8,29.64,ENE,72,2.4,3.5,93,0.00,CLR,OVC,0.00,WeatherDisplay:10.37,2013-12-15 12:32:00,
2013-12-15 07:34:00,22.5,20.8,29.63,ENE,72,1.1,2.3,93,0.00,CLR,OVC,0.00,WeatherDisplay:10.37,2013-12-15 12:34:00,
2013-12-15 07:35:00,22.5,20.8,29.63,ENE,71,3.5,5.0,93,0.00,CLR,OVC,0.00,WeatherDisplay:10.37,2013-12-15 12:35:00,
2013-12-15 07:36:00,22.5,20.8,29.63,ENE,69,4.7,6.0,93,0.00,CLR,OVC,0.00,WeatherDisplay:10.37,2013-12-15 12:36:00,
2013-12-15 07:37:00,22.5,20.8,29.63,NE,49,6.0,8.0,93,0.00,CLR,OVC,0.00,WeatherDisplay:10.37,2013-12-15 12:37:00,
2013-12-15 07:39:00,22.5,20.8,29.62,NE,39,6.8,8.1,93,0.00,CLR,OVC,0.00,WeatherDisplay:10.37,2013-12-15 12:39:00,
2013-12-15 07:40:00,22.5,20.8,29.62,NE,39,4.7,6.9,93,0.00,CLR,OVC,0.00,WeatherDisplay:10.37,2013-12-15 12:40:00,
2013-12-15 07:41:00,22.5,20.8,29.62,NE,39,4.2,5.8,93,0.00,CLR,OVC,0.00,WeatherDisplay:10.37,2013-12-15 12:41:00,
2013-12-15 07:42:00,22.6,21.1,29.62,NE,39,2.6,5.8,94,0.00,CLR,OVC,0.00,WeatherDisplay:10.37,2013-12-15 12:42:00,
2013-12-15 07:44:00,22.6,20.9,29.62,NE,39,3.1,5.0,93,0.00,CLR,OVC,0.00,WeatherDisplay:10.37,2013-12-15 12:44:00,
2013-12-15 07:45:00,22.6,20.9,29.62,NE,39,2.6,5.8,93,0.00,CLR,OVC,0.00,WeatherDisplay:10.37,2013-12-15 12:45:00,
2013-12-15 07:46:00,22.6,20.9,29.62,NE,39,2.5,3.5,93,0.00,CLR,OVC,0.00,WeatherDisplay:10.37,2013-12-15 12:46:00,
2013-12-15 07:48:00,22.6,20.9,29.62,NE,39,3.4,3.5,93,0.00,CLR,OVC,0.00,WeatherDisplay:10.37,2013-12-15 12:48:00,
2013-12-15 07:49:00,22.6,20.9,29.62,NE,39,3.0,6.0,93,0.00,CLR,OVC,0.00,WeatherDisplay:10.37,2013-12-15 12:49:00,
2013-12-15 07:51:00,22.7,21.2,29.62,NE,39,1.4,3.5,94,0.00,CLR,OVC,0.00,WeatherDisplay:10.37,2013-12-15 12:51:00,
2013-12-15 07:52:00,22.7,21.2,29.62,NE,39,2.9,4.0,94,0.00,CLR,OVC,0.00,WeatherDisplay:10.37,2013-12-15 12:52:00,
2013-12-15 07:53:00,22.7,21.0,29.63,NE,39,4.6,4.6,93,0.00,CLR,OVC,0.00,WeatherDisplay:10.37,2013-12-15 12:53:00,
2013-12-15 07:55:00,22.7,21.0,29.62,NE,39,3.0,4.6,93,0.00,CLR,OVC,0.00,WeatherDisplay:10.37,2013-12-15 12:55:00,
2013-12-15 07:56:00,22.7,21.0,29.62,NE,39,1.9,4.6,93,0.00,CLR,OVC,0.00,WeatherDisplay:10.37,2013-12-15 12:56:00,
2013-12-15 07:57:00,22.7,21.0,29.62,NE,39,2.5,3.5,93,0.00,CLR,OVC,0.00,WeatherDisplay:10.37,2013-12-15 12:57:00,
2013-12-15 07:58:00,22.8,21.3,29.62,NE,39,2.3,3.5,94,0.00,CLR,OVC,0.00,WeatherDisplay:10.37,2013-12-15 12:58:00,
2013-12-15 07:59:00,22.7,21.0,29.62,NE,38,1.8,3.5,93,0.00,CLR,OVC,0.00,WeatherDisplay:10.37,2013-12-15 12:59:00,
2013-12-15 08:00:00,22.7,21.0,29.62,NE,39,0.4,2.3,93,0.00,CLR,OVC,0.00,WeatherDisplay:10.37,2013-12-15 13:00:00,
2013-12-15 08:01:00,22.7,21.0,29.62,NE,39,0.6,2.3,93,0.00,CLR,OVC,0.00,WeatherDisplay:10.37,2013-12-15 13:01:00,
2013-12-15 08:02:00,22.7,21.0,29.61,NE,39,1.2,3.5,93,0.00,CLR,OVC,0.00,WeatherDisplay:10.37,2013-12-15 13:02:00,
2013-12-15 08:03:00,22.8,21.1,29.61,NE,39,0.7,2.3,93,0.00,CLR,OVC,0.00,WeatherDisplay:10.37,2013-12-15 13:03:00,
2013-12-15 08:04:00,22.8,21.1,29.61,NE,39,1.1,2.3,93,0.00,CLR,OVC,0.00,WeatherDisplay:10.37,2013-12-15 13:04:00,
2013-12-15 08:06:00,22.8,21.1,29.62,NE,38,1.6,3.5,93,0.00,CLR,OVC,0.00,WeatherDisplay:10.37,2013-12-15 13:06:00,
2013-12-15 08:09:00,22.8,21.1,29.62,NE,39,2.0,3.5,93,0.00,CLR,OVC,0.00,WeatherDisplay:10.37,2013-12-15 13:09:00,
2013-12-15 08:11:00,22.8,21.3,29.62,NE,39,1.7,3.5,94,0.00,CLR,OVC,0.00,WeatherDisplay:10.37,2013-12-15 13:11:00,
2013-12-15 08:14:00,22.9,21.4,29.62,NE,39,2.6,4.6,94,0.00,CLR,OVC,0.00,WeatherDisplay:10.37,2013-12-15 13:14:00,
2013-12-15 08:16:00,22.9,21.4,29.63,NE,38,3.1,4.0,94,0.00,CLR,OVC,0.00,WeatherDisplay:10.37,2013-12-15 13:16:00,
2013-12-15 08:19:00,22.9,21.4,29.62,NE,39,2.6,3.5,94,0.00,CLR,OVC,0.00,WeatherDisplay:10.37,2013-12-15 13:19:00,
2013-12-15 08:20:00,22.9,21.2,29.62,NE,39,3.3,4.0,93,0.00,CLR,OVC,0.00,WeatherDisplay:10.37,2013-12-15 13:20:00,
2013-12-15 08:21:00,22.9,21.2,29.62,NE,39,3.8,4.0,93,0.00,CLR,OVC,0.00,WeatherDisplay:10.37,2013-12-15 13:21:00,
2013-12-15 08:22:00,22.9,21.4,29.62,NE,38,4.2,5.8,94,0.00,CLR,OVC,0.00,WeatherDisplay:10.37,2013-12-15 13:22:00,
2013-12-15 08:25:00,22.9,21.2,29.62,NE,38,4.0,4.6,93,0.00,CLR,OVC,0.00,WeatherDisplay:10.37,2013-12-15 13:25:00,
2013-12-15 08:26:00,22.9,21.2,29.62,NE,38,3.3,5.0,93,0.00,CLR,OVC,0.00,WeatherDisplay:10.37,2013-12-15 13:26:00,
2013-12-15 08:27:00,22.9,21.2,29.62,NE,38,4.0,4.6,93,0.00,CLR,OVC,0.00,WeatherDisplay:10.37,2013-12-15 13:27:00,
2013-12-15 08:28:00,22.8,21.1,29.62,NE,38,3.4,5.8,93,0.00,CLR,OVC,0.00,WeatherDisplay:10.37,2013-12-15 13:28:00,
2013-12-15 08:30:00,22.9,21.2,29.62,NE,38,3.1,4.0,93,0.00,CLR,OVC,0.00,WeatherDisplay:10.37,2013-12-15 13:30:00,
2013-12-15 08:31:00,22.9,21.4,29.62,NE,38,2.0,3.5,94,0.00,CLR,OVC,0.00,WeatherDisplay:10.37,2013-12-15 13:31:00,
2013-12-15 08:32:00,22.9,21.4,29.62,NE,38,2.2,3.5,94,0.00,CLR,OVC,0.00,WeatherDisplay:10.37,2013-12-15 13:32:00,
2013-12-15 08:33:00,22.9,21.2,29.61,NE,38,2.7,3.5,93,0.00,CLR,OVC,0.00,WeatherDisplay:10.37,2013-12-15 13:33:00,
2013-12-15 08:35:00,22.9,21.4,29.61,NE,38,3.0,4.6,94,0.00,CLR,OVC,0.00,WeatherDisplay:10.37,2013-12-15 13:35:00,
2013-12-15 08:36:00,22.9,21.2,29.61,NE,38,2.7,3.5,93,0.00,CLR,OVC,0.00,WeatherDisplay:10.37,2013-12-15 13:36:00,
2013-12-15 08:37:00,23.0,21.3,29.61,NE,38,2.5,3.5,93,0.00,CLR,OVC,0.00,WeatherDisplay:10.37,2013-12-15 13:37:00,
2013-12-15 08:38:00,23.0,21.3,29.61,NE,38,0.7,3.5,93,0.00,CLR,OVC,0.00,WeatherDisplay:10.37,2013-12-15 13:38:00,
2013-12-15 08:40:00,23.0,21.5,29.61,NE,38,2.8,4.0,94,0.00,CLR,OVC,0.00,WeatherDisplay:10.37,2013-12-15 13:40:00,
2013-12-15 08:41:00,23.0,21.5,29.61,NE,38,2.3,3.5,94,0.00,CLR,OVC,0.00,WeatherDisplay:10.37,2013-12-15 13:41:00,
2013-12-15 08:42:00,23.1,21.4,29.61,NE,38,1.8,3.5,93,0.00,CLR,OVC,0.00,WeatherDisplay:10.37,2013-12-15 13:42:00,
2013-12-15 08:43:00,23.1,21.6,29.61,NE,38,3.1,4.6,94,0.00,CLR,OVC,0.00,WeatherDisplay:10.37,2013-12-15 13:43:00,
2013-12-15 08:45:00,23.2,21.5,29.61,NE,38,2.2,3.5,93,0.00,CLR,OVC,0.00,WeatherDisplay:10.37,2013-12-15 13:45:00,
2013-12-15 08:46:00,23.2,21.7,29.61,NE,38,2.1,3.5,94,0.00,CLR,OVC,0.00,WeatherDisplay:10.37,2013-12-15 13:46:00,
2013-12-15 08:47:00,23.2,21.7,29.61,NE,38,2.3,3.5,94,0.00,CLR,OVC,0.00,WeatherDisplay:10.37,2013-12-15 13:47:00,
2013-12-15 08:48:00,23.2,21.7,29.61,NE,38,1.6,3.5,94,0.00,CLR,OVC,0.00,WeatherDisplay:10.37,2013-12-15 13:48:00,
2013-12-15 08:49:00,23.3,21.8,29.61,NE,38,1.6,3.5,94,0.00,CLR,OVC,0.00,WeatherDisplay:10.37,2013-12-15 13:49:00,
2013-12-15 08:51:00,23.3,21.8,29.61,NE,38,2.8,4.6,94,0.00,CLR,OVC,0.00,WeatherDisplay:10.37,2013-12-15 13:51:00,
2013-12-15 08:52:00,23.3,21.8,29.61,NE,38,3.4,6.0,94,0.00,CLR,OVC,0.00,WeatherDisplay:10.37,2013-12-15 13:52:00,
2013-12-15 08:53:00,23.3,21.6,29.61,NE,38,5.0,7.0,93,0.00,CLR,OVC,0.00,WeatherDisplay:10.37,2013-12-15 13:53:00,
2013-12-15 08:54:00,23.4,21.7,29.61,NE,38,4.9,6.9,93,0.00,CLR,OVC,0.00,WeatherDisplay:10.37,2013-12-15 13:54:00,
2013-12-15 08:55:00,23.4,21.9,29.61,NE,38,4.0,6.9,94,0.00,CLR,OVC,0.00,WeatherDisplay:10.37,2013-12-15 13:55:00,
2013-12-15 08:56:00,23.4,21.9,29.61,NE,38,3.3,6.9,94,0.00,CLR,OVC,0.00,WeatherDisplay:10.37,2013-12-15 13:56:00,
2013-12-15 08:57:00,23.5,22.0,29.61,NE,38,3.4,5.8,94,0.00,CLR,OVC,0.00,WeatherDisplay:10.37,2013-12-15 13:57:00,
2013-12-15 08:58:00,23.5,22.0,29.61,NE,38,3.7,5.0,94,0.00,CLR,OVC,0.00,WeatherDisplay:10.37,2013-12-15 13:58:00,
2013-12-15 08:59:00,23.5,22.0,29.61,NE,36,4.4,5.0,94,0.00,CLR,OVC,0.00,WeatherDisplay:10.37,2013-12-15 13:59:00,
2013-12-15 09:00:00,23.5,22.0,29.61,NE,35,4.3,5.8,94,0.00,CLR,OVC,0.00,WeatherDisplay:10.37,2013-12-15 14:00:00,
2013-12-15 09:01:00,23.5,22.0,29.61,NE,35,3.8,5.8,94,0.00,CLR,OVC,0.00,WeatherDisplay:10.37,2013-12-15 14:01:00,
2013-12-15 09:03:00,23.5,22.0,29.61,NE,35,1.2,3.5,94,0.00,CLR,OVC,0.00,WeatherDisplay:10.37,2013-12-15 14:03:00,
2013-12-15 09:04:00,23.5,22.0,29.61,NE,35,2.6,3.5,94,0.00,CLR,OVC,0.00,WeatherDisplay:10.37,2013-12-15 14:04:00,
2013-12-15 09:06:00,23.6,22.1,29.62,NE,35,1.1,3.5,94,0.00,CLR,OVC,0.00,WeatherDisplay:10.37,2013-12-15 14:06:00,
2013-12-15 09:08:00,23.6,22.1,29.62,NE,35,3.3,4.0,94,0.00,CLR,OVC,0.00,WeatherDisplay:10.37,2013-12-15 14:08:00,
2013-12-15 09:09:00,23.6,22.1,29.61,NE,35,3.9,4.6,94,0.00,CLR,OVC,0.00,WeatherDisplay:10.37,2013-12-15 14:09:00,
2013-12-15 09:10:00,23.6,22.1,29.61,NE,35,2.8,4.6,94,0.00,CLR,OVC,0.00,WeatherDisplay:10.37,2013-12-15 14:10:00,
2013-12-15 09:11:00,23.7,22.2,29.61,NE,35,4.9,5.8,94,0.00,CLR,OVC,0.00,WeatherDisplay:10.37,2013-12-15 14:11:00,
2013-12-15 09:12:00,23.7,22.2,29.61,NE,34,4.7,5.8,94,0.00,CLR,OVC,0.00,WeatherDisplay:10.37,2013-12-15 14:12:00,
2013-12-15 09:13:00,23.7,22.2,29.61,NE,34,3.3,5.8,94,0.00,CLR,OVC,0.00,WeatherDisplay:10.37,2013-12-15 14:13:00,
2013-12-15 09:14:00,23.7,22.2,29.61,NE,34,2.3,3.5,94,0.00,CLR,OVC,0.00,WeatherDisplay:10.37,2013-12-15 14:14:00,
2013-12-15 09:15:00,23.7,22.2,29.61,NE,35,2.6,3.5,94,0.00,CLR,OVC,0.00,WeatherDisplay:10.37,2013-12-15 14:15:00,
2013-12-15 09:16:00,23.7,22.2,29.61,NE,34,2.0,3.5,94,0.00,CLR,OVC,0.00,WeatherDisplay:10.37,2013-12-15 14:16:00,
2013-12-15 09:18:00,23.7,22.2,29.61,NE,34,4.5,8.0,94,0.00,CLR,OVC,0.00,WeatherDisplay:10.37,2013-12-15 14:18:00,
2013-12-15 09:19:00,23.7,22.2,29.61,NE,34,5.2,8.1,94,0.00,CLR,OVC,0.00,WeatherDisplay:10.37,2013-12-15 14:19:00,
2013-12-15 09:20:00,23.8,22.3,29.60,NE,34,4.9,6.0,94,0.00,CLR,OVC,0.00,WeatherDisplay:10.37,2013-12-15 14:20:00,
2013-12-15 09:21:00,23.7,22.2,29.60,NE,35,4.8,5.8,94,0.00,CLR,OVC,0.00,WeatherDisplay:10.37,2013-12-15 14:21:00,
2013-12-15 09:23:00,23.8,22.3,29.61,NE,34,4.7,6.0,94,0.00,CLR,OVC,0.00,WeatherDisplay:10.37,2013-12-15 14:23:00,
2013-12-15 09:24:00,23.8,22.3,29.60,NE,34,5.2,6.9,94,0.00,CLR,OVC,0.00,WeatherDisplay:10.37,2013-12-15 14:24:00,
2013-12-15 09:26:00,23.8,22.3,29.60,NNE,32,5.3,6.9,94,0.00,CLR,OVC,0.00,WeatherDisplay:10.37,2013-12-15 14:26:00,
2013-12-15 09:27:00,23.9,22.4,29.60,NNE,32,5.9,8.1,94,0.00,CLR,OVC,0.00,WeatherDisplay:10.37,2013-12-15 14:27:00,
2013-12-15 09:28:00,23.9,22.4,29.60,NNE,32,6.3,8.1,94,0.00,CLR,OVC,0.00,WeatherDisplay:10.37,2013-12-15 14:28:00,
2013-12-15 09:29:00,23.9,22.4,29.60,NE,35,6.0,6.9,94,0.00,CLR,OVC,0.00,WeatherDisplay:10.37,2013-12-15 14:29:00,
2013-12-15 09:31:00,23.9,22.4,29.60,NE,34,7.9,11.5,94,0.00,CLR,OVC,0.00,WeatherDisplay:10.37,2013-12-15 14:31:00,
2013-12-15 09:32:00,23.9,22.4,29.60,NE,35,8.1,11.5,94,0.00,CLR,OVC,0.00,WeatherDisplay:10.37,2013-12-15 14:32:00,
2013-12-15 09:33:00,23.9,22.4,29.60,NE,35,6.9,11.5,94,0.00,CLR,OVC,0.00,WeatherDisplay:10.37,2013-12-15 14:33:00,
2013-12-15 09:34:00,23.9,22.4,29.60,NE,35,6.2,10.4,94,0.00,CLR,OVC,0.00,WeatherDisplay:10.37,2013-12-15 14:34:00,
2013-12-15 09:35:00,23.9,22.4,29.60,NE,34,6.0,8.1,94,0.00,CLR,OVC,0.00,WeatherDisplay:10.37,2013-12-15 14:35:00,
2013-12-15 09:36:00,23.9,22.4,29.60,NNE,25,6.1,11.5,94,0.00,CLR,OVC,0.00,WeatherDisplay:10.37,2013-12-15 14:36:00,
2013-12-15 09:37:00,23.9,22.4,29.60,NNE,24,5.3,7.0,94,0.00,CLR,OVC,0.00,WeatherDisplay:10.37,2013-12-15 14:37:00,
2013-12-15 09:38:00,23.9,22.4,29.60,NE,39,6.7,6.9,94,0.00,CLR,OVC,0.00,WeatherDisplay:10.37,2013-12-15 14:38:00,
2013-12-15 09:39:00,24.0,22.5,29.60,NNE,33,6.8,9.2,94,0.00,CLR,OVC,0.00,WeatherDisplay:10.37,2013-12-15 14:39:00,
2013-12-15 09:40:00,24.0,22.5,29.60,NE,46,6.8,8.1,94,0.00,CLR,OVC,0.00,WeatherDisplay:10.37,2013-12-15 14:40:00,
2013-12-15 09:42:00,24.0,22.5,29.60,NE,39,7.0,8.1,94,0.00,CLR,OVC,0.00,WeatherDisplay:10.37,2013-12-15 14:42:00,
2013-12-15 09:43:00,24.0,22.5,29.60,NE,34,7.6,11.5,94,0.00,CLR,OVC,0.00,WeatherDisplay:10.37,2013-12-15 14:43:00,
2013-12-15 09:44:00,24.0,22.5,29.60,NE,34,7.3,11.5,94,0.00,CLR,OVC,0.00,WeatherDisplay:10.37,2013-12-15 14:44:00,
2013-12-15 09:45:00,24.1,22.6,29.60,NNE,24,6.1,8.1,94,0.00,CLR,OVC,0.00,WeatherDisplay:10.37,2013-12-15 14:45:00,
2013-12-15 09:47:00,24.1,22.6,29.60,NE,48,8.9,11.0,94,0.00,CLR,OVC,0.00,WeatherDisplay:10.37,2013-12-15 14:47:00,
2013-12-15 09:48:00,24.1,22.6,29.60,NE,38,7.5,11.5,94,0.00,CLR,OVC,0.00,WeatherDisplay:10.37,2013-12-15 14:48:00,
2013-12-15 09:49:00,24.1,22.6,29.60,NNE,29,6.0,11.5,94,0.00,CLR,OVC,0.00,WeatherDisplay:10.37,2013-12-15 14:49:00,
2013-12-15 09:51:00,24.2,22.7,29.60,NNE,29,5.4,8.1,94,0.00,CLR,OVC,0.00,WeatherDisplay:10.37,2013-12-15 14:51:00,
2013-12-15 09:53:00,24.2,22.7,29.60,NE,40,7.3,9.2,94,0.00,CLR,OVC,0.00,WeatherDisplay:10.37,2013-12-15 14:53:00,
2013-12-15 09:54:00,24.2,22.7,29.60,NNE,32,5.8,11.5,94,0.00,CLR,OVC,0.00,WeatherDisplay:10.37,2013-12-15 14:54:00,
2013-12-15 09:55:00,24.2,22.7,29.60,NNE,33,4.5,8.1,94,0.00,CLR,OVC,0.00,WeatherDisplay:10.37,2013-12-15 14:55:00,
2013-12-15 09:56:00,24.3,22.8,29.61,NE,34,6.2,6.9,94,0.00,CLR,OVC,0.00,WeatherDisplay:10.37,2013-12-15 14:56:00,
2013-12-15 09:58:00,24.3,22.8,29.60,NNE,30,6.4,8.1,94,0.00,CLR,OVC,0.00,WeatherDisplay:10.37,2013-12-15 14:58:00,
2013-12-15 10:00:00,24.3,22.8,29.60,NNE,24,4.1,6.9,94,0.00,CLR,OVC,0.00,WeatherDisplay:10.37,2013-12-15 15:00:00,
2013-12-15 10:02:00,24.3,22.8,29.60,NNE,22,4.7,6.9,94,0.00,CLR,OVC,0.00,WeatherDisplay:10.37,2013-12-15 15:02:00,
2013-12-15 10:03:00,24.3,22.8,29.61,NNE,14,4.7,7.0,94,0.00,CLR,OVC,0.00,WeatherDisplay:10.37,2013-12-15 15:03:00,
2013-12-15 10:05:00,24.4,22.9,29.61,NNE,14,5.7,6.9,94,0.00,CLR,OVC,0.00,WeatherDisplay:10.37,2013-12-15 15:05:00,
2013-12-15 10:07:00,24.4,22.9,29.61,NNE,24,6.9,9.2,94,0.00,CLR,OVC,0.00,WeatherDisplay:10.37,2013-12-15 15:07:00,
2013-12-15 10:08:00,24.4,22.9,29.61,NNE,30,7.6,11.5,94,0.00,CLR,OVC,0.00,WeatherDisplay:10.37,2013-12-15 15:08:00,
2013-12-15 10:09:00,24.4,22.9,29.60,NNE,29,8.5,11.5,94,0.00,CLR,OVC,0.00,WeatherDisplay:10.37,2013-12-15 15:09:00,
2013-12-15 10:10:00,24.4,22.9,29.60,NNE,27,7.3,9.2,94,0.00,CLR,OVC,0.00,WeatherDisplay:10.37,2013-12-15 15:10:00,
2013-12-15 10:12:00,24.4,22.9,29.61,North,2,6.1,8.1,94,0.00,CLR,OVC,0.00,WeatherDisplay:10.37,2013-12-15 15:12:00,
2013-12-15 10:13:00,24.4,22.9,29.60,North,11,6.6,8.1,94,0.00,CLR,OVC,0.00,WeatherDisplay:10.37,2013-12-15 15:13:00,
2013-12-15 10:14:00,24.4,22.9,29.60,NNE,12,6.1,8.1,94,0.00,CLR,OVC,0.00,WeatherDisplay:10.37,2013-12-15 15:14:00,
2013-12-15 10:15:00,24.4,22.9,29.60,North,2,6.6,9.2,94,0.00,CLR,OVC,0.00,WeatherDisplay:10.37,2013-12-15 15:15:00,
2013-12-15 10:16:00,24.4,22.9,29.60,North,10,6.1,9.2,94,0.00,CLR,OVC,0.00,WeatherDisplay:10.37,2013-12-15 15:16:00,
2013-12-15 10:17:00,24.4,22.9,29.60,NNE,23,6.7,9.2,94,0.00,CLR,OVC,0.00,WeatherDisplay:10.37,2013-12-15 15:17:00,
2013-12-15 10:18:00,24.4,22.9,29.60,NNE,22,7.6,9.2,94,0.00,CLR,OVC,0.00,WeatherDisplay:10.37,2013-12-15 15:18:00,
2013-12-15 10:19:00,24.4,22.9,29.60,NNE,16,8.0,9.0,94,0.00,CLR,OVC,0.00,WeatherDisplay:10.37,2013-12-15 15:19:00,
2013-12-15 10:22:00,24.3,22.8,29.60,NNE,19,6.8,9.2,94,0.00,CLR,OVC,0.00,WeatherDisplay:10.37,2013-12-15 15:22:00,
2013-12-15 10:23:00,24.4,22.9,29.60,NNE,16,6.3,8.1,94,0.00,CLR,OVC,0.00,WeatherDisplay:10.37,2013-12-15 15:23:00,
2013-12-15 10:24:00,24.4,22.9,29.60,NNE,17,7.0,12.0,94,0.00,CLR,OVC,0.00,WeatherDisplay:10.37,2013-12-15 15:24:00,
2013-12-15 10:25:00,24.4,22.9,29.60,NE,35,8.6,11.5,94,0.00,CLR,OVC,0.00,WeatherDisplay:10.37,2013-12-15 15:25:00,
2013-12-15 10:27:00,24.3,22.8,29.61,NNE,26,8.3,11.5,94,0.00,CLR,OVC,0.00,WeatherDisplay:10.37,2013-12-15 15:27:00,
2013-12-15 10:28:00,24.3,22.8,29.60,North,3,7.7,10.4,94,0.00,CLR,OVC,0.00,WeatherDisplay:10.37,2013-12-15 15:28:00,
2013-12-15 10:29:00,24.3,22.8,29.60,NNE,12,7.2,9.2,94,0.00,CLR,OVC,0.00,WeatherDisplay:10.37,2013-12-15 15:29:00,
2013-12-15 10:30:00,24.3,22.8,29.60,North,8,7.7,9.2,94,0.00,CLR,OVC,0.00,WeatherDisplay:10.37,2013-12-15 15:30:00,
2013-12-15 10:31:00,24.3,22.8,29.60,NNE,25,7.7,10.4,94,0.00,CLR,OVC,0.00,WeatherDisplay:10.37,2013-12-15 15:31:00,
2013-12-15 10:32:00,24.3,22.8,29.60,NNE,22,7.5,10.4,94,0.00,CLR,OVC,0.00,WeatherDisplay:10.37,2013-12-15 15:32:00,
2013-12-15 10:33:00,24.3,22.8,29.59,NE,39,9.5,13.0,94,0.00,CLR,OVC,0.00,WeatherDisplay:10.37,2013-12-15 15:33:00,
2013-12-15 10:34:00,24.3,22.8,29.59,North,9,9.5,11.5,94,0.00,CLR,OVC,0.00,WeatherDisplay:10.37,2013-12-15 15:34:00,
2013-12-15 10:35:00,24.3,22.8,29.59,NNE,12,7.4,12.7,94,0.00,CLR,OVC,0.00,WeatherDisplay:10.37,2013-12-15 15:35:00,
2013-12-15 10:37:00,24.3,22.8,29.59,North,11,6.2,9.2,94,0.00,CLR,OVC,0.00,WeatherDisplay:10.37,2013-12-15 15:37:00,
2013-12-15 10:38:00,24.2,22.7,29.59,NNE,21,7.6,10.4,94,0.00,CLR,OVC,0.00,WeatherDisplay:10.37,2013-12-15 15:38:00,
2013-12-15 10:39:00,24.2,22.7,29.59,NNE,20,8.1,10.4,94,0.00,CLR,OVC,0.00,WeatherDisplay:10.37,2013-12-15 15:39:00,
2013-12-15 10:40:00,24.2,22.7,29.59,NNE,16,10.5,13.8,94,0.00,CLR,OVC,0.00,WeatherDisplay:10.37,2013-12-15 15:40:00,
2013-12-15 10:42:00,24.2,22.5,29.59,NNE,16,10.5,15.0,93,0.00,CLR,OVC,0.00,WeatherDisplay:10.37,2013-12-15 15:42:00,
2013-12-15 10:44:00,24.1,22.6,29.59,NNE,16,7.8,12.7,94,0.00,CLR,OVC,0.00,WeatherDisplay:10.37,2013-12-15 15:44:00,
2013-12-15 10:45:00,24.1,22.6,29.58,NNE,15,8.6,12.7,94,0.00,CLR,OVC,0.00,WeatherDisplay:10.37,2013-12-15 15:45:00,
2013-12-15 10:47:00,24.1,22.6,29.58,NNE,19,8.3,11.5,94,0.00,CLR,OVC,0.00,WeatherDisplay:10.37,2013-12-15 15:47:00,
2013-12-15 10:48:00,24.1,22.6,29.58,North,11,7.0,11.5,94,0.00,CLR,OVC,0.00,WeatherDisplay:10.37,2013-12-15 15:48:00,
2013-12-15 10:49:00,24.1,22.6,29.58,NE,47,6.7,11.0,94,0.00,CLR,OVC,0.00,WeatherDisplay:10.37,2013-12-15 15:49:00,
2013-12-15 10:50:00,24.1,22.4,29.58,NNE,19,8.7,11.5,93,0.00,CLR,OVC,0.00,WeatherDisplay:10.37,2013-12-15 15:50:00,
2013-12-15 10:52:00,24.1,22.6,29.57,NNE,28,10.0,11.5,94,0.00,CLR,OVC,0.00,WeatherDisplay:10.37,2013-12-15 15:52:00,
2013-12-15 10:53:00,24.1,22.6,29.57,NNE,19,9.7,11.5,94,0.00,CLR,OVC,0.00,WeatherDisplay:10.37,2013-12-15 15:53:00,
2013-12-15 10:54:00,24.0,22.3,29.57,North,11,8.0,11.5,93,0.00,CLR,OVC,0.00,WeatherDisplay:10.37,2013-12-15 15:54:00,
2013-12-15 10:55:00,24.0,22.5,29.57,NNE,17,6.7,11.5,94,0.00,CLR,OVC,0.00,WeatherDisplay:10.37,2013-12-15 15:55:00,
2013-12-15 10:58:00,24.1,22.6,29.57,NNE,22,9.6,13.8,94,0.00,CLR,OVC,0.00,WeatherDisplay:10.37,2013-12-15 15:58:00,
2013-12-15 10:59:00,24.1,22.6,29.57,NNE,14,8.2,11.5,94,0.00,CLR,OVC,0.00,WeatherDisplay:10.37,2013-12-15 15:59:00,
2013-12-15 11:00:00,24.1,22.6,29.57,NNE,12,7.6,11.5,94,0.00,CLR,OVC,0.00,WeatherDisplay:10.37,2013-12-15 16:00:00,
2013-12-15 11:01:00,24.1,22.6,29.57,NNE,25,6.9,9.2,94,0.00,CLR,OVC,0.00,WeatherDisplay:10.37,2013-12-15 16:01:00,
2013-12-15 11:03:00,24.1,22.6,29.56,North,10,6.3,10.4,94,0.00,CLR,OVC,0.00,WeatherDisplay:10.37,2013-12-15 16:03:00,
2013-12-15 11:04:00,24.2,22.7,29.56,NNE,33,9.1,11.5,94,0.00,CLR,OVC,0.00,WeatherDisplay:10.37,2013-12-15 16:04:00,
2013-12-15 11:05:00,24.2,22.7,29.56,NNE,15,8.8,11.5,94,0.00,CLR,OVC,0.00,WeatherDisplay:10.37,2013-12-15 16:05:00,
2013-12-15 11:06:00,24.2,22.5,29.56,NNE,26,7.6,11.5,93,0.00,CLR,OVC,0.00,WeatherDisplay:10.37,2013-12-15 16:06:00,
2013-12-15 11:08:00,24.2,22.7,29.56,North,0,5.8,6.9,94,0.00,CLR,OVC,0.00,WeatherDisplay:10.37,2013-12-15 16:08:00,
2013-12-15 11:09:00,24.3,22.8,29.56,North,0,5.0,6.9,94,0.00,CLR,OVC,0.00,WeatherDisplay:10.37,2013-12-15 16:09:00,
2013-12-15 11:10:00,24.3,22.8,29.56,North,0,4.1,8.1,94,0.00,CLR,OVC,0.00,WeatherDisplay:10.37,2013-12-15 16:10:00,
2013-12-15 11:11:00,24.3,22.8,29.56,North,0,5.1,8.1,94,0.00,CLR,OVC,0.00,WeatherDisplay:10.37,2013-12-15 16:11:00,
2013-12-15 11:13:00,24.4,22.7,29.55,North,11,4.6,6.9,93,0.00,CLR,OVC,0.00,WeatherDisplay:10.37,2013-12-15 16:13:00,
2013-12-15 11:14:00,24.4,22.9,29.55,NNE,17,4.7,6.9,94,0.00,CLR,OVC,0.00,WeatherDisplay:10.37,2013-12-15 16:14:00,
2013-12-15 11:15:00,24.4,22.9,29.55,NNE,15,5.3,6.9,94,0.00,CLR,OVC,0.00,WeatherDisplay:10.37,2013-12-15 16:15:00,
2013-12-15 11:16:00,24.4,22.9,29.55,NNE,14,6.0,8.0,94,0.00,CLR,OVC,0.00,WeatherDisplay:10.37,2013-12-15 16:16:00,
2013-12-15 11:19:00,24.5,22.8,29.55,North,9,6.5,10.4,93,0.00,CLR,OVC,0.00,WeatherDisplay:10.37,2013-12-15 16:19:00,
2013-12-15 11:20:00,24.5,23.0,29.55,North,7,5.7,8.1,94,0.00,CLR,OVC,0.00,WeatherDisplay:10.37,2013-12-15 16:20:00,
2013-12-15 11:21:00,24.5,23.0,29.55,North,0,5.2,8.1,94,0.00,CLR,OVC,0.00,WeatherDisplay:10.37,2013-12-15 16:21:00,
2013-12-15 11:24:00,24.5,22.8,29.55,NNE,13,3.6,5.0,93,0.00,CLR,OVC,0.00,WeatherDisplay:10.37,2013-12-15 16:24:00,
2013-12-15 11:25:00,24.6,23.1,29.55,North,8,5.1,6.9,94,0.00,CLR,OVC,0.00,WeatherDisplay:10.37,2013-12-15 16:25:00,
2013-12-15 11:26:00,24.6,23.1,29.55,North,1,5.0,6.9,94,0.00,CLR,OVC,0.00,WeatherDisplay:10.37,2013-12-15 16:26:00,
2013-12-15 11:27:00,24.6,23.1,29.55,NNE,18,5.3,6.9,94,0.00,CLR,OVC,0.00,WeatherDisplay:10.37,2013-12-15 16:27:00,
2013-12-15 11:29:00,24.6,22.9,29.54,NNE,33,6.1,9.2,93,0.00,CLR,OVC,0.00,WeatherDisplay:10.37,2013-12-15 16:29:00,
2013-12-15 11:30:00,24.7,23.2,29.54,NNE,20,5.0,9.2,94,0.00,CLR,OVC,0.00,WeatherDisplay:10.37,2013-12-15 16:30:00,
2013-12-15 11:31:00,24.7,23.2,29.54,NE,34,4.0,9.2,94,0.00,CLR,OVC,0.00,WeatherDisplay:10.37,2013-12-15 16:31:00,
2013-12-15 11:32:00,24.7,23.2,29.54,NNE,24,5.6,8.1,94,0.00,CLR,OVC,0.00,WeatherDisplay:10.37,2013-12-15 16:32:00,
2013-12-15 11:34:00,24.8,23.1,29.54,North,6,5.4,6.9,93,0.00,CLR,OVC,0.00,WeatherDisplay:10.37,2013-12-15 16:34:00,
2013-12-15 11:35:00,24.8,23.1,29.54,North,7,6.0,7.0,93,0.00,CLR,OVC,0.00,WeatherDisplay:10.37,2013-12-15 16:35:00,
2013-12-15 11:36:00,24.9,23.4,29.54,North,359,5.4,8.1,94,0.00,CLR,OVC,0.00,WeatherDisplay:10.37,2013-12-15 16:36:00,
2013-12-15 11:38:00,24.9,23.2,29.54,North,0,5.4,7.0,93,0.00,CLR,OVC,0.00,WeatherDisplay:10.37,2013-12-15 16:38:00,
2013-12-15 11:40:00,25.0,23.5,29.54,North,7,6.2,9.2,94,0.00,CLR,OVC,0.00,WeatherDisplay:10.37,2013-12-15 16:40:00,
2013-12-15 11:41:00,25.0,23.3,29.54,NNE,15,4.9,9.2,93,0.00,CLR,OVC,0.00,WeatherDisplay:10.37,2013-12-15 16:41:00,
2013-12-15 11:43:00,25.0,23.3,29.54,North,7,6.9,9.2,93,0.00,CLR,OVC,0.00,WeatherDisplay:10.37,2013-12-15 16:43:00,
2013-12-15 11:45:00,25.0,23.3,29.53,North,10,6.4,9.2,93,0.00,CLR,OVC,0.00,WeatherDisplay:10.37,2013-12-15 16:45:00,
2013-12-15 11:46:00,25.1,23.4,29.54,NNE,14,6.7,8.1,93,0.00,CLR,OVC,0.00,WeatherDisplay:10.37,2013-12-15 16:46:00,
2013-12-15 11:47:00,25.0,23.3,29.54,NNE,18,7.7,8.1,93,0.00,CLR,OVC,0.00,WeatherDisplay:10.37,2013-12-15 16:47:00,
2013-12-15 11:48:00,25.0,23.3,29.54,North,7,5.6,10.4,93,0.00,CLR,OVC,0.00,WeatherDisplay:10.37,2013-12-15 16:48:00,
2013-12-15 11:50:00,25.1,23.4,29.54,North,0,6.8,10.4,93,0.00,CLR,OVC,0.00,WeatherDisplay:10.37,2013-12-15 16:50:00,
2013-12-15 11:51:00,25.1,23.4,29.54,North,0,7.1,10.4,93,0.00,CLR,OVC,0.00,WeatherDisplay:10.37,2013-12-15 16:51:00,
2013-12-15 11:52:00,25.1,23.4,29.54,North,0,9.0,11.5,93,0.00,CLR,OVC,0.00,WeatherDisplay:10.37,2013-12-15 16:52:00,
2013-12-15 11:53:00,25.1,23.4,29.54,North,0,7.0,11.5,93,0.00,CLR,OVC,0.00,WeatherDisplay:10.37,2013-12-15 16:53:00,
2013-12-15 11:56:00,25.1,23.4,29.53,North,6,7.1,11.5,93,0.00,CLR,OVC,0.00,WeatherDisplay:10.37,2013-12-15 16:56:00,
2013-12-15 11:57:00,25.1,23.4,29.54,North,2,8.4,11.5,93,0.00,CLR,OVC,0.00,WeatherDisplay:10.37,2013-12-15 16:57:00,
2013-12-15 11:59:00,25.1,23.4,29.54,North,359,5.9,6.9,93,0.00,CLR,OVC,0.00,WeatherDisplay:10.37,2013-12-15 16:59:00,
2013-12-15 12:01:00,25.2,23.5,29.54,North,3,6.1,7.0,93,0.00,CLR,OVC,0.00,WeatherDisplay:10.37,2013-12-15 17:01:00,
2013-12-15 12:02:00,25.1,23.4,29.54,North,11,7.9,10.4,93,0.00,CLR,OVC,0.00,WeatherDisplay:10.37,2013-12-15 17:02:00,
2013-12-15 12:04:00,25.1,23.4,29.54,North,11,7.2,11.5,93,0.00,CLR,OVC,0.00,WeatherDisplay:10.37,2013-12-15 17:04:00,
2013-12-15 12:06:00,25.1,23.1,29.53,North,0,6.4,11.5,92,0.00,CLR,OVC,0.00,WeatherDisplay:10.37,2013-12-15 17:06:00,
2013-12-15 12:07:00,25.1,23.1,29.53,North,4,5.1,8.1,92,0.00,CLR,OVC,0.00,WeatherDisplay:10.37,2013-12-15 17:07:00,
2013-12-15 12:09:00,25.1,23.1,29.53,North,5,7.0,12.0,92,0.00,CLR,OVC,0.00,WeatherDisplay:10.37,2013-12-15 17:09:00,
2013-12-15 12:11:00,25.1,23.1,29.53,North,0,6.6,11.5,92,0.00,CLR,OVC,0.00,WeatherDisplay:10.37,2013-12-15 17:11:00,
2013-12-15 12:12:00,25.1,23.1,29.54,North,1,4.8,9.2,92,0.00,CLR,OVC,0.00,WeatherDisplay:10.37,2013-12-15 17:12:00,
2013-12-15 12:13:00,25.1,23.1,29.53,North,0,4.7,5.8,92,0.00,CLR,OVC,0.00,WeatherDisplay:10.37,2013-12-15 17:13:00,
2013-12-15 12:14:00,25.1,23.1,29.53,North,0,5.5,6.0,92,0.00,CLR,OVC,0.00,WeatherDisplay:10.37,2013-12-15 17:14:00,
2013-12-15 12:16:00,25.1,23.1,29.53,North,0,6.2,9.2,92,0.00,CLR,OVC,0.00,WeatherDisplay:10.37,2013-12-15 17:16:00,
2013-12-15 12:17:00,25.1,23.1,29.53,North,0,6.9,9.2,92,0.00,CLR,OVC,0.00,WeatherDisplay:10.37,2013-12-15 17:17:00,
2013-12-15 12:18:00,25.1,23.1,29.53,North,0,7.6,9.2,92,0.00,CLR,OVC,0.00,WeatherDisplay:10.37,2013-12-15 17:18:00,
2013-12-15 12:20:00,25.1,23.1,29.54,North,352,7.9,11.5,92,0.00,CLR,OVC,0.00,WeatherDisplay:10.37,2013-12-15 17:20:00,
2013-12-15 12:21:00,25.1,23.1,29.53,North,358,5.8,9.2,92,0.00,CLR,OVC,0.00,WeatherDisplay:10.37,2013-12-15 17:21:00,
2013-12-15 12:22:00,25.1,23.1,29.54,North,359,5.6,9.2,92,0.00,CLR,OVC,0.00,WeatherDisplay:10.37,2013-12-15 17:22:00,
2013-12-15 12:23:00,25.1,23.1,29.53,North,0,5.6,9.2,92,0.00,CLR,OVC,0.00,WeatherDisplay:10.37,2013-12-15 17:23:00,
2013-12-15 12:25:00,25.1,23.1,29.53,North,7,6.9,9.2,92,0.00,CLR,OVC,0.00,WeatherDisplay:10.37,2013-12-15 17:25:00,
2013-12-15 12:27:00,25.1,23.1,29.55,NNE,17,8.0,10.4,92,0.00,CLR,OVC,0.00,WeatherDisplay:10.37,2013-12-15 17:27:00,
2013-12-15 12:28:00,25.0,23.0,29.54,North,1,6.3,11.5,92,0.00,CLR,OVC,0.00,WeatherDisplay:10.37,2013-12-15 17:28:00,
2013-12-15 12:29:00,25.1,23.1,29.53,North,6,6.8,11.5,92,0.00,CLR,OVC,0.00,WeatherDisplay:10.37,2013-12-15 17:29:00,
2013-12-15 12:30:00,25.1,23.1,29.53,North,11,6.4,10.4,92,0.00,CLR,OVC,0.00,WeatherDisplay:10.37,2013-12-15 17:30:00,
2013-12-15 12:32:00,25.1,23.1,29.53,North,4,6.8,10.4,92,0.00,CLR,OVC,0.00,WeatherDisplay:10.37,2013-12-15 17:32:00,
2013-12-15 12:33:00,25.1,22.8,29.53,NNE,21,5.8,10.4,91,0.00,CLR,OVC,0.00,WeatherDisplay:10.37,2013-12-15 17:33:00,
2013-12-15 12:34:00,25.1,22.8,29.53,North,2,4.9,9.2,91,0.00,CLR,OVC,0.00,WeatherDisplay:10.37,2013-12-15 17:34:00,
2013-12-15 12:36:00,25.1,23.1,29.53,North,5,6.8,10.4,92,0.00,CLR,OVC,0.00,WeatherDisplay:10.37,2013-12-15 17:36:00,
2013-12-15 12:37:00,25.1,23.1,29.53,North,10,8.3,10.4,92,0.00,CLR,OVC,0.00,WeatherDisplay:10.37,2013-12-15 17:37:00,
2013-12-15 12:39:00,25.1,23.1,29.53,North,1,6.4,9.2,92,0.00,CLR,OVC,0.00,WeatherDisplay:10.37,2013-12-15 17:39:00,
2013-12-15 12:41:00,25.1,22.8,29.53,North,0,3.7,6.9,91,0.00,CLR,OVC,0.00,WeatherDisplay:10.37,2013-12-15 17:41:00,
2013-12-15 12:43:00,25.1,22.8,29.53,NNE,17,6.3,9.2,91,0.00,CLR,OVC,0.00,WeatherDisplay:10.37,2013-12-15 17:43:00,
2013-12-15 12:44:00,25.1,22.8,29.53,North,4,6.0,8.1,91,0.00,CLR,OVC,0.00,WeatherDisplay:10.37,2013-12-15 17:44:00,
2013-12-15 12:46:00,25.1,22.8,29.53,NNE,16,8.3,11.5,91,0.00,CLR,OVC,0.00,WeatherDisplay:10.37,2013-12-15 17:46:00,
2013-12-15 12:48:00,25.0,22.7,29.53,North,3,7.1,10.4,91,0.00,CLR,OVC,0.00,WeatherDisplay:10.37,2013-12-15 17:48:00,
2013-12-15 12:49:00,25.0,22.7,29.53,North,1,5.1,9.2,91,0.00,CLR,OVC,0.00,WeatherDisplay:10.37,2013-12-15 17:49:00,
2013-12-15 12:50:00,25.0,22.7,29.53,North,11,4.1,8.1,91,0.00,CLR,OVC,0.00,WeatherDisplay:10.37,2013-12-15 17:50:00,
2013-12-15 12:52:00,25.0,22.7,29.53,North,1,5.3,9.2,91,0.00,CLR,OVC,0.00,WeatherDisplay:10.37,2013-12-15 17:52:00,
2013-12-15 12:53:00,25.0,22.7,29.53,North,0,8.6,11.0,91,0.00,CLR,OVC,0.00,WeatherDisplay:10.37,2013-12-15 17:53:00,
2013-12-15 12:54:00,25.0,22.7,29.53,North,3,8.0,11.5,91,0.00,CLR,OVC,0.00,WeatherDisplay:10.37,2013-12-15 17:54:00,
2013-12-15 12:55:00,24.9,22.6,29.54,North,6,6.0,11.5,91,0.00,CLR,OVC,0.00,WeatherDisplay:10.37,2013-12-15 17:55:00,
2013-12-15 12:58:00,24.9,22.6,29.53,North,8,8.0,10.4,91,0.00,CLR,OVC,0.00,WeatherDisplay:10.37,2013-12-15 17:58:00,
2013-12-15 12:59:00,24.9,22.6,29.53,North,2,7.0,10.4,91,0.00,CLR,OVC,0.00,WeatherDisplay:10.37,2013-12-15 17:59:00,
2013-12-15 13:00:00,24.9,22.6,29.53,North,5,7.3,10.4,91,0.00,CLR,OVC,0.00,WeatherDisplay:10.37,2013-12-15 18:00:00,
2013-12-15 13:03:00,24.8,22.5,29.53,NNE,20,7.3,11.0,91,0.00,CLR,OVC,0.00,WeatherDisplay:10.37,2013-12-15 18:03:00,
2013-12-15 13:04:00,24.8,22.5,29.53,NNE,15,7.9,11.5,91,0.00,CLR,OVC,0.00,WeatherDisplay:10.37,2013-12-15 18:04:00,
2013-12-15 13:05:00,24.8,22.5,29.53,North,3,8.2,11.5,91,0.00,CLR,OVC,0.00,WeatherDisplay:10.37,2013-12-15 18:05:00,
2013-12-15 13:08:00,24.7,22.4,29.53,NNE,14,6.1,11.5,91,0.00,CLR,OVC,0.00,WeatherDisplay:10.37,2013-12-15 18:08:00,
2013-12-15 13:09:00,24.7,22.4,29.53,North,8,6.2,11.5,91,0.00,CLR,OVC,0.00,WeatherDisplay:10.37,2013-12-15 18:09:00,
2013-12-15 13:10:00,24.7,22.4,29.53,North,2,5.8,11.5,91,0.00,CLR,OVC,0.00,WeatherDisplay:10.37,2013-12-15 18:10:00,
2013-12-15 13:13:00,24.6,22.1,29.53,North,358,9.5,11.5,90,0.00,CLR,OVC,0.00,WeatherDisplay:10.37,2013-12-15 18:13:00,
2013-12-15 13:14:00,24.6,22.3,29.53,North,0,10.0,12.0,91,0.00,CLR,OVC,0.00,WeatherDisplay:10.37,2013-12-15 18:14:00,
2013-12-15 13:15:00,24.5,22.0,29.53,North,1,10.0,12.7,90,0.00,CLR,OVC,0.00,WeatherDisplay:10.37,2013-12-15 18:15:00,
2013-12-15 13:19:00,24.4,21.9,29.53,North,359,9.8,11.5,90,0.00,CLR,OVC,0.00,WeatherDisplay:10.37,2013-12-15 18:19:00,
2013-12-15 13:20:00,24.3,21.8,29.53,North,359,8.6,11.5,90,0.00,CLR,OVC,0.00,WeatherDisplay:10.37,2013-12-15 18:20:00,
2013-12-15 13:21:00,24.3,22.1,29.53,North,0,8.3,11.5,91,0.00,CLR,OVC,0.00,WeatherDisplay:10.37,2013-12-15 18:21:00,
2013-12-15 13:24:00,24.2,22.0,29.53,North,356,7.9,11.5,91,0.00,CLR,OVC,0.00,WeatherDisplay:10.37,2013-12-15 18:24:00,
2013-12-15 13:25:00,24.1,21.9,29.53,North,4,6.0,11.5,91,0.00,CLR,OVC,0.00,WeatherDisplay:10.37,2013-12-15 18:25:00,
2013-12-15 13:26:00,24.1,21.9,29.53,North,1,5.4,11.5,91,0.00,CLR,OVC,0.00,WeatherDisplay:10.37,2013-12-15 18:26:00,
2013-12-15 13:29:00,24.1,21.9,29.53,North,1,5.7,9.2,91,0.00,CLR,OVC,0.00,WeatherDisplay:10.37,2013-12-15 18:29:00,
2013-12-15 13:30:00,24.0,21.8,29.53,North,349,5.6,6.9,91,0.00,CLR,OVC,0.00,WeatherDisplay:10.37,2013-12-15 18:30:00,
2013-12-15 13:31:00,24.0,21.8,29.53,North,352,5.2,6.9,91,0.00,CLR,OVC,0.00,WeatherDisplay:10.37,2013-12-15 18:31:00,
2013-12-15 13:32:00,24.0,21.8,29.53,North,359,4.3,8.1,91,0.00,CLR,OVC,0.00,WeatherDisplay:10.37,2013-12-15 18:32:00,
2013-12-15 13:34:00,24.0,21.8,29.53,North,0,5.7,8.1,91,0.00,CLR,OVC,0.00,WeatherDisplay:10.37,2013-12-15 18:34:00,
2013-12-15 13:36:00,24.1,21.9,29.53,North,0,4.4,5.8,91,0.00,CLR,OVC,0.00,WeatherDisplay:10.37,2013-12-15 18:36:00,
2013-12-15 13:37:00,24.0,21.8,29.53,North,0,4.7,5.8,91,0.00,CLR,OVC,0.00,WeatherDisplay:10.37,2013-12-15 18:37:00,
2013-12-15 13:38:00,24.1,21.9,29.53,North,0,5.4,7.0,91,0.00,CLR,OVC,0.00,WeatherDisplay:10.37,2013-12-15 18:38:00,
2013-12-15 13:39:00,24.1,21.9,29.53,North,0,6.6,8.1,91,0.00,CLR,OVC,0.00,WeatherDisplay:10.37,2013-12-15 18:39:00,
2013-12-15 13:41:00,24.0,21.8,29.53,NNE,30,6.6,8.1,91,0.00,CLR,OVC,0.00,WeatherDisplay:10.37,2013-12-15 18:41:00,
2013-12-15 13:42:00,24.0,21.8,29.53,NNE,21,6.3,10.4,91,0.00,CLR,OVC,0.00,WeatherDisplay:10.37,2013-12-15 18:42:00,
2013-12-15 13:43:00,24.0,21.8,29.53,NNE,17,5.5,8.1,91,0.00,CLR,OVC,0.00,WeatherDisplay:10.37,2013-12-15 18:43:00,
2013-12-15 13:44:00,24.0,21.8,29.53,North,11,5.3,8.1,91,0.00,CLR,OVC,0.00,WeatherDisplay:10.37,2013-12-15 18:44:00,
2013-12-15 13:46:00,24.0,21.8,29.53,North,8,5.2,6.9,91,0.00,CLR,OVC,0.00,WeatherDisplay:10.37,2013-12-15 18:46:00,
2013-12-15 13:47:00,24.0,21.8,29.53,NNE,19,5.0,6.9,91,0.00,CLR,OVC,0.00,WeatherDisplay:10.37,2013-12-15 18:47:00,
2013-12-15 13:48:00,24.0,21.8,29.53,North,4,4.9,6.9,91,0.00,CLR,OVC,0.00,WeatherDisplay:10.37,2013-12-15 18:48:00,
2013-12-15 13:49:00,23.9,21.7,29.53,North,7,6.8,10.0,91,0.00,CLR,OVC,0.00,WeatherDisplay:10.37,2013-12-15 18:49:00,
2013-12-15 13:50:00,23.9,21.7,29.53,North,2,7.6,9.0,91,0.00,CLR,OVC,0.00,WeatherDisplay:10.37,2013-12-15 18:50:00,
2013-12-15 13:51:00,23.9,21.7,29.53,North,1,5.7,11.5,91,0.00,CLR,OVC,0.00,WeatherDisplay:10.37,2013-12-15 18:51:00,
2013-12-15 13:52:00,23.9,21.7,29.54,North,5,5.4,8.1,91,0.00,CLR,OVC,0.00,WeatherDisplay:10.37,2013-12-15 18:52:00,
2013-12-15 13:53:00,23.9,21.7,29.54,North,0,6.3,9.0,91,0.00,CLR,OVC,0.00,WeatherDisplay:10.37,2013-12-15 18:53:00,
2013-12-15 13:54:00,23.9,21.7,29.53,North,0,6.6,9.2,91,0.00,CLR,OVC,0.00,WeatherDisplay:10.37,2013-12-15 18:54:00,
2013-12-15 13:55:00,23.9,21.7,29.53,North,10,6.5,9.2,91,0.00,CLR,OVC,0.00,WeatherDisplay:10.37,2013-12-15 18:55:00,
2013-12-15 13:56:00,23.9,21.7,29.54,North,0,6.0,8.1,91,0.00,CLR,OVC,0.00,WeatherDisplay:10.37,2013-12-15 18:56:00,
2013-12-15 13:57:00,23.9,21.7,29.54,NNE,16,6.3,8.1,91,0.00,CLR,OVC,0.00,WeatherDisplay:10.37,2013-12-15 18:57:00,
2013-12-15 13:58:00,23.9,21.7,29.54,NNE,19,5.8,8.1,91,0.00,CLR,OVC,0.00,WeatherDisplay:10.37,2013-12-15 18:58:00,
2013-12-15 13:59:00,23.9,21.7,29.54,NNE,20,5.9,8.1,91,0.00,CLR,OVC,0.00,WeatherDisplay:10.37,2013-12-15 18:59:00,
2013-12-15 14:00:00,23.9,21.7,29.54,NNE,15,5.8,7.0,91,0.00,CLR,OVC,0.00,WeatherDisplay:10.37,2013-12-15 19:00:00,
2013-12-15 14:01:00,23.8,21.6,29.54,North,5,4.2,6.9,91,0.00,CLR,OVC,0.00,WeatherDisplay:10.37,2013-12-15 19:01:00,
2013-12-15 14:02:00,23.9,21.7,29.54,North,9,3.8,5.8,91,0.00,CLR,OVC,0.00,WeatherDisplay:10.37,2013-12-15 19:02:00,
2013-12-15 14:03:00,23.9,21.7,29.54,North,9,3.4,6.0,91,0.00,CLR,OVC,0.00,WeatherDisplay:10.37,2013-12-15 19:03:00,
2013-12-15 14:05:00,23.9,21.7,29.54,North,9,3.2,5.8,91,0.00,CLR,OVC,0.00,WeatherDisplay:10.37,2013-12-15 19:05:00,
2013-12-15 14:06:00,23.9,21.9,29.54,North,8,4.1,6.9,92,0.00,CLR,OVC,0.00,WeatherDisplay:10.37,2013-12-15 19:06:00,
2013-12-15 14:07:00,23.9,21.7,29.54,North,358,4.9,6.9,91,0.00,CLR,OVC,0.00,WeatherDisplay:10.37,2013-12-15 19:07:00,
2013-12-15 14:08:00,23.9,21.7,29.54,North,8,5.4,8.1,91,0.00,CLR,OVC,0.00,WeatherDisplay:10.37,2013-12-15 19:08:00,
2013-12-15 14:09:00,23.9,21.7,29.55,North,4,5.2,8.1,91,0.00,CLR,OVC,0.00,WeatherDisplay:10.37,2013-12-15 19:09:00,
2013-12-15 14:10:00,23.9,21.7,29.54,North,3,5.3,8.1,91,0.00,CLR,OVC,0.00,WeatherDisplay:10.37,2013-12-15 19:10:00,
2013-12-15 14:11:00,23.9,21.7,29.54,North,3,5.1,8.1,91,0.00,CLR,OVC,0.00,WeatherDisplay:10.37,2013-12-15 19:11:00,
2013-12-15 14:12:00,23.9,21.7,29.55,North,4,3.4,5.8,91,0.00,CLR,OVC,0.00,WeatherDisplay:10.37,2013-12-15 19:12:00,
2013-12-15 14:13:00,23.9,21.7,29.54,North,3,3.3,5.8,91,0.00,CLR,OVC,0.00,WeatherDisplay:10.37,2013-12-15 19:13:00,
2013-12-15 14:15:00,23.9,21.7,29.55,North,0,4.1,6.0,91,0.00,CLR,OVC,0.00,WeatherDisplay:10.37,2013-12-15 19:15:00,
2013-12-15 14:16:00,23.9,21.7,29.54,North,0,4.1,5.8,91,0.00,CLR,OVC,0.00,WeatherDisplay:10.37,2013-12-15 19:16:00,
2013-12-15 14:17:00,23.9,21.7,29.54,North,0,3.7,5.8,91,0.00,CLR,OVC,0.00,WeatherDisplay:10.37,2013-12-15 19:17:00,
2013-12-15 14:18:00,23.9,21.7,29.55,North,0,3.1,5.0,91,0.00,CLR,OVC,0.00,WeatherDisplay:10.37,2013-12-15 19:18:00,
2013-12-15 14:20:00,24.0,22.0,29.55,North,0,4.9,6.9,92,0.00,CLR,OVC,0.00,WeatherDisplay:10.37,2013-12-15 19:20:00,
2013-12-15 14:21:00,23.9,21.7,29.55,North,1,5.6,6.9,91,0.00,CLR,OVC,0.00,WeatherDisplay:10.37,2013-12-15 19:21:00,
2013-12-15 14:22:00,23.9,21.7,29.55,North,0,4.9,6.9,91,0.00,CLR,OVC,0.00,WeatherDisplay:10.37,2013-12-15 19:22:00,
2013-12-15 14:23:00,24.0,21.8,29.55,North,0,4.5,5.8,91,0.00,CLR,OVC,0.00,WeatherDisplay:10.37,2013-12-15 19:23:00,
2013-12-15 14:25:00,24.0,21.8,29.54,North,0,4.6,5.8,91,0.00,CLR,OVC,0.00,WeatherDisplay:10.37,2013-12-15 19:25:00,
2013-12-15 14:26:00,24.0,21.8,29.55,North,358,4.7,6.0,91,0.00,CLR,OVC,0.00,WeatherDisplay:10.37,2013-12-15 19:26:00,
2013-12-15 14:27:00,24.0,21.8,29.55,North,0,4.5,6.9,91,0.00,CLR,OVC,0.00,WeatherDisplay:10.37,2013-12-15 19:27:00,
2013-12-15 14:28:00,24.0,21.8,29.55,North,357,4.8,6.9,91,0.00,CLR,OVC,0.00,WeatherDisplay:10.37,2013-12-15 19:28:00,
2013-12-15 14:31:00,24.0,21.8,29.55,North,8,4.2,7.0,91,0.00,CLR,OVC,0.00,WeatherDisplay:10.37,2013-12-15 19:31:00,
2013-12-15 14:32:00,24.0,21.8,29.55,NNE,12,5.8,6.9,91,0.00,CLR,OVC,0.00,WeatherDisplay:10.37,2013-12-15 19:32:00,
2013-12-15 14:33:00,23.9,21.7,29.55,NNE,12,5.6,6.9,91,0.00,CLR,OVC,0.00,WeatherDisplay:10.37,2013-12-15 19:33:00,
2013-12-15 14:34:00,24.0,21.8,29.55,North,7,5.3,6.9,91,0.00,CLR,OVC,0.00,WeatherDisplay:10.37,2013-12-15 19:34:00,
2013-12-15 14:36:00,24.0,21.8,29.55,North,0,3.5,6.9,91,0.00,CLR,OVC,0.00,WeatherDisplay:10.37,2013-12-15 19:36:00,
2013-12-15 14:37:00,24.0,21.8,29.55,NNE,16,3.4,5.8,91,0.00,CLR,OVC,0.00,WeatherDisplay:10.37,2013-12-15 19:37:00,
2013-12-15 14:38:00,24.0,21.8,29.55,NNE,16,4.1,6.0,91,0.00,CLR,OVC,0.00,WeatherDisplay:10.37,2013-12-15 19:38:00,
2013-12-15 14:40:00,24.0,21.8,29.56,NNE,16,4.9,5.8,91,0.00,CLR,OVC,0.00,WeatherDisplay:10.37,2013-12-15 19:40:00,
2013-12-15 14:41:00,23.9,21.7,29.56,NNE,16,3.8,4.6,91,0.00,CLR,OVC,0.00,WeatherDisplay:10.37,2013-12-15 19:41:00,
2013-12-15 14:42:00,23.9,21.7,29.56,North,2,3.3,4.6,91,0.00,CLR,OVC,0.00,WeatherDisplay:10.37,2013-12-15 19:42:00,
2013-12-15 14:43:00,23.9,21.7,29.56,North,0,3.3,4.6,91,0.00,CLR,OVC,0.00,WeatherDisplay:10.37,2013-12-15 19:43:00,
2013-12-15 14:45:00,23.9,21.7,29.56,North,0,2.5,4.0,91,0.00,CLR,OVC,0.00,WeatherDisplay:10.37,2013-12-15 19:45:00,
2013-12-15 14:46:00,24.0,21.8,29.56,North,0,1.8,3.5,91,0.00,CLR,OVC,0.00,WeatherDisplay:10.37,2013-12-15 19:46:00,
2013-12-15 14:47:00,24.0,21.8,29.56,North,0,1.9,3.5,91,0.00,CLR,OVC,0.00,WeatherDisplay:10.37,2013-12-15 19:47:00,
2013-12-15 14:48:00,24.0,21.8,29.56,North,0,2.3,3.5,91,0.00,CLR,OVC,0.00,WeatherDisplay:10.37,2013-12-15 19:48:00,
2013-12-15 14:49:00,24.0,21.8,29.56,North,0,2.0,3.5,91,0.00,CLR,OVC,0.00,WeatherDisplay:10.37,2013-12-15 19:49:00,
2013-12-15 14:50:00,24.0,21.8,29.56,North,0,1.6,3.5,91,0.00,CLR,OVC,0.00,WeatherDisplay:10.37,2013-12-15 19:50:00,
2013-12-15 14:51:00,24.0,21.8,29.56,North,0,2.4,3.5,91,0.00,CLR,OVC,0.00,WeatherDisplay:10.37,2013-12-15 19:51:00,
2013-12-15 14:52:00,24.0,21.8,29.56,North,0,2.7,3.5,91,0.00,CLR,OVC,0.00,WeatherDisplay:10.37,2013-12-15 19:52:00,
2013-12-15 14:54:00,24.0,21.8,29.56,North,0,2.3,3.5,91,0.00,CLR,OVC,0.00,WeatherDisplay:10.37,2013-12-15 19:54:00,
2013-12-15 14:55:00,24.0,21.8,29.56,North,0,2.3,4.0,91,0.00,CLR,OVC,0.00,WeatherDisplay:10.37,2013-12-15 19:55:00,
2013-12-15 14:56:00,24.0,21.8,29.56,North,0,3.5,4.6,91,0.00,CLR,OVC,0.00,WeatherDisplay:10.37,2013-12-15 19:56:00,
2013-12-15 14:57:00,24.0,21.8,29.56,North,0,3.9,4.6,91,0.00,CLR,OVC,0.00,WeatherDisplay:10.37,2013-12-15 19:57:00,
2013-12-15 14:59:00,24.0,21.8,29.56,North,0,3.5,4.6,91,0.00,CLR,OVC,0.00,WeatherDisplay:10.37,2013-12-15 19:59:00,
2013-12-15 15:00:00,24.0,21.8,29.56,North,0,3.1,5.0,91,0.00,CLR,OVC,0.00,WeatherDisplay:10.37,2013-12-15 20:00:00,
2013-12-15 15:02:00,24.0,21.8,29.56,North,0,2.4,3.5,91,0.00,CLR,OVC,0.00,WeatherDisplay:10.37,2013-12-15 20:02:00,
2013-12-15 15:04:00,24.0,21.8,29.56,North,0,3.1,3.5,91,0.00,CLR,OVC,0.00,WeatherDisplay:10.37,2013-12-15 20:04:00,
2013-12-15 15:05:00,24.0,21.8,29.56,NNE,30,3.1,4.6,91,0.00,CLR,OVC,0.00,WeatherDisplay:10.37,2013-12-15 20:05:00,
2013-12-15 15:07:00,24.0,21.8,29.56,NE,35,3.0,3.5,91,0.00,CLR,OVC,0.00,WeatherDisplay:10.37,2013-12-15 20:07:00,
2013-12-15 15:08:00,24.0,21.8,29.56,NE,35,2.2,3.5,91,0.00,CLR,OVC,0.00,WeatherDisplay:10.37,2013-12-15 20:08:00,
2013-12-15 15:09:00,24.1,21.9,29.56,NE,35,1.0,3.5,91,0.00,CLR,OVC,0.00,WeatherDisplay:10.37,2013-12-15 20:09:00,
2013-12-15 15:10:00,24.1,21.9,29.56,NE,35,0.9,2.3,91,0.00,CLR,OVC,0.00,WeatherDisplay:10.37,2013-12-15 20:10:00,
2013-12-15 15:12:00,24.1,21.9,29.56,NE,35,0.8,2.3,91,0.00,CLR,OVC,0.00,WeatherDisplay:10.37,2013-12-15 20:12:00,
2013-12-15 15:13:00,24.1,21.9,29.57,NE,35,0.2,1.2,91,0.00,CLR,OVC,0.00,WeatherDisplay:10.37,2013-12-15 20:13:00,
2013-12-15 15:15:00,24.2,22.0,29.57,NE,35,0.8,2.0,91,0.00,CLR,OVC,0.00,WeatherDisplay:10.37,2013-12-15 20:15:00,
2013-12-15 15:16:00,24.2,22.0,29.57,NE,35,1.0,3.5,91,0.00,CLR,OVC,0.00,WeatherDisplay:10.37,2013-12-15 20:16:00,
2013-12-15 15:17:00,24.2,22.0,29.57,NE,35,0.7,3.5,91,0.00,CLR,OVC,0.00,WeatherDisplay:10.37,2013-12-15 20:17:00,
2013-12-15 15:19:00,24.2,22.0,29.57,NE,35,1.4,3.5,91,0.00,CLR,OVC,0.00,WeatherDisplay:10.37,2013-12-15 20:19:00,
2013-12-15 15:20:00,24.2,22.0,29.57,NE,35,0.1,1.2,91,0.00,CLR,OVC,0.00,WeatherDisplay:10.37,2013-12-15 20:20:00,
2013-12-15 15:21:00,24.2,22.0,29.57,NE,35,0.2,2.0,91,0.00,CLR,OVC,0.00,WeatherDisplay:10.37,2013-12-15 20:21:00,
2013-12-15 15:22:00,24.2,22.0,29.57,NE,35,1.6,2.3,91,0.00,CLR,OVC,0.00,WeatherDisplay:10.37,2013-12-15 20:22:00,
2013-12-15 15:24:00,24.3,21.8,29.57,NE,35,0.7,2.3,90,0.00,CLR,OVC,0.00,WeatherDisplay:10.37,2013-12-15 20:24:00,
2013-12-15 15:26:00,24.3,22.1,29.57,NE,35,0.7,2.3,91,0.00,CLR,OVC,0.00,WeatherDisplay:10.37,2013-12-15 20:26:00,
2013-12-15 15:27:00,24.3,22.1,29.57,NE,35,1.5,2.3,91,0.00,CLR,OVC,0.00,WeatherDisplay:10.37,2013-12-15 20:27:00,
2013-12-15 15:30:00,24.2,21.7,29.57,NE,35,2.1,3.5,90,0.00,CLR,OVC,0.00,WeatherDisplay:10.37,2013-12-15 20:30:00,
2013-12-15 15:31:00,24.2,22.0,29.57,NE,35,2.1,3.5,91,0.00,CLR,OVC,0.00,WeatherDisplay:10.37,2013-12-15 20:31:00,
2013-12-15 15:32:00,24.2,22.0,29.57,NE,35,2.1,3.5,91,0.00,CLR,OVC,0.00,WeatherDisplay:10.37,2013-12-15 20:32:00,
2013-12-15 15:35:00,24.2,22.0,29.57,NE,34,2.6,3.5,91,0.00,CLR,OVC,0.00,WeatherDisplay:10.37,2013-12-15 20:35:00,
2013-12-15 15:36:00,24.2,22.0,29.58,NE,34,1.9,3.5,91,0.00,CLR,OVC,0.00,WeatherDisplay:10.37,2013-12-15 20:36:00,
2013-12-15 15:37:00,24.1,21.6,29.57,NE,34,1.4,3.5,90,0.00,CLR,OVC,0.00,WeatherDisplay:10.37,2013-12-15 20:37:00,
2013-12-15 15:38:00,24.1,21.9,29.57,NE,34,1.1,2.3,91,0.00,CLR,OVC,0.00,WeatherDisplay:10.37,2013-12-15 20:38:00,
2013-12-15 15:40:00,24.1,21.6,29.58,NE,34,1.2,2.3,90,0.00,CLR,OVC,0.00,WeatherDisplay:10.37,2013-12-15 20:40:00,
2013-12-15 15:41:00,24.1,21.6,29.58,NE,34,1.8,2.3,90,0.00,CLR,OVC,0.00,WeatherDisplay:10.37,2013-12-15 20:41:00,
2013-12-15 15:42:00,24.1,21.6,29.58,NE,34,1.9,2.3,90,0.00,CLR,OVC,0.00,WeatherDisplay:10.37,2013-12-15 20:42:00,
2013-12-15 15:43:00,24.1,21.6,29.58,NE,34,1.7,2.3,90,0.00,CLR,OVC,0.00,WeatherDisplay:10.37,2013-12-15 20:43:00,
2013-12-15 15:45:00,24.0,21.5,29.58,NE,34,1.6,2.3,90,0.00,CLR,OVC,0.00,WeatherDisplay:10.37,2013-12-15 20:45:00,
2013-12-15 15:46:00,24.0,21.5,29.58,NE,34,0.8,2.3,90,0.00,CLR,OVC,0.00,WeatherDisplay:10.37,2013-12-15 20:46:00,
2013-12-15 15:47:00,24.0,21.5,29.58,NE,34,1.0,2.3,90,0.00,CLR,OVC,0.00,WeatherDisplay:10.37,2013-12-15 20:47:00,
2013-12-15 15:48:00,24.0,21.5,29.58,NE,34,1.3,2.3,90,0.00,CLR,OVC,0.00,WeatherDisplay:10.37,2013-12-15 20:48:00,
2013-12-15 15:50:00,24.0,21.5,29.58,NE,34,0.3,2.3,90,0.00,CLR,OVC,0.00,WeatherDisplay:10.37,2013-12-15 20:50:00,
2013-12-15 15:51:00,24.0,21.5,29.58,NE,34,0.0,0.0,90,0.00,CLR,OVC,0.00,WeatherDisplay:10.37,2013-12-15 20:51:00,
2013-12-15 15:52:00,24.0,21.5,29.58,NE,34,0.0,0.0,90,0.00,CLR,OVC,0.00,WeatherDisplay:10.37,2013-12-15 20:52:00,
2013-12-15 15:53:00,24.0,21.5,29.58,NE,34,0.0,0.0,90,0.00,CLR,OVC,0.00,WeatherDisplay:10.37,2013-12-15 20:53:00,
2013-12-15 15:54:00,24.0,21.5,29.58,NE,34,0.0,0.0,90,0.00,CLR,OVC,0.00,WeatherDisplay:10.37,2013-12-15 20:54:00,
2013-12-15 15:55:00,24.0,21.5,29.58,NE,34,0.0,0.0,90,0.00,CLR,OVC,0.00,WeatherDisplay:10.37,2013-12-15 20:55:00,
2013-12-15 15:57:00,24.0,21.5,29.58,NE,34,0.0,0.0,90,0.00,CLR,OVC,0.00,WeatherDisplay:10.37,2013-12-15 20:57:00,
2013-12-15 15:58:00,24.0,21.5,29.58,NE,34,0.0,0.0,90,0.00,CLR,OVC,0.00,WeatherDisplay:10.37,2013-12-15 20:58:00,
2013-12-15 15:59:00,24.0,21.5,29.58,NE,34,0.0,0.0,90,0.00,CLR,OVC,0.00,WeatherDisplay:10.37,2013-12-15 20:59:00,
2013-12-15 16:00:00,24.0,21.8,29.58,NE,34,0.0,0.0,91,0.00,CLR,OVC,0.00,WeatherDisplay:10.37,2013-12-15 21:00:00,
2013-12-15 16:02:00,24.0,21.5,29.58,NE,34,0.0,0.0,90,0.00,CLR,OVC,0.00,WeatherDisplay:10.37,2013-12-15 21:02:00,
2013-12-15 16:03:00,24.0,21.5,29.58,NE,34,0.0,0.0,90,0.00,CLR,OVC,0.00,WeatherDisplay:10.37,2013-12-15 21:03:00,
2013-12-15 16:04:00,24.0,21.5,29.58,NE,34,0.0,0.0,90,0.00,CLR,OVC,0.00,WeatherDisplay:10.37,2013-12-15 21:04:00,
2013-12-15 16:05:00,23.9,21.4,29.58,NE,34,0.0,0.0,90,0.00,CLR,OVC,0.00,WeatherDisplay:10.37,2013-12-15 21:05:00,
2013-12-15 16:06:00,23.9,21.4,29.59,NE,34,0.0,0.0,90,0.00,CLR,OVC,0.00,WeatherDisplay:10.37,2013-12-15 21:06:00,
2013-12-15 16:07:00,23.9,21.4,29.58,NE,34,0.0,0.0,90,0.00,CLR,OVC,0.00,WeatherDisplay:10.37,2013-12-15 21:07:00,
2013-12-15 16:08:00,23.9,21.4,29.58,NE,34,0.0,0.0,90,0.00,CLR,OVC,0.00,WeatherDisplay:10.37,2013-12-15 21:08:00,
2013-12-15 16:09:00,23.9,21.7,29.58,NE,34,0.0,0.0,91,0.00,CLR,OVC,0.00,WeatherDisplay:10.37,2013-12-15 21:09:00,
2013-12-15 16:11:00,23.9,21.4,29.58,NE,34,0.0,0.0,90,0.00,CLR,OVC,0.00,WeatherDisplay:10.37,2013-12-15 21:11:00,
2013-12-15 16:13:00,23.9,21.4,29.58,NE,34,0.2,2.0,90,0.00,CLR,OVC,0.00,WeatherDisplay:10.37,2013-12-15 21:13:00,
2013-12-15 16:15:00,23.9,21.4,29.58,NE,34,0.5,2.3,90,0.00,CLR,OVC,0.00,WeatherDisplay:10.37,2013-12-15 21:15:00,
2013-12-15 16:16:00,23.9,21.4,29.58,NE,34,0.7,3.0,90,0.00,CLR,OVC,0.00,WeatherDisplay:10.37,2013-12-15 21:16:00,
2013-12-15 16:18:00,23.9,21.4,29.58,NE,34,1.7,3.5,90,0.00,CLR,OVC,0.00,WeatherDisplay:10.37,2013-12-15 21:18:00,
2013-12-15 16:19:00,23.9,21.4,29.58,NE,34,0.5,3.5,90,0.00,CLR,OVC,0.00,WeatherDisplay:10.37,2013-12-15 21:19:00,
2013-12-15 16:20:00,23.8,21.3,29.58,NE,34,0.3,2.3,90,0.00,CLR,OVC,0.00,WeatherDisplay:10.37,2013-12-15 21:20:00,
2013-12-15 16:21:00,23.8,21.3,29.58,NE,34,0.0,0.0,90,0.00,CLR,OVC,0.00,WeatherDisplay:10.37,2013-12-15 21:21:00,
2013-12-15 16:23:00,23.8,21.3,29.58,NE,34,0.1,1.0,90,0.00,CLR,OVC,0.00,WeatherDisplay:10.37,2013-12-15 21:23:00,
2013-12-15 16:24:00,23.8,21.3,29.59,NE,34,0.4,1.2,90,0.00,CLR,OVC,0.00,WeatherDisplay:10.37,2013-12-15 21:24:00,
2013-12-15 16:25:00,23.7,21.2,29.58,NE,34,0.7,2.3,90,0.00,CLR,OVC,0.00,WeatherDisplay:10.37,2013-12-15 21:25:00,
2013-12-15 16:26:00,23.6,21.1,29.58,NE,34,0.0,2.3,90,0.00,CLR,OVC,0.00,WeatherDisplay:10.37,2013-12-15 21:26:00,
2013-12-15 16:27:00,23.6,21.1,29.59,NE,34,0.0,2.3,90,0.00,CLR,OVC,0.00,WeatherDisplay:10.37,2013-12-15 21:27:00,
2013-12-15 16:28:00,23.6,21.1,29.59,NE,34,0.2,2.0,90,0.00,CLR,OVC,0.00,WeatherDisplay:10.37,2013-12-15 21:28:00,
2013-12-15 16:29:00,23.5,21.0,29.59,NE,34,1.1,2.0,90,0.00,CLR,OVC,0.00,WeatherDisplay:10.37,2013-12-15 21:29:00,
2013-12-15 16:31:00,23.5,21.0,29.59,NE,34,0.3,3.5,90,0.00,CLR,OVC,0.00,WeatherDisplay:10.37,2013-12-15 21:31:00,
2013-12-15 16:32:00,23.5,21.0,29.59,NE,34,0.0,1.2,90,0.00,CLR,OVC,0.00,WeatherDisplay:10.37,2013-12-15 21:32:00,
2013-12-15 16:33:00,23.4,20.9,29.59,NE,34,0.2,1.2,90,0.00,CLR,OVC,0.00,WeatherDisplay:10.37,2013-12-15 21:33:00,
2013-12-15 16:34:00,23.3,20.8,29.59,NE,34,0.4,1.2,90,0.00,CLR,OVC,0.00,WeatherDisplay:10.37,2013-12-15 21:34:00,
2013-12-15 16:35:00,23.3,20.8,29.59,NE,34,0.8,2.0,90,0.00,CLR,OVC,0.00,WeatherDisplay:10.37,2013-12-15 21:35:00,
2013-12-15 16:37:00,23.1,20.6,29.60,NE,34,0.0,2.3,90,0.00,CLR,OVC,0.00,WeatherDisplay:10.37,2013-12-15 21:37:00,
2013-12-15 16:38:00,23.1,20.3,29.60,NE,34,0.0,0.0,89,0.00,CLR,OVC,0.00,WeatherDisplay:10.37,2013-12-15 21:38:00,
2013-12-15 16:39:00,23.0,20.5,29.60,NE,34,0.0,0.0,90,0.00,CLR,OVC,0.00,WeatherDisplay:10.37,2013-12-15 21:39:00,
2013-12-15 16:40:00,23.0,20.5,29.60,NE,34,0.0,0.0,90,0.00,CLR,OVC,0.00,WeatherDisplay:10.37,2013-12-15 21:40:00,
2013-12-15 16:42:00,22.9,20.4,29.60,NE,34,0.0,0.0,90,0.00,CLR,OVC,0.00,WeatherDisplay:10.37,2013-12-15 21:42:00,
2013-12-15 16:43:00,22.8,20.0,29.60,NE,34,0.0,0.0,89,0.00,CLR,OVC,0.00,WeatherDisplay:10.37,2013-12-15 21:43:00,
2013-12-15 16:44:00,22.7,19.9,29.60,NE,34,0.0,0.0,89,0.00,CLR,OVC,0.00,WeatherDisplay:10.37,2013-12-15 21:44:00,
2013-12-15 16:45:00,22.7,20.2,29.60,NE,34,0.0,0.0,90,0.00,CLR,OVC,0.00,WeatherDisplay:10.37,2013-12-15 21:45:00,
2013-12-15 16:47:00,22.5,19.7,29.60,NE,34,2.4,3.5,89,0.00,CLR,OVC,0.00,WeatherDisplay:10.37,2013-12-15 21:47:00,
2013-12-15 16:48:00,22.5,19.7,29.60,NE,34,1.9,3.5,89,0.00,CLR,OVC,0.00,WeatherDisplay:10.37,2013-12-15 21:48:00,
2013-12-15 16:49:00,22.4,19.9,29.60,NE,34,0.2,2.3,90,0.00,CLR,OVC,0.00,WeatherDisplay:10.37,2013-12-15 21:49:00,
2013-12-15 16:50:00,22.4,19.9,29.60,NE,34,0.2,1.2,90,0.00,CLR,OVC,0.00,WeatherDisplay:10.37,2013-12-15 21:50:00,
2013-12-15 16:52:00,22.2,19.7,29.60,NE,34,1.7,3.5,90,0.00,CLR,OVC,0.00,WeatherDisplay:10.37,2013-12-15 21:52:00,
2013-12-15 16:53:00,22.2,19.7,29.61,NE,34,1.1,3.5,90,0.00,CLR,OVC,0.00,WeatherDisplay:10.37,2013-12-15 21:53:00,
2013-12-15 16:54:00,22.2,19.7,29.61,NE,34,0.0,2.3,90,0.00,CLR,OVC,0.00,WeatherDisplay:10.37,2013-12-15 21:54:00,
2013-12-15 16:55:00,22.1,19.6,29.61,NE,34,0.0,0.0,90,0.00,CLR,OVC,0.00,WeatherDisplay:10.37,2013-12-15 21:55:00,
2013-12-15 16:58:00,22.0,19.5,29.61,NE,34,0.2,1.0,90,0.00,CLR,OVC,0.00,WeatherDisplay:10.37,2013-12-15 21:58:00,
2013-12-15 16:59:00,22.0,19.5,29.61,NE,34,0.2,1.2,90,0.00,CLR,OVC,0.00,WeatherDisplay:10.37,2013-12-15 21:59:00,
2013-12-15 17:01:00,21.9,19.4,29.61,NE,34,0.0,0.0,90,0.00,CLR,OVC,0.00,WeatherDisplay:10.37,2013-12-15 22:01:00,
2013-12-15 17:03:00,21.9,19.4,29.61,NE,34,0.0,0.0,90,0.00,CLR,OVC,0.00,WeatherDisplay:10.37,2013-12-15 22:03:00,
2013-12-15 17:04:00,21.9,19.4,29.61,NE,34,0.0,0.0,90,0.00,CLR,OVC,0.00,WeatherDisplay:10.37,2013-12-15 22:04:00,
2013-12-15 17:05:00,21.8,19.3,29.61,NE,34,0.3,1.0,90,0.00,CLR,OVC,0.00,WeatherDisplay:10.37,2013-12-15 22:05:00,
2013-12-15 17:06:00,21.8,19.3,29.61,NE,34,1.2,2.3,90,0.00,CLR,OVC,0.00,WeatherDisplay:10.37,2013-12-15 22:06:00,
2013-12-15 17:07:00,21.8,19.3,29.61,NE,34,1.2,2.3,90,0.00,CLR,OVC,0.00,WeatherDisplay:10.37,2013-12-15 22:07:00,
2013-12-15 17:08:00,21.7,19.2,29.60,NE,34,0.0,0.0,90,0.00,CLR,OVC,0.00,WeatherDisplay:10.37,2013-12-15 22:08:00,
2013-12-15 17:09:00,21.7,19.2,29.60,NE,34,0.0,0.0,90,0.00,CLR,OVC,0.00,WeatherDisplay:10.37,2013-12-15 22:09:00,
2013-12-15 17:11:00,21.7,19.2,29.60,NE,34,1.6,3.0,90,0.00,CLR,OVC,0.00,WeatherDisplay:10.37,2013-12-15 22:11:00,
2013-12-15 17:12:00,21.7,19.2,29.61,NE,34,3.4,3.5,90,0.00,CLR,OVC,0.00,WeatherDisplay:10.37,2013-12-15 22:12:00,
2013-12-15 17:13:00,21.7,19.2,29.61,NE,34,3.5,3.5,90,0.00,CLR,OVC,0.00,WeatherDisplay:10.37,2013-12-15 22:13:00,
2013-12-15 17:14:00,21.7,19.2,29.60,NE,34,3.3,3.5,90,0.00,CLR,OVC,0.00,WeatherDisplay:10.37,2013-12-15 22:14:00,
2013-12-15 17:16:00,21.8,19.3,29.61,NE,34,1.4,3.5,90,0.00,CLR,OVC,0.00,WeatherDisplay:10.37,2013-12-15 22:16:00,
2013-12-15 17:18:00,21.8,19.6,29.61,NE,34,0.0,2.3,91,0.00,CLR,OVC,0.00,WeatherDisplay:10.37,2013-12-15 22:18:00,
2013-12-15 17:19:00,21.8,19.6,29.61,NE,34,0.0,0.0,91,0.00,CLR,OVC,0.00,WeatherDisplay:10.37,2013-12-15 22:19:00,
2013-12-15 17:21:00,21.8,19.3,29.61,NE,34,1.8,3.5,90,0.00,CLR,OVC,0.00,WeatherDisplay:10.37,2013-12-15 22:21:00,
2013-12-15 17:23:00,21.8,19.3,29.61,NE,34,3.1,3.5,90,0.00,CLR,OVC,0.00,WeatherDisplay:10.37,2013-12-15 22:23:00,
2013-12-15 17:24:00,21.8,19.3,29.61,NE,34,3.2,3.5,90,0.00,CLR,OVC,0.00,WeatherDisplay:10.37,2013-12-15 22:24:00,
2013-12-15 17:26:00,21.7,19.2,29.61,NE,34,3.4,4.0,90,0.00,CLR,OVC,0.00,WeatherDisplay:10.37,2013-12-15 22:26:00,
2013-12-15 17:27:00,21.7,19.5,29.61,NE,34,3.4,3.5,91,0.00,CLR,OVC,0.00,WeatherDisplay:10.37,2013-12-15 22:27:00,
2013-12-15 17:28:00,21.7,19.5,29.61,NE,34,3.2,4.6,91,0.00,CLR,OVC,0.00,WeatherDisplay:10.37,2013-12-15 22:28:00,
2013-12-15 17:29:00,21.7,19.5,29.61,NE,34,2.4,3.5,91,0.00,CLR,OVC,0.00,WeatherDisplay:10.37,2013-12-15 22:29:00,
2013-12-15 17:31:00,21.7,19.5,29.61,NE,34,1.0,2.3,91,0.00,CLR,OVC,0.00,WeatherDisplay:10.37,2013-12-15 22:31:00,
2013-12-15 17:32:00,21.7,19.5,29.61,NE,34,1.1,2.3,91,0.00,CLR,OVC,0.00,WeatherDisplay:10.37,2013-12-15 22:32:00,
2013-12-15 17:33:00,21.7,19.5,29.61,NE,34,1.0,2.3,91,0.00,CLR,OVC,0.00,WeatherDisplay:10.37,2013-12-15 22:33:00,
2013-12-15 17:34:00,21.7,19.5,29.62,NE,34,0.7,2.3,91,0.00,CLR,OVC,0.00,WeatherDisplay:10.37,2013-12-15 22:34:00,
2013-12-15 17:37:00,21.7,19.5,29.62,NE,34,2.8,4.0,91,0.00,CLR,OVC,0.00,WeatherDisplay:10.37,2013-12-15 22:37:00,
2013-12-15 17:38:00,21.7,19.5,29.61,NE,34,3.1,3.5,91,0.00,CLR,OVC,0.00,WeatherDisplay:10.37,2013-12-15 22:38:00,
2013-12-15 17:39:00,21.8,19.6,29.62,NE,34,3.0,3.5,91,0.00,CLR,OVC,0.00,WeatherDisplay:10.37,2013-12-15 22:39:00,
2013-12-15 17:42:00,21.9,19.7,29.62,NE,34,0.3,1.2,91,0.00,CLR,OVC,0.00,WeatherDisplay:10.37,2013-12-15 22:42:00,
2013-12-15 17:43:00,21.9,19.7,29.61,NE,34,0.4,1.2,91,0.00,CLR,OVC,0.00,WeatherDisplay:10.37,2013-12-15 22:43:00,
2013-12-15 17:44:00,21.9,19.7,29.62,NE,34,0.0,3.0,91,0.00,CLR,OVC,0.00,WeatherDisplay:10.37,2013-12-15 22:44:00,
2013-12-15 17:47:00,22.0,20.0,29.62,NE,34,1.4,2.3,92,0.00,CLR,OVC,0.00,WeatherDisplay:10.37,2013-12-15 22:47:00,
2013-12-15 17:48:00,22.0,19.8,29.62,NE,34,1.6,2.3,91,0.00,CLR,OVC,0.00,WeatherDisplay:10.37,2013-12-15 22:48:00,
2013-12-15 17:49:00,22.0,19.8,29.62,NE,34,1.9,3.5,91,0.00,CLR,OVC,0.00,WeatherDisplay:10.37,2013-12-15 22:49:00,
2013-12-15 17:50:00,22.0,19.8,29.62,NE,34,1.9,3.5,91,0.00,CLR,OVC,0.00,WeatherDisplay:10.37,2013-12-15 22:50:00,
2013-12-15 17:53:00,22.1,19.9,29.62,NE,34,0.5,1.2,91,0.00,CLR,OVC,0.00,WeatherDisplay:10.37,2013-12-15 22:53:00,
2013-12-15 17:54:00,22.1,19.9,29.62,NE,34,0.0,1.2,91,0.00,CLR,OVC,0.00,WeatherDisplay:10.37,2013-12-15 22:54:00,
2013-12-15 17:55:00,22.1,19.9,29.62,NE,34,0.5,1.2,91,0.00,CLR,OVC,0.00,WeatherDisplay:10.37,2013-12-15 22:55:00,
2013-12-15 17:56:00,22.1,19.9,29.62,NE,34,0.3,1.2,91,0.00,CLR,OVC,0.00,WeatherDisplay:10.37,2013-12-15 22:56:00,
2013-12-15 17:58:00,22.0,19.8,29.62,NE,34,0.2,1.0,91,0.00,CLR,OVC,0.00,WeatherDisplay:10.37,2013-12-15 22:58:00,
2013-12-15 17:59:00,22.0,19.8,29.62,NE,34,0.3,1.2,91,0.00,CLR,OVC,0.00,WeatherDisplay:10.37,2013-12-15 22:59:00,
2013-12-15 18:01:00,22.0,19.8,29.62,NE,34,0.3,1.2,91,0.00,CLR,OVC,0.00,WeatherDisplay:10.37,2013-12-15 23:01:00,
2013-12-15 18:03:00,22.0,19.8,29.62,NE,34,0.1,1.2,91,0.00,CLR,OVC,0.00,WeatherDisplay:10.37,2013-12-15 23:03:00,
2013-12-15 18:04:00,22.0,19.8,29.62,NE,34,0.1,1.2,91,0.00,CLR,OVC,0.00,WeatherDisplay:10.37,2013-12-15 23:04:00,
2013-12-15 18:05:00,22.0,19.8,29.62,NE,34,0.0,1.2,91,0.00,CLR,OVC,0.00,WeatherDisplay:10.37,2013-12-15 23:05:00,
2013-12-15 18:06:00,22.0,19.8,29.62,NE,34,0.5,1.2,91,0.00,CLR,OVC,0.00,WeatherDisplay:10.37,2013-12-15 23:06:00,
2013-12-15 18:08:00,22.0,19.8,29.62,NE,34,0.2,1.2,91,0.00,CLR,OVC,0.00,WeatherDisplay:10.37,2013-12-15 23:08:00,
2013-12-15 18:09:00,22.0,19.8,29.62,NE,34,0.2,1.2,91,0.00,CLR,OVC,0.00,WeatherDisplay:10.37,2013-12-15 23:09:00,
2013-12-15 18:10:00,22.0,20.0,29.62,NE,34,0.4,1.2,92,0.00,CLR,OVC,0.00,WeatherDisplay:10.37,2013-12-15 23:10:00,
2013-12-15 18:11:00,22.0,19.8,29.62,NE,34,0.8,2.3,91,0.00,CLR,OVC,0.00,WeatherDisplay:10.37,2013-12-15 23:11:00,
2013-12-15 18:12:00,22.0,19.8,29.62,NE,34,1.0,2.3,91,0.00,CLR,OVC,0.00,WeatherDisplay:10.37,2013-12-15 23:12:00,
2013-12-15 18:13:00,22.0,19.8,29.62,NE,34,1.1,2.3,91,0.00,CLR,OVC,0.00,WeatherDisplay:10.37,2013-12-15 23:13:00,
2013-12-15 18:14:00,22.0,19.8,29.62,NE,34,1.2,2.3,91,0.00,CLR,OVC,0.00,WeatherDisplay:10.37,2013-12-15 23:14:00,
2013-12-15 18:15:00,22.0,20.0,29.62,NE,34,1.0,2.3,92,0.00,CLR,OVC,0.00,WeatherDisplay:10.37,2013-12-15 23:15:00,
2013-12-15 18:17:00,22.0,20.0,29.62,NE,34,0.4,2.3,92,0.00,CLR,OVC,0.00,WeatherDisplay:10.37,2013-12-15 23:17:00,
2013-12-15 18:18:00,22.0,20.0,29.62,NE,34,0.1,1.2,92,0.00,CLR,OVC,0.00,WeatherDisplay:10.37,2013-12-15 23:18:00,
2013-12-15 18:19:00,22.0,19.8,29.63,NE,34,0.2,1.2,91,0.00,CLR,OVC,0.00,WeatherDisplay:10.37,2013-12-15 23:19:00,
2013-12-15 18:21:00,22.1,19.9,29.62,NE,34,0.7,2.3,91,0.00,CLR,OVC,0.00,WeatherDisplay:10.37,2013-12-15 23:21:00,
2013-12-15 18:22:00,22.1,20.1,29.62,NE,34,0.0,1.2,92,0.00,CLR,OVC,0.00,WeatherDisplay:10.37,2013-12-15 23:22:00,
2013-12-15 18:23:00,22.0,19.8,29.62,NE,34,0.0,0.0,91,0.00,CLR,OVC,0.00,WeatherDisplay:10.37,2013-12-15 23:23:00,
2013-12-15 18:24:00,22.0,19.8,29.62,NE,34,0.0,0.0,91,0.00,CLR,OVC,0.00,WeatherDisplay:10.37,2013-12-15 23:24:00,
2013-12-15 18:26:00,22.1,20.1,29.62,NE,34,0.0,0.0,92,0.00,CLR,OVC,0.00,WeatherDisplay:10.37,2013-12-15 23:26:00,
2013-12-15 18:27:00,22.1,19.9,29.62,NE,34,0.0,0.0,91,0.00,CLR,OVC,0.00,WeatherDisplay:10.37,2013-12-15 23:27:00,
2013-12-15 18:28:00,22.1,20.1,29.62,NE,34,0.0,0.0,92,0.00,CLR,OVC,0.00,WeatherDisplay:10.37,2013-12-15 23:28:00,
2013-12-15 18:29:00,22.1,20.1,29.62,NE,34,0.0,0.0,92,0.00,CLR,OVC,0.00,WeatherDisplay:10.37,2013-12-15 23:29:00,
2013-12-15 18:31:00,22.0,19.8,29.62,NE,34,0.0,0.0,91,0.00,CLR,OVC,0.00,WeatherDisplay:10.37,2013-12-15 23:31:00,
2013-12-15 18:32:00,22.0,19.8,29.63,NE,34,0.4,2.3,91,0.00,CLR,OVC,0.00,WeatherDisplay:10.37,2013-12-15 23:32:00,
2013-12-15 18:33:00,22.0,20.0,29.62,NE,34,0.9,2.3,92,0.00,CLR,OVC,0.00,WeatherDisplay:10.37,2013-12-15 23:33:00,
2013-12-15 18:34:00,22.0,19.7,29.62,NE,34,1.0,2.0,91,0.00,CLR,OVC,0.00,WeatherDisplay:10.37,2013-12-15 23:34:00,
2013-12-15 18:35:00,21.9,19.7,29.63,NE,34,0.0,1.2,91,0.00,CLR,OVC,0.00,WeatherDisplay:10.37,2013-12-15 23:35:00,
2013-12-15 18:36:00,21.8,19.6,29.63,NE,34,0.0,0.0,91,0.00,CLR,OVC,0.00,WeatherDisplay:10.37,2013-12-15 23:36:00,
2013-12-15 18:38:00,21.8,19.6,29.63,NE,34,0.0,0.0,91,0.00,CLR,OVC,0.00,WeatherDisplay:10.37,2013-12-15 23:38:00,
2013-12-15 18:39:00,21.7,19.5,29.63,NE,34,0.0,0.0,91,0.00,CLR,OVC,0.00,WeatherDisplay:10.37,2013-12-15 23:39:00,
2013-12-15 18:40:00,21.7,19.5,29.63,NE,34,0.0,0.0,91,0.00,CLR,OVC,0.00,WeatherDisplay:10.37,2013-12-15 23:40:00,
2013-12-15 18:42:00,21.6,19.4,29.63,NE,34,0.5,1.2,91,0.00,CLR,OVC,0.00,WeatherDisplay:10.37,2013-12-15 23:42:00,
2013-12-15 18:43:00,21.6,19.4,29.63,NE,34,0.2,1.2,91,0.00,CLR,OVC,0.00,WeatherDisplay:10.37,2013-12-15 23:43:00,
2013-12-15 18:44:00,21.5,19.3,29.63,NE,34,0.0,0.0,91,0.00,CLR,OVC,0.00,WeatherDisplay:10.37,2013-12-15 23:44:00,
2013-12-15 18:45:00,21.5,19.5,29.63,NE,34,0.0,0.0,92,0.00,CLR,OVC,0.00,WeatherDisplay:10.37,2013-12-15 23:45:00,
2013-12-15 18:48:00,21.4,19.2,29.63,NE,34,0.0,0.0,91,0.00,CLR,OVC,0.00,WeatherDisplay:10.37,2013-12-15 23:48:00,
2013-12-15 18:49:00,21.4,19.2,29.63,NE,34,0.0,0.0,91,0.00,CLR,OVC,0.00,WeatherDisplay:10.37,2013-12-15 23:49:00,
2013-12-15 18:50:00,21.4,19.2,29.63,NE,34,0.0,0.0,91,0.00,CLR,OVC,0.00,WeatherDisplay:10.37,2013-12-15 23:50:00,
2013-12-15 18:53:00,21.3,19.1,29.63,NE,34,0.0,0.0,91,0.00,CLR,OVC,0.00,WeatherDisplay:10.37,2013-12-15 23:53:00,
2013-12-15 18:54:00,21.3,19.1,29.63,NE,34,0.0,0.0,91,0.00,CLR,OVC,0.00,WeatherDisplay:10.37,2013-12-15 23:54:00,
2013-12-15 18:55:00,21.3,19.1,29.63,NE,34,0.0,0.0,91,0.00,CLR,OVC,0.00,WeatherDisplay:10.37,2013-12-15 23:55:00,
2013-12-15 18:58:00,21.2,19.0,29.63,NE,34,0.0,0.0,91,0.00,CLR,OVC,0.00,WeatherDisplay:10.37,2013-12-15 23:58:00,
2013-12-15 18:59:00,21.2,19.0,29.63,NE,34,0.0,0.0,91,0.00,CLR,OVC,0.00,WeatherDisplay:10.37,2013-12-15 23:59:00,
2013-12-15 19:00:00,21.2,19.0,29.63,NE,34,0.3,1.0,91,0.00,CLR,OVC,0.00,WeatherDisplay:10.37,2013-12-16 00:00:00,
2013-12-15 19:01:00,21.2,19.2,29.63,NE,34,0.7,2.3,92,0.00,CLR,OVC,0.00,WeatherDisplay:10.37,2013-12-16 00:01:00,
2013-12-15 19:04:00,21.2,19.0,29.63,NE,34,0.0,0.0,91,0.00,CLR,OVC,0.00,WeatherDisplay:10.37,2013-12-16 00:04:00,
2013-12-15 19:05:00,21.2,19.0,29.63,NE,34,0.0,1.0,91,0.00,CLR,OVC,0.00,WeatherDisplay:10.37,2013-12-16 00:05:00,
2013-12-15 19:06:00,21.2,19.0,29.64,NE,34,0.4,1.2,91,0.00,CLR,OVC,0.00,WeatherDisplay:10.37,2013-12-16 00:06:00,
2013-12-15 19:09:00,21.2,19.0,29.64,NE,34,0.0,1.0,91,0.00,CLR,OVC,0.00,WeatherDisplay:10.37,2013-12-16 00:09:00,
2013-12-15 19:10:00,21.2,19.0,29.63,NE,34,0.5,2.0,91,0.00,CLR,OVC,0.00,WeatherDisplay:10.37,2013-12-16 00:10:00,
2013-12-15 19:11:00,21.2,19.2,29.64,NE,34,0.7,2.3,92,0.00,CLR,OVC,0.00,WeatherDisplay:10.37,2013-12-16 00:11:00,
2013-12-15 19:14:00,21.2,19.2,29.64,NE,34,0.0,0.0,92,0.00,CLR,OVC,0.00,WeatherDisplay:10.37,2013-12-16 00:14:00,
2013-12-15 19:15:00,21.2,19.2,29.64,NE,34,0.0,0.0,92,0.00,CLR,OVC,0.00,WeatherDisplay:10.37,2013-12-16 00:15:00,
2013-12-15 19:16:00,21.2,19.0,29.64,NE,34,0.2,1.0,91,0.00,CLR,OVC,0.00,WeatherDisplay:10.37,2013-12-16 00:16:00,
2013-12-15 19:17:00,21.2,19.0,29.64,NE,34,0.9,1.2,91,0.00,CLR,OVC,0.00,WeatherDisplay:10.37,2013-12-16 00:17:00,
2013-12-15 19:19:00,21.2,19.2,29.64,NE,34,0.5,2.3,92,0.00,CLR,OVC,0.00,WeatherDisplay:10.37,2013-12-16 00:19:00,
2013-12-15 19:20:00,21.2,19.2,29.64,NE,34,0.0,0.0,92,0.00,CLR,OVC,0.00,WeatherDisplay:10.37,2013-12-16 00:20:00,
2013-12-15 19:21:00,21.3,19.3,29.64,NE,34,0.0,0.0,92,0.00,CLR,OVC,0.00,WeatherDisplay:10.37,2013-12-16 00:21:00,
2013-12-15 19:22:00,21.2,19.2,29.64,NE,34,0.1,0.0,92,0.00,CLR,OVC,0.00,WeatherDisplay:10.37,2013-12-16 00:22:00,
2013-12-15 19:24:00,21.2,19.2,29.64,NE,34,1.1,1.2,92,0.00,CLR,OVC,0.00,WeatherDisplay:10.37,2013-12-16 00:24:00,
2013-12-15 19:26:00,21.2,19.2,29.64,NE,34,1.2,2.3,92,0.00,CLR,OVC,0.00,WeatherDisplay:10.37,2013-12-16 00:26:00,
2013-12-15 19:27:00,21.2,19.2,29.64,NE,34,1.3,2.3,92,0.00,CLR,OVC,0.00,WeatherDisplay:10.37,2013-12-16 00:27:00,
2013-12-15 19:29:00,21.2,19.2,29.64,NE,34,1.3,2.3,92,0.00,CLR,OVC,0.00,WeatherDisplay:10.37,2013-12-16 00:29:00,
2013-12-15 19:31:00,21.2,19.2,29.64,NE,34,0.2,2.3,92,0.00,CLR,OVC,0.00,WeatherDisplay:10.37,2013-12-16 00:31:00,
2013-12-15 19:32:00,21.2,19.2,29.64,NE,34,0.9,2.0,92,0.00,CLR,OVC,0.00,WeatherDisplay:10.37,2013-12-16 00:32:00,
2013-12-15 19:34:00,21.2,19.2,29.64,NE,34,2.0,3.5,92,0.00,CLR,OVC,0.00,WeatherDisplay:10.37,2013-12-16 00:34:00,
2013-12-15 19:36:00,21.3,19.3,29.64,NE,34,1.8,3.5,92,0.00,CLR,OVC,0.00,WeatherDisplay:10.37,2013-12-16 00:36:00,
2013-12-15 19:37:00,21.3,19.3,29.64,NE,34,1.7,2.3,92,0.00,CLR,OVC,0.00,WeatherDisplay:10.37,2013-12-16 00:37:00,
2013-12-15 19:38:00,21.3,19.3,29.64,NE,34,1.8,2.3,92,0.00,CLR,OVC,0.00,WeatherDisplay:10.37,2013-12-16 00:38:00,
2013-12-15 19:40:00,21.3,19.3,29.64,NE,34,1.3,2.3,92,0.00,CLR,OVC,0.00,WeatherDisplay:10.37,2013-12-16 00:40:00,
2013-12-15 19:41:00,21.3,19.3,29.64,NE,34,1.0,2.3,92,0.00,CLR,OVC,0.00,WeatherDisplay:10.37,2013-12-16 00:41:00,
2013-12-15 19:42:00,21.4,19.4,29.65,NE,34,1.4,2.3,92,0.00,CLR,OVC,0.00,WeatherDisplay:10.37,2013-12-16 00:42:00,
2013-12-15 19:43:00,21.4,19.4,29.65,NE,34,1.9,2.3,92,0.00,CLR,OVC,0.00,WeatherDisplay:10.37,2013-12-16 00:43:00,
2013-12-15 19:45:00,21.4,19.4,29.65,NE,34,1.9,2.3,92,0.00,CLR,OVC,0.00,WeatherDisplay:10.37,2013-12-16 00:45:00,
2013-12-15 19:46:00,21.5,19.5,29.65,NE,34,1.8,2.3,92,0.00,CLR,OVC,0.00,WeatherDisplay:10.37,2013-12-16 00:46:00,
2013-12-15 19:47:00,21.5,19.5,29.65,NE,34,1.3,2.3,92,0.00,CLR,OVC,0.00,WeatherDisplay:10.37,2013-12-16 00:47:00,
2013-12-15 19:48:00,21.5,19.5,29.65,NE,34,1.2,2.3,92,0.00,CLR,OVC,0.00,WeatherDisplay:10.37,2013-12-16 00:48:00,
2013-12-15 19:49:00,21.5,19.5,29.65,NE,34,1.0,2.3,92,0.00,CLR,OVC,0.00,WeatherDisplay:10.37,2013-12-16 00:49:00,
2013-12-15 19:50:00,21.6,19.6,29.65,NE,34,1.4,2.3,92,0.00,CLR,OVC,0.00,WeatherDisplay:10.37,2013-12-16 00:50:00,
2013-12-15 19:51:00,21.6,19.9,29.65,NE,34,1.4,2.3,93,0.00,CLR,OVC,0.00,WeatherDisplay:10.37,2013-12-16 00:51:00,
2013-12-15 19:54:00,21.6,19.6,29.65,NE,34,1.5,2.3,92,0.00,CLR,OVC,0.00,WeatherDisplay:10.37,2013-12-16 00:54:00,
2013-12-15 19:55:00,21.7,19.7,29.65,NE,34,1.2,2.3,92,0.00,CLR,OVC,0.00,WeatherDisplay:10.37,2013-12-16 00:55:00,
2013-12-15 19:56:00,21.7,20.0,29.65,NE,34,0.5,1.2,93,0.00,CLR,OVC,0.00,WeatherDisplay:10.37,2013-12-16 00:56:00,
2013-12-15 19:57:00,21.7,19.7,29.65,NE,34,0.2,1.2,92,0.00,CLR,OVC,0.00,WeatherDisplay:10.37,2013-12-16 00:57:00,
2013-12-15 19:59:00,21.8,19.8,29.65,NE,34,0.2,1.0,92,0.00,CLR,OVC,0.00,WeatherDisplay:10.37,2013-12-16 00:59:00,
2013-12-15 20:00:00,21.8,19.8,29.65,NE,34,1.1,2.3,92,0.00,CLR,OVC,0.00,WeatherDisplay:10.37,2013-12-16 01:00:00,
2013-12-15 20:01:00,21.8,20.1,29.65,NE,34,1.0,2.3,93,0.00,CLR,OVC,0.00,WeatherDisplay:10.37,2013-12-16 01:01:00,
2013-12-15 20:02:00,21.8,19.8,29.65,NE,34,1.1,2.3,92,0.00,CLR,OVC,0.00,WeatherDisplay:10.37,2013-12-16 01:02:00,
2013-12-15 20:04:00,21.8,19.8,29.65,NE,34,0.1,2.3,92,0.00,CLR,OVC,0.00,WeatherDisplay:10.37,2013-12-16 01:04:00,
2013-12-15 20:05:00,21.8,19.8,29.65,NE,34,0.4,2.0,92,0.00,CLR,OVC,0.00,WeatherDisplay:10.37,2013-12-16 01:05:00,
2013-12-15 20:06:00,21.8,19.8,29.65,NE,34,1.4,2.3,92,0.00,CLR,OVC,0.00,WeatherDisplay:10.37,2013-12-16 01:06:00,
2013-12-15 20:07:00,21.7,19.7,29.65,NE,34,1.4,2.3,92,0.00,CLR,OVC,0.00,WeatherDisplay:10.37,2013-12-16 01:07:00,
2013-12-15 20:09:00,21.7,19.7,29.65,NE,34,0.0,1.2,92,0.00,CLR,OVC,0.00,WeatherDisplay:10.37,2013-12-16 01:09:00,
2013-12-15 20:10:00,21.7,19.7,29.65,NE,34,0.0,1.2,92,0.00,CLR,OVC,0.00,WeatherDisplay:10.37,2013-12-16 01:10:00,
2013-12-15 20:11:00,21.7,19.7,29.65,NE,34,0.0,0.0,92,0.00,CLR,OVC,0.00,WeatherDisplay:10.37,2013-12-16 01:11:00,
2013-12-15 20:12:00,21.6,19.6,29.65,NE,34,0.1,0.0,92,0.00,CLR,OVC,0.00,WeatherDisplay:10.37,2013-12-16 01:12:00,
2013-12-15 20:14:00,21.6,19.6,29.66,NE,34,0.0,0.0,92,0.00,CLR,OVC,0.00,WeatherDisplay:10.37,2013-12-16 01:14:00,
2013-12-15 20:15:00,21.6,19.6,29.66,NE,34,0.1,1.0,92,0.00,CLR,OVC,0.00,WeatherDisplay:10.37,2013-12-16 01:15:00,
2013-12-15 20:16:00,21.6,19.6,29.66,NE,34,0.5,1.2,92,0.00,CLR,OVC,0.00,WeatherDisplay:10.37,2013-12-16 01:16:00,
2013-12-15 20:17:00,21.5,19.5,29.65,NE,34,1.9,3.5,92,0.00,CLR,OVC,0.00,WeatherDisplay:10.37,2013-12-16 01:17:00,
2013-12-15 20:20:00,21.4,19.4,29.66,NE,34,1.2,2.3,92,0.00,CLR,OVC,0.00,WeatherDisplay:10.37,2013-12-16 01:20:00,
2013-12-15 20:21:00,21.4,19.4,29.65,NE,34,0.4,2.3,92,0.00,CLR,OVC,0.00,WeatherDisplay:10.37,2013-12-16 01:21:00,
2013-12-15 20:22:00,21.3,19.3,29.65,NE,34,2.8,3.5,92,0.00,CLR,OVC,0.00,WeatherDisplay:10.37,2013-12-16 01:22:00,
2013-12-15 20:25:00,21.2,19.2,29.65,NE,34,2.4,3.5,92,0.00,CLR,OVC,0.00,WeatherDisplay:10.37,2013-12-16 01:25:00,
2013-12-15 20:26:00,21.2,19.2,29.65,NE,34,0.9,2.3,92,0.00,CLR,OVC,0.00,WeatherDisplay:10.37,2013-12-16 01:26:00,
2013-12-15 20:27:00,21.1,19.1,29.65,NE,34,0.0,2.3,92,0.00,CLR,OVC,0.00,WeatherDisplay:10.37,2013-12-16 01:27:00,
2013-12-15 20:28:00,21.1,18.9,29.66,NE,34,0.0,1.2,91,0.00,CLR,OVC,0.00,WeatherDisplay:10.37,2013-12-16 01:28:00,
2013-12-15 20:30:00,21.0,19.0,29.65,NE,34,0.9,3.0,92,0.00,CLR,OVC,0.00,WeatherDisplay:10.37,2013-12-16 01:30:00,
2013-12-15 20:31:00,20.9,18.7,29.65,NE,34,1.0,3.5,91,0.00,CLR,OVC,0.00,WeatherDisplay:10.37,2013-12-16 01:31:00,
2013-12-15 20:32:00,20.8,18.8,29.65,NE,34,0.1,1.2,92,0.00,CLR,OVC,0.00,WeatherDisplay:10.37,2013-12-16 01:32:00,
2013-12-15 20:33:00,20.8,18.6,29.65,NE,34,0.1,1.2,91,0.00,CLR,OVC,0.00,WeatherDisplay:10.37,2013-12-16 01:33:00,
2013-12-15 20:35:00,20.6,18.6,29.65,NE,34,0.0,0.0,92,0.00,CLR,OVC,0.00,WeatherDisplay:10.37,2013-12-16 01:35:00,
2013-12-15 20:36:00,20.6,18.6,29.65,NE,34,0.0,0.0,92,0.00,CLR,OVC,0.00,WeatherDisplay:10.37,2013-12-16 01:36:00,
2013-12-15 20:37:00,20.5,18.3,29.65,NE,34,0.0,0.0,91,0.00,CLR,OVC,0.00,WeatherDisplay:10.37,2013-12-16 01:37:00,
2013-12-15 20:38:00,20.5,18.3,29.65,NE,34,0.0,0.0,91,0.00,CLR,OVC,0.00,WeatherDisplay:10.37,2013-12-16 01:38:00,
2013-12-15 20:41:00,20.2,18.0,29.65,NE,34,0.3,2.3,91,0.00,CLR,OVC,0.00,WeatherDisplay:10.37,2013-12-16 01:41:00,
2013-12-15 20:42:00,20.1,18.1,29.65,NE,34,0.0,1.2,92,0.00,CLR,OVC,0.00,WeatherDisplay:10.37,2013-12-16 01:42:00,
2013-12-15 20:43:00,20.1,18.1,29.65,NE,34,0.0,1.2,92,0.00,CLR,OVC,0.00,WeatherDisplay:10.37,2013-12-16 01:43:00,
2013-12-15 20:44:00,20.0,17.8,29.64,NE,34,0.2,2.0,91,0.00,CLR,OVC,0.00,WeatherDisplay:10.37,2013-12-16 01:44:00,
2013-12-15 20:46:00,19.7,17.5,29.64,NE,34,0.5,3.5,91,0.00,CLR,OVC,0.00,WeatherDisplay:10.37,2013-12-16 01:46:00,
2013-12-15 20:47:00,19.7,17.5,29.64,NE,34,0.2,3.5,91,0.00,CLR,OVC,0.00,WeatherDisplay:10.37,2013-12-16 01:47:00,
2013-12-15 20:48:00,19.6,17.4,29.63,NE,34,0.6,1.2,91,0.00,CLR,OVC,0.00,WeatherDisplay:10.37,2013-12-16 01:48:00,
2013-12-15 20:49:00,19.5,17.3,29.63,NE,34,0.7,2.3,91,0.00,CLR,OVC,0.00,WeatherDisplay:10.37,2013-12-16 01:49:00,
2013-12-15 20:52:00,19.2,17.0,29.64,NE,34,0.0,0.0,91,0.00,CLR,OVC,0.00,WeatherDisplay:10.37,2013-12-16 01:52:00,
2013-12-15 20:53:00,19.1,16.9,29.64,NE,34,0.0,0.0,91,0.00,CLR,OVC,0.00,WeatherDisplay:10.37,2013-12-16 01:53:00,
2013-12-15 20:54:00,19.1,16.9,29.64,NE,34,0.0,0.0,91,0.00,CLR,OVC,0.00,WeatherDisplay:10.37,2013-12-16 01:54:00,
2013-12-15 20:57:00,18.8,16.6,29.64,NE,34,1.5,2.3,91,0.00,CLR,OVC,0.00,WeatherDisplay:10.37,2013-12-16 01:57:00,
2013-12-15 20:58:00,18.7,16.5,29.64,NE,34,1.3,2.3,91,0.00,CLR,OVC,0.00,WeatherDisplay:10.37,2013-12-16 01:58:00,
2013-12-15 20:59:00,18.6,16.4,29.64,NE,34,1.2,2.3,91,0.00,CLR,OVC,0.00,WeatherDisplay:10.37,2013-12-16 01:59:00,
2013-12-15 21:03:00,18.2,15.8,29.65,NE,34,1.6,3.5,90,0.00,CLR,OVC,0.00,WeatherDisplay:10.37,2013-12-16 02:03:00,
2013-12-15 21:04:00,18.1,15.9,29.65,NE,34,1.1,2.3,91,0.00,CLR,OVC,0.00,WeatherDisplay:10.37,2013-12-16 02:04:00,
2013-12-15 21:08:00,17.7,15.5,29.65,NE,34,2.1,3.5,91,0.00,CLR,OVC,0.00,WeatherDisplay:10.37,2013-12-16 02:08:00,
2013-12-15 21:09:00,17.6,15.2,29.65,NE,34,2.1,3.5,90,0.00,CLR,OVC,0.00,WeatherDisplay:10.37,2013-12-16 02:09:00,
2013-12-15 21:13:00,16.9,14.5,29.65,NE,34,3.6,4.0,90,0.00,CLR,OVC,0.00,WeatherDisplay:10.37,2013-12-16 02:13:00,
2013-12-15 21:14:00,16.8,14.4,29.65,NE,34,3.5,4.0,90,0.00,CLR,OVC,0.00,WeatherDisplay:10.37,2013-12-16 02:14:00,
2013-12-15 21:18:00,16.4,14.0,29.66,NNE,33,2.2,3.5,90,0.00,CLR,OVC,0.00,WeatherDisplay:10.37,2013-12-16 02:18:00,
2013-12-15 21:19:00,16.4,14.0,29.66,NNE,33,2.6,3.5,90,0.00,CLR,OVC,0.00,WeatherDisplay:10.37,2013-12-16 02:19:00,
2013-12-15 21:24:00,16.0,13.6,29.65,NNE,33,4.0,4.6,90,0.00,CLR,OVC,0.00,WeatherDisplay:10.37,2013-12-16 02:24:00,
2013-12-15 21:25:00,15.9,13.5,29.65,NNE,33,3.9,4.0,90,0.00,CLR,OVC,0.00,WeatherDisplay:10.37,2013-12-16 02:25:00,
2013-12-15 21:29:00,15.7,13.3,29.66,NNE,33,0.4,3.5,90,0.00,CLR,OVC,0.00,WeatherDisplay:10.37,2013-12-16 02:29:00,
2013-12-15 21:30:00,15.7,13.3,29.66,North,10,1.4,3.5,90,0.00,CLR,OVC,0.00,WeatherDisplay:10.37,2013-12-16 02:30:00,
2013-12-15 21:34:00,15.2,12.5,29.66,North,9,2.7,3.5,89,0.00,CLR,OVC,0.00,WeatherDisplay:10.37,2013-12-16 02:34:00,
2013-12-15 21:35:00,15.1,12.7,29.66,North,9,2.3,3.5,90,0.00,CLR,OVC,0.00,WeatherDisplay:10.37,2013-12-16 02:35:00,
2013-12-15 21:36:00,15.0,12.6,29.66,North,9,2.6,3.5,90,0.00,CLR,OVC,0.00,WeatherDisplay:10.37,2013-12-16 02:36:00,
2013-12-15 21:39:00,14.8,12.4,29.66,North,9,0.1,2.3,90,0.00,CLR,OVC,0.00,WeatherDisplay:10.37,2013-12-16 02:39:00,
2013-12-15 21:40:00,14.8,12.4,29.66,North,9,0.0,1.2,90,0.00,CLR,OVC,0.00,WeatherDisplay:10.37,2013-12-16 02:40:00,
2013-12-15 21:41:00,14.8,12.4,29.66,North,9,0.0,0.0,90,0.00,CLR,OVC,0.00,WeatherDisplay:10.37,2013-12-16 02:41:00,
2013-12-15 21:44:00,14.7,12.3,29.66,North,9,0.6,2.3,90,0.00,CLR,OVC,0.00,WeatherDisplay:10.37,2013-12-16 02:44:00,
2013-12-15 21:45:00,14.6,12.2,29.66,North,9,1.5,2.3,90,0.00,CLR,OVC,0.00,WeatherDisplay:10.37,2013-12-16 02:45:00,
2013-12-15 21:46:00,14.6,12.2,29.66,North,9,0.4,2.3,90,0.00,CLR,OVC,0.00,WeatherDisplay:10.37,2013-12-16 02:46:00,
2013-12-15 21:47:00,14.6,12.2,29.66,North,9,1.3,2.3,90,0.00,CLR,OVC,0.00,WeatherDisplay:10.37,2013-12-16 02:47:00,
2013-12-15 21:49:00,14.4,12.0,29.66,North,9,2.2,3.5,90,0.00,CLR,OVC,0.00,WeatherDisplay:10.37,2013-12-16 02:49:00,
2013-12-15 21:51:00,14.4,12.0,29.66,North,9,2.6,3.5,90,0.00,CLR,OVC,0.00,WeatherDisplay:10.37,2013-12-16 02:51:00,
2013-12-15 21:52:00,14.4,12.0,29.66,North,9,3.0,3.5,90,0.00,CLR,OVC,0.00,WeatherDisplay:10.37,2013-12-16 02:52:00,
2013-12-15 21:54:00,14.5,12.1,29.67,North,9,1.6,2.3,90,0.00,CLR,OVC,0.00,WeatherDisplay:10.37,2013-12-16 02:54:00,
2013-12-15 21:56:00,14.5,12.1,29.67,North,9,2.3,3.5,90,0.00,CLR,OVC,0.00,WeatherDisplay:10.37,2013-12-16 02:56:00,
2013-12-15 21:57:00,14.6,12.2,29.67,North,9,2.7,4.0,90,0.00,CLR,OVC,0.00,WeatherDisplay:10.37,2013-12-16 02:57:00,
2013-12-15 21:58:00,14.6,12.2,29.66,North,9,4.0,4.6,90,0.00,CLR,OVC,0.00,WeatherDisplay:10.37,2013-12-16 02:58:00,
2013-12-15 22:00:00,14.7,12.6,29.67,North,9,1.9,4.6,91,0.00,CLR,OVC,0.00,WeatherDisplay:10.37,2013-12-16 03:00:00,
2013-12-15 22:01:00,14.9,12.7,29.67,North,9,1.5,3.5,91,0.00,CLR,OVC,0.00,WeatherDisplay:10.37,2013-12-16 03:01:00,
2013-12-15 22:02:00,14.9,12.7,29.67,North,9,1.5,3.5,91,0.00,CLR,OVC,0.00,WeatherDisplay:10.37,2013-12-16 03:02:00,
2013-12-15 22:03:00,14.9,12.7,29.66,North,9,1.9,3.5,91,0.00,CLR,OVC,0.00,WeatherDisplay:10.37,2013-12-16 03:03:00,
2013-12-15 22:04:00,15.0,12.8,29.67,North,9,2.4,3.5,91,0.00,CLR,OVC,0.00,WeatherDisplay:10.37,2013-12-16 03:04:00,
2013-12-15 22:06:00,15.2,13.0,29.67,North,9,3.2,3.5,91,0.00,CLR,OVC,0.00,WeatherDisplay:10.37,2013-12-16 03:06:00,
2013-12-15 22:07:00,15.2,13.0,29.67,North,9,2.1,3.5,91,0.00,CLR,OVC,0.00,WeatherDisplay:10.37,2013-12-16 03:07:00,
2013-12-15 22:08:00,15.3,13.1,29.67,North,9,0.4,3.5,91,0.00,CLR,OVC,0.00,WeatherDisplay:10.37,2013-12-16 03:08:00,
2013-12-15 22:09:00,15.3,13.1,29.67,North,9,0.0,2.3,91,0.00,CLR,OVC,0.00,WeatherDisplay:10.37,2013-12-16 03:09:00,
2013-12-15 22:11:00,15.4,13.2,29.67,North,9,1.3,2.3,91,0.00,CLR,OVC,0.00,WeatherDisplay:10.37,2013-12-16 03:11:00,
2013-12-15 22:12:00,15.4,13.2,29.67,North,9,1.8,3.0,91,0.00,CLR,OVC,0.00,WeatherDisplay:10.37,2013-12-16 03:12:00,
2013-12-15 22:14:00,15.4,13.2,29.67,North,9,2.8,3.5,91,0.00,CLR,OVC,0.00,WeatherDisplay:10.37,2013-12-16 03:14:00,
2013-12-15 22:16:00,15.6,13.4,29.67,North,9,3.5,3.5,91,0.00,CLR,OVC,0.00,WeatherDisplay:10.37,2013-12-16 03:16:00,
2013-12-15 22:17:00,15.6,13.4,29.67,North,9,3.7,4.0,91,0.00,CLR,OVC,0.00,WeatherDisplay:10.37,2013-12-16 03:17:00,
2013-12-15 22:19:00,15.7,13.5,29.67,North,9,2.4,3.5,91,0.00,CLR,OVC,0.00,WeatherDisplay:10.37,2013-12-16 03:19:00,
2013-12-15 22:21:00,15.9,13.7,29.67,North,9,2.5,3.5,91,0.00,CLR,OVC,0.00,WeatherDisplay:10.37,2013-12-16 03:21:00,
2013-12-15 22:22:00,15.9,13.7,29.67,North,9,2.5,3.5,91,0.00,CLR,OVC,0.00,WeatherDisplay:10.37,2013-12-16 03:22:00,
2013-12-15 22:24:00,16.0,14.1,29.67,North,9,0.6,3.5,92,0.00,CLR,OVC,0.00,WeatherDisplay:10.37,2013-12-16 03:24:00,
2013-12-15 22:26:00,16.1,13.9,29.67,North,9,0.7,2.0,91,0.00,CLR,OVC,0.00,WeatherDisplay:10.37,2013-12-16 03:26:00,
2013-12-15 22:27:00,16.1,13.9,29.67,North,9,1.9,3.5,91,0.00,CLR,OVC,0.00,WeatherDisplay:10.37,2013-12-16 03:27:00,
2013-12-15 22:29:00,16.1,13.9,29.67,North,9,2.8,4.6,91,0.00,CLR,OVC,0.00,WeatherDisplay:10.37,2013-12-16 03:29:00,
2013-12-15 22:30:00,16.1,13.9,29.67,North,9,2.6,4.0,91,0.00,CLR,OVC,0.00,WeatherDisplay:10.37,2013-12-16 03:30:00,
2013-12-15 22:31:00,16.1,13.9,29.67,North,9,2.2,5.8,91,0.00,CLR,OVC,0.00,WeatherDisplay:10.37,2013-12-16 03:31:00,
2013-12-15 22:32:00,16.2,14.0,29.67,North,9,2.1,4.0,91,0.00,CLR,OVC,0.00,WeatherDisplay:10.37,2013-12-16 03:32:00,
2013-12-15 22:34:00,16.2,14.0,29.67,NNE,14,2.4,3.5,91,0.00,CLR,OVC,0.00,WeatherDisplay:10.37,2013-12-16 03:34:00,
2013-12-15 22:35:00,16.3,14.1,29.67,NNE,18,3.5,5.0,91,0.00,CLR,OVC,0.00,WeatherDisplay:10.37,2013-12-16 03:35:00,
2013-12-15 22:36:00,16.3,14.4,29.67,NE,53,3.8,4.6,92,0.00,CLR,OVC,0.00,WeatherDisplay:10.37,2013-12-16 03:36:00,
2013-12-15 22:37:00,16.4,14.2,29.67,NE,53,3.0,4.6,91,0.00,CLR,OVC,0.00,WeatherDisplay:10.37,2013-12-16 03:37:00,
2013-12-15 22:39:00,16.5,14.6,29.67,NE,48,1.6,4.6,92,0.00,CLR,OVC,0.00,WeatherDisplay:10.37,2013-12-16 03:39:00,
2013-12-15 22:40:00,16.5,14.6,29.67,NE,48,0.6,3.5,92,0.00,CLR,OVC,0.00,WeatherDisplay:10.37,2013-12-16 03:40:00,
2013-12-15 22:42:00,16.6,14.7,29.67,NE,47,1.7,3.5,92,0.00,CLR,OVC,0.00,WeatherDisplay:10.37,2013-12-16 03:42:00,
2013-12-15 22:44:00,16.6,14.4,29.67,NE,48,0.1,1.2,91,0.00,CLR,OVC,0.00,WeatherDisplay:10.37,2013-12-16 03:44:00,
2013-12-15 22:45:00,16.6,14.4,29.67,NE,47,0.1,1.2,91,0.00,CLR,OVC,0.00,WeatherDisplay:10.37,2013-12-16 03:45:00,
2013-12-15 22:47:00,16.4,14.0,29.68,NE,48,0.0,1.0,90,0.00,CLR,OVC,0.00,WeatherDisplay:10.37,2013-12-16 03:47:00,
2013-12-15 22:49:00,16.0,13.6,29.68,NE,48,0.3,2.3,90,0.00,CLR,OVC,0.00,WeatherDisplay:10.37,2013-12-16 03:49:00,
2013-12-15 22:50:00,15.8,13.4,29.68,NE,48,0.0,1.2,90,0.00,CLR,OVC,0.00,WeatherDisplay:10.37,2013-12-16 03:50:00,
2013-12-15 22:51:00,15.5,13.1,29.68,NE,48,1.2,1.2,90,0.00,CLR,OVC,0.00,WeatherDisplay:10.37,2013-12-16 03:51:00,
2013-12-15 22:52:00,15.3,12.6,29.68,NE,47,1.3,3.5,89,0.00,CLR,OVC,0.00,WeatherDisplay:10.37,2013-12-16 03:52:00,
2013-12-15 22:54:00,14.8,12.1,29.68,NE,47,0.0,0.0,89,0.00,CLR,OVC,0.00,WeatherDisplay:10.37,2013-12-16 03:54:00,
2013-12-15 22:55:00,14.6,11.9,29.67,NE,48,0.0,0.0,89,0.00,CLR,OVC,0.00,WeatherDisplay:10.37,2013-12-16 03:55:00,
2013-12-15 22:56:00,14.3,11.7,29.67,NE,48,0.5,2.3,89,0.00,CLR,OVC,0.00,WeatherDisplay:10.37,2013-12-16 03:56:00,
2013-12-15 22:57:00,14.2,11.6,29.67,NE,47,0.4,2.3,89,0.00,CLR,OVC,0.00,WeatherDisplay:10.37,2013-12-16 03:57:00,
2013-12-15 22:58:00,14.0,11.4,29.67,NE,48,0.1,1.2,89,0.00,CLR,OVC,0.00,WeatherDisplay:10.37,2013-12-16 03:58:00,
2013-12-15 23:00:00,13.7,11.1,29.67,NE,47,0.0,0.0,89,0.00,CLR,OVC,0.00,WeatherDisplay:10.37,2013-12-16 04:00:00,
2013-12-15 23:01:00,13.6,11.0,29.67,NE,47,0.0,0.0,89,0.00,CLR,OVC,0.00,WeatherDisplay:10.37,2013-12-16 04:01:00,
2013-12-15 23:02:00,13.5,10.9,29.68,NE,48,0.0,0.0,89,0.00,CLR,OVC,0.00,WeatherDisplay:10.37,2013-12-16 04:02:00,
2013-12-15 23:03:00,13.4,10.8,29.68,NE,47,0.0,0.0,89,0.00,CLR,OVC,0.00,WeatherDisplay:10.37,2013-12-16 04:03:00,
2013-12-15 23:05:00,13.2,10.6,29.68,NE,48,0.2,1.2,89,0.00,CLR,OVC,0.00,WeatherDisplay:10.37,2013-12-16 04:05:00,
2013-12-15 23:06:00,13.1,10.5,29.68,NE,47,0.0,1.2,89,0.00,CLR,OVC,0.00,WeatherDisplay:10.37,2013-12-16 04:06:00,
2013-12-15 23:07:00,13.1,10.5,29.68,NE,48,0.0,0.0,89,0.00,CLR,OVC,0.00,WeatherDisplay:10.37,2013-12-16 04:07:00,
2013-12-15 23:08:00,12.9,10.3,29.68,NE,47,0.0,0.0,89,0.00,CLR,OVC,0.00,WeatherDisplay:10.37,2013-12-16 04:08:00,
2013-12-15 23:10:00,12.8,10.2,29.68,NE,47,0.0,0.0,89,0.00,CLR,OVC,0.00,WeatherDisplay:10.37,2013-12-16 04:10:00,
2013-12-15 23:11:00,12.7,10.1,29.68,NE,48,0.0,0.0,89,0.00,CLR,OVC,0.00,WeatherDisplay:10.37,2013-12-16 04:11:00,
2013-12-15 23:12:00,12.6,10.0,29.69,NE,47,0.0,0.0,89,0.00,CLR,OVC,0.00,WeatherDisplay:10.37,2013-12-16 04:12:00,
2013-12-15 23:13:00,12.5,9.9,29.69,NE,48,0.0,0.0,89,0.00,CLR,OVC,0.00,WeatherDisplay:10.37,2013-12-16 04:13:00,
2013-12-15 23:16:00,12.4,9.8,29.69,NE,47,0.2,2.3,89,0.00,CLR,OVC,0.00,WeatherDisplay:10.37,2013-12-16 04:16:00,
2013-12-15 23:17:00,12.3,9.7,29.69,NE,47,0.0,0.0,89,0.00,CLR,OVC,0.00,WeatherDisplay:10.37,2013-12-16 04:17:00,
2013-12-15 23:19:00,12.3,9.7,29.69,NE,47,1.1,2.3,89,0.00,CLR,OVC,0.00,WeatherDisplay:10.37,2013-12-16 04:19:00,
2013-12-15 23:21:00,12.2,9.6,29.69,NE,48,1.4,2.3,89,0.00,CLR,OVC,0.00,WeatherDisplay:10.37,2013-12-16 04:21:00,
2013-12-15 23:22:00,12.2,9.6,29.69,NE,48,1.2,2.3,89,0.00,CLR,OVC,0.00,WeatherDisplay:10.37,2013-12-16 04:22:00,
2013-12-15 23:23:00,12.2,9.6,29.69,NE,48,1.4,2.3,89,0.00,CLR,OVC,0.00,WeatherDisplay:10.37,2013-12-16 04:23:00,
2013-12-15 23:24:00,12.2,9.6,29.69,NE,48,0.9,2.3,89,0.00,CLR,OVC,0.00,WeatherDisplay:10.37,2013-12-16 04:24:00,
2013-12-15 23:26:00,12.2,9.6,29.69,NE,48,0.1,1.2,89,0.00,CLR,OVC,0.00,WeatherDisplay:10.37,2013-12-16 04:26:00,
2013-12-15 23:27:00,12.3,9.9,29.69,NE,48,0.0,1.2,90,0.00,CLR,OVC,0.00,WeatherDisplay:10.37,2013-12-16 04:27:00,
2013-12-15 23:28:00,12.3,9.7,29.69,NE,48,0.0,0.0,89,0.00,CLR,OVC,0.00,WeatherDisplay:10.37,2013-12-16 04:28:00,
2013-12-15 23:29:00,12.4,10.0,29.69,NE,47,0.0,0.0,90,0.00,CLR,OVC,0.00,WeatherDisplay:10.37,2013-12-16 04:29:00,
2013-12-15 23:31:00,12.4,10.0,29.69,NE,47,0.0,0.0,90,0.00,CLR,OVC,0.00,WeatherDisplay:10.37,2013-12-16 04:31:00,
2013-12-15 23:32:00,12.4,9.8,29.69,NE,47,0.0,0.0,89,0.00,CLR,OVC,0.00,WeatherDisplay:10.37,2013-12-16 04:32:00,
2013-12-15 23:33:00,12.4,9.8,29.69,NE,48,0.0,0.0,89,0.00,CLR,OVC,0.00,WeatherDisplay:10.37,2013-12-16 04:33:00,
2013-12-15 23:34:00,12.4,9.8,29.69,NE,48,0.0,0.0,89,0.00,CLR,OVC,0.00,WeatherDisplay:10.37,2013-12-16 04:34:00,
2013-12-15 23:36:00,12.4,9.8,29.69,NE,47,0.0,0.0,89,0.00,CLR,OVC,0.00,WeatherDisplay:10.37,2013-12-16 04:36:00,
2013-12-15 23:37:00,12.4,9.8,29.69,NE,47,0.0,0.0,89,0.00,CLR,OVC,0.00,WeatherDisplay:10.37,2013-12-16 04:37:00,
2013-12-15 23:38:00,12.4,9.8,29.69,NE,47,0.0,0.0,89,0.00,CLR,OVC,0.00,WeatherDisplay:10.37,2013-12-16 04:38:00,
2013-12-15 23:39:00,12.4,9.8,29.69,NE,47,1.9,2.3,89,0.00,CLR,OVC,0.00,WeatherDisplay:10.37,2013-12-16 04:39:00,
2013-12-15 23:40:00,12.4,10.0,29.69,NE,48,1.5,2.3,90,0.00,CLR,OVC,0.00,WeatherDisplay:10.37,2013-12-16 04:40:00,
2013-12-15 23:42:00,12.4,10.0,29.69,NE,48,0.9,2.3,90,0.00,CLR,OVC,0.00,WeatherDisplay:10.37,2013-12-16 04:42:00,
2013-12-15 23:43:00,12.4,9.8,29.69,NE,47,1.2,2.3,89,0.00,CLR,OVC,0.00,WeatherDisplay:10.37,2013-12-16 04:43:00,
2013-12-15 23:44:00,12.5,10.1,29.69,NE,47,0.6,2.3,90,0.00,CLR,OVC,0.00,WeatherDisplay:10.37,2013-12-16 04:44:00,
2013-12-15 23:45:00,12.5,10.1,29.69,NE,48,0.3,2.3,90,0.00,CLR,OVC,0.00,WeatherDisplay:10.37,2013-12-16 04:45:00,
2013-12-15 23:47:00,12.7,10.3,29.69,NE,47,2.7,3.5,90,0.00,CLR,OVC,0.00,WeatherDisplay:10.37,2013-12-16 04:47:00,
2013-12-15 23:48:00,12.7,10.3,29.69,NE,47,1.7,3.5,90,0.00,CLR,OVC,0.00,WeatherDisplay:10.37,2013-12-16 04:48:00,
2013-12-15 23:49:00,12.8,10.4,29.69,NE,47,1.7,2.3,90,0.00,CLR,OVC,0.00,WeatherDisplay:10.37,2013-12-16 04:49:00,
2013-12-15 23:50:00,12.8,10.4,29.69,NE,47,1.8,3.5,90,0.00,CLR,OVC,0.00,WeatherDisplay:10.37,2013-12-16 04:50:00,
2013-12-15 23:51:00,12.8,10.2,29.69,NE,47,0.4,2.3,89,0.00,CLR,OVC,0.00,WeatherDisplay:10.37,2013-12-16 04:51:00,
2013-12-15 23:52:00,12.8,10.2,29.69,NE,47,0.0,2.3,89,0.00,CLR,OVC,0.00,WeatherDisplay:10.37,2013-12-16 04:52:00,
2013-12-15 23:53:00,12.7,10.1,29.69,NE,47,0.0,0.0,89,0.00,CLR,OVC,0.00,WeatherDisplay:10.37,2013-12-16 04:53:00,
2013-12-15 23:55:00,12.5,9.9,29.68,NE,47,0.0,0.0,89,0.00,CLR,OVC,0.00,WeatherDisplay:10.37,2013-12-16 04:55:00,
2013-12-15 23:56:00,12.5,9.9,29.68,NE,47,0.0,0.0,89,0.00,CLR,OVC,0.00,WeatherDisplay:10.37,2013-12-16 04:56:00,
2013-12-15 23:57:00,12.4,9.8,29.68,NE,47,0.6,2.0,89,0.00,CLR,OVC,0.00,WeatherDisplay:10.37,2013-12-16 04:57:00,
2013-12-15 23:58:00,12.3,9.7,29.68,NE,47,1.6,2.3,89,0.00,CLR,OVC,0.00,WeatherDisplay:10.37,2013-12-16 04:58:00,
2013-12-15 23:59:00,12.3,9.7,29.68,NE,47,1.7,2.3,89,0.00,CLR,OVC,0.00,WeatherDisplay:10.37,2013-12-16 04:59:00,